[[{"header":{"parameterUnit":"m.s-1","parameterCategory":1,"la1":30.6,"la2":28.766,"lo1":-90.7593,"lo2":-88.6598,"dy":0.0162,"dx":0.0183,"nx":116,"ny":114,"refTime":"2023-10-30T06:00:00:Z","depth":0,"parameterNumber":2,"parameterNumberName":"U-component_of_WINDS"},"data":[0.0,0.0,0.0,0.0,0.0,0.0,0.0,0.0,0.0,0.0,0.0,0.0,0.0,0.0,0.0,0.0,0.0,0.0,0.0,0.0,0.0,0.0,0.0,0.0,0.0,0.0,0.0,0.0,0.0,0.0,0.0,0.0,0.0,0.0,0.0,0.0,0.0,0.0,0.0,0.0,0.0,0.0,0.0,0.0,0.0,0.0,0.0,0.0,0.0,0.0,0.0,0.0,0.0,0.0,0.0,0.0,0.0,0.0,0.0,0.0,0.0,0.0,0.0,0.0,0.0,0.0,0.0,0.0,0.0,0.0,0.0,0.0,0.0,0.0,0.0,0.0,0.0,0.0,0.0,0.0,0.0,0.0,0.0,0.0,0.0,0.0,0.0,0.0,0.0,0.0,0.0,0.0,0.0,0.0,0.0,0.0,0.0,0.0,0.0,0.0,0.0,0.0,0.0,0.0,0.0,0.0,0.0,0.0,0.0,0.0,0.0,0.0,0.0,0.0,0.0,0.0,0.0,0.0,0.0,0.0,0.0,0.0,0.0,0.0,0.0,0.0,0.0,0.0,0.0,0.0,0.0,0.0,0.0,0.0,0.0,0.0,0.0,0.0,0.0,0.0,0.0,0.0,0.0,0.0,0.0,0.0,0.0,0.0,0.0,0.0,0.0,0.0,0.0,0.0,0.0,0.0,0.0,0.0,0.0,0.0,0.0,0.0,0.0,0.0,0.0,0.0,0.0,0.0,0.0,0.0,0.0,0.0,0.0,0.0,0.0,0.0,0.0,0.0,0.0,0.0,0.0,0.0,0.0,0.0,0.0,0.0,0.0,0.0,0.0,0.0,0.0,0.0,0.0,0.0,0.0,0.0,0.0,0.0,0.0,0.0,0.0,0.0,0.0,0.0,0.0,0.0,0.0,0.0,0.0,0.0,0.0,0.0,0.0,0.0,0.0,0.0,0.0,0.0,0.0,0.0,0.0,0.0,0.0,0.0,0.0,0.0,0.0,0.0,0.0,0.0,0.0,0.0,0.0,0.0,0.0,0.0,0.0,0.0,0.0,0.0,0.0,0.0,0.0,0.0,0.0,0.0,0.0,0.0,0.0,0.0,0.0,0.0,0.0,0.0,0.0,0.0,0.0,0.0,0.0,0.0,0.0,0.0,0.0,0.0,0.0,0.0,0.0,0.0,0.0,0.0,0.0,0.0,0.0,0.0,0.0,0.0,0.0,0.0,0.0,0.0,0.0,0.0,0.0,0.0,0.0,0.0,0.0,0.0,0.0,0.0,0.0,0.0,0.0,0.0,0.0,0.0,0.0,0.0,0.0,0.0,0.0,0.0,0.0,0.0,0.0,0.0,0.0,0.0,0.0,0.0,0.0,0.0,0.0,0.0,0.0,0.0,0.0,0.0,0.0,0.0,0.0,0.0,0.0,0.0,0.0,0.0,0.0,0.0,0.0,0.0,0.0,0.0,0.0,0.0,0.0,0.0,0.0,0.0,0.0,0.0,0.0,0.0,0.0,0.0,0.0,0.0,0.0,0.0,0.0,0.0,0.0,0.0,0.0,0.0,0.0,0.0,0.0,0.0,0.0,0.0,0.0,0.0,0.0,0.0,0.0,0.0,0.0,0.0,0.0,0.0,0.0,0.0,0.0,0.0,0.0,0.0,0.0,0.0,0.0,0.0,0.0,0.0,0.0,0.0,0.0,0.0,0.0,0.0,0.0,0.0,0.0,0.0,0.0,0.0,0.0,0.0,0.0,0.0,0.0,0.0,0.0,0.0,0.0,0.0,0.0,0.0,0.0,0.0,0.0,0.0,0.0,0.0,0.0,0.0,0.0,0.0,0.0,0.0,0.0,0.0,0.0,0.0,0.0,0.0,0.0,0.0,0.0,0.0,0.0,0.0,0.0,0.0,0.0,0.0,0.0,0.0,0.0,0.0,0.0,0.0,0.0,0.0,0.0,0.0,0.0,0.0,0.0,0.0,0.0,0.0,0.0,0.0,0.0,0.0,0.0,0.0,0.0,0.0,0.0,0.0,0.0,0.0,0.0,0.0,0.0,0.0,0.0,0.0,0.0,0.0,0.0,0.0,0.0,0.0,0.0,0.0,0.0,0.0,0.0,0.0,0.0,0.0,0.0,0.0,0.0,0.0,0.0,0.0,0.0,0.0,0.0,0.0,0.0,0.0,0.0,0.0,0.0,0.0,0.0,0.0,0.0,0.0,0.0,0.0,0.0,0.0,0.0,0.0,0.0,0.0,0.0,0.0,0.0,0.0,0.0,0.0,0.0,0.0,0.0,0.0,0.0,0.0,0.0,0.0,0.0,0.0,0.0,0.0,0.0,0.0,0.0,0.0,0.0,0.0,0.0,0.0,0.0,0.0,0.0,0.0,0.0,0.0,0.0,0.0,0.0,0.0,0.0,0.0,0.0,0.0,0.0,0.0,0.0,0.0,0.0,0.0,0.0,0.0,0.0,0.0,0.0,0.0,0.0,0.0,0.0,0.0,0.0,0.0,0.0,0.0,0.0,0.0,0.0,0.0,0.0,0.0,0.0,0.0,0.0,0.0,0.0,0.0,0.0,0.0,0.0,0.0,0.0,0.0,0.0,0.0,0.0,0.0,0.0,0.0,0.0,0.0,0.0,0.0,0.0,0.0,0.0,0.0,0.0,0.0,0.0,0.0,0.0,0.0,0.0,0.0,0.0,0.0,0.0,0.0,0.0,0.0,0.0,0.0,0.0,0.0,0.0,0.0,0.0,0.0,0.0,0.0,0.0,0.0,0.0,0.0,0.0,0.0,0.0,0.0,0.0,0.0,0.0,0.0,0.0,0.0,0.0,0.0,0.0,0.0,0.0,0.0,0.0,0.0,0.0,0.0,0.0,0.0,0.0,0.0,0.0,0.0,0.0,0.0,0.0,0.0,0.0,0.0,0.0,0.0,0.0,0.0,0.0,0.0,0.0,0.0,0.0,0.0,0.0,0.0,0.0,0.0,0.0,0.0,0.0,0.0,0.0,0.0,0.0,0.0,0.0,0.0,0.0,0.0,0.0,0.0,0.0,0.0,0.0,0.0,0.0,0.0,0.0,0.0,0.0,0.0,0.0,0.0,0.0,0.0,0.0,0.0,0.0,0.0,0.0,0.0,0.0,0.0,0.0,0.0,0.0,0.0,0.0,0.0,0.0,0.0,0.0,0.0,0.0,0.0,0.0,0.0,0.0,0.0,0.0,0.0,0.0,0.0,0.0,0.0,0.0,0.0,0.0,0.0,0.0,0.0,0.0,0.0,0.0,0.0,0.0,0.0,0.0,0.0,0.0,0.0,0.0,0.0,0.0,0.0,0.0,0.0,0.0,0.0,0.0,0.0,0.0,0.0,0.0,0.0,0.0,0.0,0.0,0.0,0.0,0.0,0.0,0.0,0.0,0.0,0.0,0.0,0.0,0.0,0.0,0.0,0.0,0.0,0.0,0.0,0.0,0.0,0.0,0.0,0.0,0.0,0.0,0.0,0.0,0.0,0.0,0.0,0.0,0.0,0.0,0.0,0.0,0.0,0.0,0.0,0.0,0.0,0.0,0.0,0.0,0.0,0.0,0.0,0.0,0.0,0.0,0.0,0.0,0.0,0.0,0.0,0.0,0.0,0.0,0.0,0.0,0.0,0.0,0.0,0.0,0.0,0.0,0.0,0.0,0.0,0.0,0.0,0.0,0.0,0.0,0.0,0.0,0.0,0.0,0.0,0.0,0.0,0.0,0.0,0.0,0.0,0.0,0.0,0.0,0.0,0.0,0.0,0.0,0.0,0.0,0.0,0.0,0.0,0.0,0.0,0.0,0.0,0.0,0.0,0.0,0.0,0.0,0.0,0.0,0.0,0.0,0.0,0.0,0.0,0.0,0.0,0.0,0.0,0.0,0.0,0.0,0.0,0.0,0.0,0.0,0.0,0.0,0.0,0.0,0.0,0.0,0.0,0.0,0.0,0.0,0.0,0.0,0.0,0.0,0.0,0.0,0.0,0.0,0.0,0.0,0.0,0.0,0.0,0.0,0.0,0.0,0.0,0.0,0.0,0.0,0.0,0.0,0.0,0.0,0.0,0.0,0.0,0.0,0.0,0.0,0.0,0.0,0.0,0.0,0.0,0.0,0.0,0.0,0.0,0.0,0.0,0.0,0.0,0.0,0.0,0.0,0.0,0.0,0.0,0.0,0.0,0.0,0.0,0.0,0.0,0.0,0.0,0.0,0.0,0.0,0.0,0.0,0.0,0.0,0.0,0.0,0.0,0.0,0.0,0.0,0.0,0.0,0.0,0.0,0.0,0.0,0.0,0.0,0.0,0.0,0.0,0.0,0.0,0.0,0.0,0.0,0.0,0.0,0.0,0.0,0.0,0.0,0.0,0.0,0.0,0.0,0.0,0.0,0.0,0.0,0.0,0.0,0.0,0.0,0.0,0.0,0.0,0.0,0.0,0.0,0.0,0.0,0.0,0.0,0.0,0.0,0.0,0.0,0.0,0.0,0.0,0.0,0.0,0.0,0.0,0.0,0.0,0.0,0.0,0.0,0.0,0.0,0.0,0.0,0.0,0.0,0.0,0.0,0.0,0.0,0.0,0.0,0.0,0.0,0.0,0.0,0.0,0.0,0.0,0.0,0.0,0.0,0.0,0.0,0.0,0.0,0.0,0.0,0.0,0.0,0.0,0.0,0.0,0.0,0.0,0.0,0.0,0.0,0.0,0.0,0.0,0.0,0.0,0.0,0.0,0.0,0.0,0.0,0.0,0.0,0.0,0.0,0.0,0.0,0.0,0.0,0.0,0.0,0.0,0.0,0.0,0.0,0.0,0.0,0.0,0.0,0.0,0.0,0.0,0.0,0.0,0.0,0.0,0.0,0.0,0.0,0.0,0.0,0.0,0.0,0.0,0.0,0.0,0.0,0.0,0.0,0.0,0.0,0.0,0.0,0.0,0.0,0.0,0.0,0.0,0.0,0.0,0.0,0.0,0.0,0.0,0.0,0.0,0.0,0.0,0.0,0.0,0.0,0.0,0.0,0.0,0.0,0.0,0.0,0.0,0.0,0.0,0.0,0.0,0.0,0.0,0.0,0.0,0.0,0.0,0.0,0.0,0.0,0.0,0.0,0.0,0.0,0.0,0.0,0.0,0.0,0.0,0.0,0.0,0.0,0.0,0.0,0.0,0.0,0.0,0.0,0.0,0.0,0.0,0.0,0.0,0.0,0.0,0.0,0.0,0.0,0.0,0.0,0.0,0.0,0.0,0.0,0.0,0.0,0.0,0.0,0.0,0.0,0.0,0.0,0.0,0.0,0.0,0.0,0.0,0.0,0.0,0.0,0.0,0.0,0.0,0.0,0.0,0.0,0.0,0.0,0.0,0.0,0.0,0.0,0.0,0.0,0.0,0.0,0.0,0.0,0.0,0.0,0.0,0.0,0.0,0.0,0.0,0.0,0.0,0.0,0.0,0.0,0.0,0.0,0.0,0.0,0.0,0.0,0.0,0.0,0.0,0.0,0.0,0.0,0.0,0.0,0.0,0.0,0.0,0.0,0.0,0.0,0.0,0.0,0.0,0.0,0.0,0.0,0.0,0.0,0.0,0.0,0.0,0.0,0.0,0.0,0.0,0.0,0.0,0.0,0.0,0.0,0.0,0.0,0.0,0.0,0.0,0.0,0.0,0.0,0.0,0.0,0.0,0.0,0.0,0.0,0.0,0.0,0.0,0.0,0.0,0.0,0.0,0.0,0.0,0.0,0.0,0.0,0.0,0.0,0.0,0.0,0.0,0.0,0.0,0.0,0.0,0.0,0.0,0.0,0.0,0.0,0.0,0.0,0.0,0.0,0.0,0.0,0.0,0.0,0.0,0.0,0.0,0.0,0.0,0.0,0.0,0.0,0.0,0.0,0.0,0.0,0.0,0.0,0.0,0.0,0.0,0.0,0.0,0.0,0.0,0.0,0.0,0.0,0.0,0.0,0.0,0.0,0.0,0.0,0.0,0.0,0.0,0.0,0.0,0.0,0.0,0.0,0.0,0.0,0.0,0.0,0.0,0.0,0.0,0.0,0.0,0.0,0.0,0.0,0.0,0.0,0.0,0.0,0.0,2.9442,2.9409,0.0,0.0,0.0,0.0,0.0,0.0,0.0,0.0,0.0,0.0,0.0,0.0,0.0,0.0,0.0,0.0,0.0,0.0,0.0,0.0,0.0,0.0,0.0,0.0,0.0,0.0,0.0,0.0,0.0,0.0,0.0,0.0,0.0,0.0,0.0,0.0,0.0,0.0,1.9811,1.9811,1.9811,1.9811,1.9811,1.9811,0.0,0.0,0.0,0.0,0.0,0.0,0.0,0.0,0.0,0.0,0.0,0.0,0.0,0.0,0.0,0.0,0.0,0.0,0.0,0.0,0.0,0.0,0.0,0.0,0.0,0.0,0.0,0.0,0.0,0.0,0.0,0.0,0.0,0.0,0.0,0.0,0.0,0.0,0.0,0.0,0.0,0.0,0.0,0.0,0.0,0.0,0.0,0.0,0.0,0.0,0.0,0.0,0.0,0.0,0.0,0.0,0.0,0.0,0.0,0.0,0.0,0.0,0.0,0.0,0.0,0.0,0.0,0.0,0.0,0.0,2.9824,2.9548,0.0,0.0,0.0,0.0,0.0,0.0,0.0,0.0,0.0,0.0,0.0,0.0,0.0,0.0,0.0,0.0,0.0,0.0,0.0,0.0,0.0,0.0,0.0,1.319,1.2915,1.2915,1.2915,1.3133,0.0,0.0,0.0,0.0,0.0,0.0,0.0,1.9423,1.9811,1.9811,1.9811,1.9811,1.9811,1.9811,1.9811,1.9811,1.9811,0.0,0.0,0.0,0.0,0.0,0.0,0.0,0.0,0.0,0.0,0.0,0.0,0.0,0.0,0.0,0.0,0.0,0.0,0.0,0.0,0.0,0.0,0.0,0.0,0.0,0.0,0.0,0.0,0.0,0.0,0.0,0.0,0.0,0.0,0.0,0.0,0.0,0.0,0.0,0.0,0.0,0.0,0.0,0.0,0.0,0.0,0.0,0.0,0.0,0.0,0.0,0.0,0.0,0.0,0.0,0.0,0.0,0.0,0.0,0.0,0.0,0.0,0.0,3.0673,3.0978,3.1562,3.1562,3.1562,3.1515,3.0592,2.9871,2.9401,2.9685,0.0,0.0,0.0,0.0,0.0,0.0,0.0,0.0,0.0,0.0,0.0,0.0,0.0,0.0,0.0,0.0,0.0,0.0,0.0,0.0,0.0,1.2944,1.2915,1.2915,1.2915,1.3077,1.3525,0.0,0.0,0.0,0.0,0.0,1.8688,1.9423,1.9811,1.9811,1.9811,1.9811,1.9811,1.9811,1.9811,1.9811,1.9811,1.9811,1.9849,0.0,0.0,0.0,0.0,0.0,0.0,0.0,0.0,0.0,0.0,0.0,0.0,0.0,0.0,0.0,0.0,0.0,0.0,0.0,0.0,0.0,0.0,0.0,0.0,0.0,0.0,0.0,0.0,0.0,0.0,0.0,0.0,0.0,0.0,0.0,0.0,0.0,0.0,0.0,0.0,0.0,2.67,2.67,0.0,0.0,0.0,0.0,0.0,0.0,0.0,0.0,0.0,0.0,0.0,0.0,0.0,3.1234,3.1853,3.252,3.2871,3.2973,3.2973,3.3007,3.3108,3.3108,3.3108,3.3119,3.2933,0.0,3.0896,3.0954,0.0,0.0,0.0,0.0,0.0,0.0,0.0,0.0,0.0,0.0,0.0,0.0,0.0,0.0,0.0,0.0,0.0,0.0,0.0,0.0,0.0,1.2915,1.2915,1.2915,1.2915,1.3079,1.3464,1.4098,0.0,0.0,0.0,1.8187,1.8688,1.9423,1.9811,1.9811,1.9811,1.9811,1.9811,1.9811,1.9811,1.9811,1.9811,1.9811,1.9837,2.0105,0.0,0.0,0.0,0.0,0.0,0.0,0.0,0.0,0.0,0.0,0.0,0.0,0.0,0.0,0.0,0.0,0.0,0.0,0.0,0.0,0.0,0.0,0.0,0.0,0.0,0.0,0.0,0.0,0.0,0.0,0.0,0.0,0.0,0.0,0.0,0.0,0.0,0.0,0.0,2.7063,2.7325,2.7325,2.7715,2.8121,0.0,0.0,0.0,0.0,0.0,0.0,0.0,0.0,0.0,3.1925,3.2273,3.2577,3.2926,3.366,3.4032,3.4032,3.4427,3.463,3.463,3.463,3.463,3.463,3.463,3.4258,3.3615,3.278,3.2442,3.2442,0.0,0.0,0.0,0.0,3.2442,3.2442,0.0,0.0,0.0,0.0,0.0,0.0,0.0,0.0,0.0,0.0,0.0,0.0,1.2915,1.2915,1.2915,1.2915,1.3164,1.3514,1.3915,1.485,1.5749,0.0,1.7594,1.8407,1.8966,1.9514,1.9811,1.9811,1.9811,1.9886,2.0037,2.0037,2.0087,2.0238,2.0087,1.9936,1.9811,1.9811,1.9811,1.9824,0.0,0.0,0.0,0.0,0.0,0.0,0.0,0.0,0.0,0.0,0.0,0.0,0.0,0.0,0.0,0.0,0.0,0.0,0.0,0.0,0.0,0.0,0.0,0.0,0.0,0.0,0.0,0.0,0.0,0.0,0.0,0.0,0.0,0.0,0.0,0.0,0.0,2.763,2.8103,2.8103,2.8628,2.9145,0.0,0.0,0.0,0.0,0.0,0.0,3.2046,3.3085,3.3751,3.3954,3.4167,3.4269,3.4269,3.5013,3.5351,3.5385,3.5915,3.6186,3.6186,3.6186,3.6186,3.6186,3.6186,3.6186,3.6073,3.4596,3.3954,3.3954,3.3761,3.3694,3.366,3.348,3.3413,3.3413,0.0,0.0,0.0,0.0,0.0,0.0,0.0,0.0,0.0,0.0,0.0,1.2915,1.2915,1.2915,1.2915,1.2915,1.3883,1.4683,1.5095,1.5584,1.6672,1.8471,1.7294,1.7592,1.9696,1.9773,1.9811,1.9811,1.9811,2.0087,2.0641,2.0641,2.0943,2.1382,2.0893,2.0339,1.9811,1.9811,1.9811,1.9875,2.0484,0.0,0.0,0.0,0.0,0.0,0.0,0.0,0.0,0.0,0.0,0.0,0.0,0.0,0.0,0.0,0.0,0.0,0.0,0.0,0.0,0.0,0.0,0.0,0.0,0.0,0.0,0.0,0.0,0.0,0.0,0.0,0.0,0.0,0.0,0.0,0.0,0.0,0.0,2.8942,2.8976,0.0,0.0,0.0,0.0,3.3074,3.3243,3.3592,3.4313,3.4404,3.4776,3.5464,3.6231,3.6626,3.6626,3.7347,3.7741,3.7741,3.7787,3.7775,3.7775,3.7775,3.7775,3.7775,3.7775,3.7775,3.7674,3.6118,3.5498,3.543,3.4709,3.4449,3.4347,3.366,3.3413,3.3413,0.0,0.0,0.0,0.0,0.0,0.0,0.0,0.0,1.2915,1.2915,1.2915,1.2915,1.2915,1.2915,1.3065,1.3445,1.3739,1.4262,1.5068,1.5634,1.6104,1.6567,1.7454,1.8514,1.9785,2.0175,2.039,2.039,2.0715,2.1005,2.1206,2.1206,2.1306,2.1482,2.1306,2.1105,2.0854,2.0112,1.9811,1.9837,2.0055,2.0156,0.0,0.0,0.0,0.0,0.0,0.0,0.0,0.0,0.0,0.0,0.0,0.0,0.0,0.0,0.0,0.0,0.0,0.0,0.0,0.0,0.0,0.0,0.0,0.0,0.0,0.0,0.0,0.0,0.0,0.0,0.0,0.0,0.0,0.0,0.0,0.0,0.0,3.0422,3.1268,0.0,3.2577,3.3051,3.3535,3.4066,3.5024,3.5701,3.5972,3.6434,3.6806,3.7065,3.7381,3.7516,3.7516,3.8227,3.8599,3.8599,3.9085,3.9322,3.9322,3.9322,3.9322,3.9322,3.9322,3.9322,3.9288,3.8713,3.7922,3.7065,3.6806,3.6705,3.6671,3.6389,3.6299,3.6299,0.0,0.0,0.0,0.0,0.0,0.0,0.0,0.0,1.2915,1.2915,1.2915,1.2915,1.2915,1.2915,1.3125,1.3638,1.3917,1.4427,1.5298,1.6047,1.6493,1.6497,1.8353,1.9482,1.9746,2.0545,2.0968,2.0968,2.1331,2.1683,2.2046,2.2046,2.2232,2.2598,2.2221,2.2046,2.197,2.084,2.0276,2.01,2.01,1.9987,1.9837,0.0,0.0,0.0,0.0,0.0,0.0,0.0,0.0,0.0,0.0,0.0,0.0,0.0,0.0,0.0,0.0,0.0,0.0,0.0,0.0,0.0,0.0,0.0,0.0,0.0,0.0,0.0,0.0,0.0,0.0,0.0,0.0,0.0,0.0,3.0794,3.1674,3.1901,3.3017,3.3863,3.4123,3.481,3.5396,3.5622,3.6581,3.7291,3.7528,3.8002,3.8396,3.8633,3.8633,3.8633,3.8633,3.9119,3.9356,3.9389,3.9876,4.0113,4.0113,4.0113,4.0113,4.0113,4.0113,4.0113,4.0113,4.0113,3.9525,3.8633,3.8362,3.8261,3.8261,3.7978,3.791,3.7853,0.0,0.0,0.0,0.0,0.0,0.0,0.0,1.2915,1.2915,1.2915,1.2915,1.2908,1.292,1.292,1.3096,1.3527,1.4574,1.5426,1.5912,1.697,1.7907,1.8658,1.9952,2.0354,1.9658,2.0884,2.1532,2.1557,2.1583,2.2121,2.3145,2.3145,2.3747,2.4766,2.3647,2.3145,2.3095,2.2046,2.1281,2.0767,2.0742,2.0351,1.9913,0.0,0.0,0.0,0.0,0.0,0.0,0.0,0.0,0.0,0.0,0.0,0.0,0.0,0.0,0.0,0.0,0.0,0.0,0.0,0.0,0.0,0.0,0.0,0.0,0.0,0.0,0.0,0.0,0.0,0.0,0.0,0.0,0.0,3.136,3.1911,3.2655,3.3379,3.4134,3.4878,3.56,3.6411,3.7156,3.7889,3.7956,3.8294,3.9017,3.9039,3.9356,4.0079,4.0113,4.0146,4.0146,4.0146,4.018,4.018,4.018,4.018,4.018,4.018,4.018,4.018,4.018,4.018,4.018,4.0146,4.0146,4.0079,3.9322,3.9039,3.8913,3.8191,3.7908,3.78,0.0,0.0,0.0,0.0,0.0,0.0,0.0,1.2915,1.2915,1.2915,1.2915,1.3077,1.3493,1.3552,1.3885,1.4738,1.55,1.6096,1.6541,1.6709,1.7337,1.8509,1.9424,2.0228,2.0965,2.1695,2.2257,2.2659,2.31,2.3678,2.4324,2.4324,2.4499,2.4791,2.4465,2.4324,2.4299,2.4014,2.3336,2.2383,2.1594,2.0943,2.0478,0.0,0.0,0.0,0.0,0.0,0.0,0.0,0.0,0.0,0.0,0.0,0.0,0.0,0.0,0.0,0.0,0.0,0.0,0.0,0.0,0.0,0.0,0.0,0.0,0.0,0.0,0.0,0.0,0.0,0.0,0.0,3.1682,3.1931,3.2689,3.3886,3.4765,3.4957,3.6152,3.7031,3.7234,3.7956,3.8476,3.8667,3.9186,3.9592,3.9795,3.9795,3.9897,4.0079,4.0608,4.0899,4.0899,4.142,4.169,4.169,4.169,4.169,4.169,4.169,4.169,4.169,4.169,4.169,4.1657,4.1102,4.0899,4.0832,4.01,3.9458,3.8891,3.8692,3.8281,3.7792,0.0,0.0,0.0,0.0,0.0,0.0,0.0,1.2915,1.2992,1.3238,1.3065,1.3138,1.3721,1.3792,1.4077,1.4742,1.5647,1.6197,1.6214,1.6678,1.769,1.9347,2.0044,2.0839,2.1805,2.2623,2.316,2.3487,2.4039,2.4616,2.5143,2.5143,2.5285,2.5485,2.5259,2.5143,2.5118,2.4892,2.4415,2.3747,2.2899,2.1934,2.1018,2.0792,2.0887,2.1113,2.0862,2.1607,2.2694,2.2694,0.0,0.0,0.0,0.0,0.0,0.0,0.0,0.0,0.0,0.0,0.0,0.0,0.0,0.0,0.0,0.0,0.0,0.0,0.0,0.0,0.0,0.0,0.0,0.0,3.2325,3.2779,3.4137,3.4825,3.5528,3.6455,3.764,3.8241,3.7878,3.8844,3.9332,3.8974,3.9969,4.0574,4.0574,4.0844,4.0837,4.0475,4.1249,4.1485,4.113,4.1531,4.1943,4.2286,4.193,4.1943,4.23,4.23,4.23,4.23,4.23,4.23,4.2266,4.1847,4.1459,4.103,0.0,0.0,0.0,0.0,3.8161,3.7764,0.0,0.0,0.0,0.0,0.0,0.0,0.0,1.2915,1.3101,1.3635,1.3226,1.3138,1.3721,1.3862,1.3988,1.4175,1.5566,1.6251,1.5793,1.7079,1.8692,2.058,2.1189,2.1769,2.2383,2.3452,2.4029,2.4079,2.4616,2.5184,2.5703,2.5703,2.5979,2.6491,2.5929,2.5703,2.5661,2.5193,2.4942,2.4842,2.4305,2.3125,2.1633,2.1094,2.1168,2.1523,2.0985,2.1542,2.2581,2.2512,0.0,0.0,0.0,0.0,0.0,0.0,0.0,0.0,0.0,0.0,0.0,0.0,0.0,0.0,0.0,0.0,0.0,0.0,0.0,0.0,0.0,0.0,0.0,0.0,3.3154,3.403,3.5495,3.5124,3.5473,3.752,3.8412,3.8635,3.7999,3.9167,3.9744,3.9188,4.0321,4.1082,4.1161,4.1715,0.0,0.0,0.0,4.1852,4.1271,4.1251,4.1645,4.2402,4.1617,4.1602,4.228,4.228,4.228,4.228,4.228,4.228,4.2246,4.2179,4.1577,4.0606,3.9341,3.8864,3.8781,3.8046,3.7753,3.7649,0.0,0.0,0.0,0.0,0.0,0.0,0.0,1.2915,1.2932,1.3065,1.2968,1.3138,1.3721,1.4225,1.4627,1.4891,1.67,1.7894,1.8055,1.8887,1.9707,2.0417,2.1138,2.1945,2.292,2.3637,2.4205,2.4641,2.5184,2.5753,2.6323,2.6323,2.6399,2.6474,2.6373,2.6323,2.6323,2.6223,2.5879,2.541,2.4867,2.3913,2.2719,2.2182,2.1833,2.1511,2.0924,2.1242,2.1817,2.1319,2.1927,2.2864,2.2864,2.3198,0.0,0.0,0.0,0.0,0.0,0.0,0.0,0.0,0.0,0.0,0.0,0.0,0.0,0.0,0.0,0.0,0.0,0.0,0.0,3.3106,3.3416,3.4218,3.6222,3.5851,3.5788,3.68,3.7589,3.8191,3.8643,3.8911,3.9519,4.066,4.0334,4.0365,4.0998,4.0569,4.0502,4.0982,4.1099,4.1737,4.2919,4.2891,4.2954,4.3116,4.2954,0.0,4.2068,4.2068,4.2068,4.2068,4.2068,4.2068,4.2004,4.1423,4.0336,3.9062,3.8764,3.867,3.8575,3.7785,3.7472,3.7455,0.0,0.0,0.0,0.0,0.0,0.0,0.0,1.2915,1.3005,1.331,1.3101,1.3138,1.3721,1.4341,1.4818,1.5108,1.6844,1.8271,1.9179,1.9254,1.9769,2.0898,2.1286,2.1995,2.307,2.3948,2.4515,2.4816,2.5636,2.6197,2.6499,2.6499,2.6499,2.6499,2.6499,2.6499,2.6499,2.6499,2.6323,2.5979,2.5143,2.4449,2.3822,2.2734,2.2144,2.1848,2.1014,2.1328,2.2052,2.1449,2.2114,2.3143,2.3143,2.3352,2.361,0.0,0.0,0.0,0.0,0.0,0.0,0.0,0.0,0.0,0.0,0.0,0.0,0.0,0.0,2.9842,3.0772,0.0,3.2412,3.3778,3.4,3.4498,3.589,3.5784,3.5968,3.7106,3.7889,3.829,3.824,3.9251,3.9891,3.9891,4.0572,4.0994,4.0931,4.0921,4.0895,4.0863,4.123,4.1643,4.203,4.2028,4.2237,4.263,4.2221,4.1981,4.1981,4.1981,4.1981,4.1981,4.1981,4.1981,4.1949,4.1147,4.0343,3.9615,3.9174,3.8591,3.795,3.7558,3.7387,3.7387,0.0,0.0,0.0,0.0,0.0,0.0,0.0,1.2915,1.3077,1.3564,1.319,1.3089,1.3576,1.4155,1.477,1.5331,1.6775,1.8197,1.9514,1.9151,1.9702,2.1429,2.1507,2.1995,2.307,2.4214,2.4816,2.4816,2.5929,2.6499,2.6499,2.6499,2.6499,2.6499,2.6499,2.6499,2.6499,2.6499,2.6424,2.6248,2.5209,2.4741,2.449,2.301,2.2383,2.2157,2.1206,2.1446,2.2169,2.1691,2.2283,2.3264,2.3373,2.3523,2.361,2.361,2.361,0.0,0.0,0.0,0.0,0.0,0.0,0.0,0.0,2.7829,2.8637,2.8757,2.9824,3.0863,3.1402,3.2227,3.3174,3.4312,3.4607,3.4877,3.5429,3.5519,3.6018,3.7379,3.8019,3.8199,3.7824,3.9417,4.0109,3.9104,4.0672,4.1415,4.0896,4.1386,4.1451,4.0893,4.1526,4.1706,4.1336,4.1179,4.142,4.212,4.1435,4.1384,4.1873,4.1873,4.1873,4.1873,4.1873,4.1873,4.1823,4.0972,4.0649,4.0562,3.9727,3.8733,3.7776,3.7776,3.7776,3.7776,0.0,0.0,0.0,0.0,0.0,0.0,0.0,0.0,1.2908,1.2992,1.2932,1.292,1.2992,1.354,1.4495,1.5961,1.7185,1.8137,1.8784,1.9371,2.0209,2.1457,2.1507,2.1995,2.307,2.4214,2.4816,2.4816,2.5929,2.6499,2.6499,2.6499,2.6499,2.6499,2.6499,2.6499,2.6499,2.6499,2.6197,2.5653,2.5042,2.4515,2.4004,2.3286,2.2719,2.2207,2.1619,2.1189,2.0923,2.0893,2.1355,2.2028,2.2626,2.3165,2.361,2.361,2.361,2.3729,2.4335,2.5393,2.6393,2.6452,2.6973,2.7645,0.0,2.8487,2.8757,2.9368,3.0518,3.1417,3.1495,3.3036,3.4312,3.4474,3.4997,3.54,3.5489,3.5519,3.5764,3.6548,3.6715,3.7204,3.8392,3.8621,3.9224,4.0547,4.0056,4.0008,4.0685,4.0632,4.0902,4.155,4.1504,4.2142,4.3633,4.2841,4.2519,4.2607,4.2501,4.2119,4.1482,4.1482,4.1482,4.1482,4.1482,4.1482,4.1403,4.072,4.0443,4.0364,3.9685,3.9302,3.9182,3.9182,3.9182,3.9182,0.0,0.0,0.0,0.0,0.0,0.0,0.0,0.0,0.0,1.2915,1.2915,1.2915,1.2915,1.402,1.5343,1.6706,1.7881,1.8768,1.9296,1.9631,2.0175,2.0993,2.1331,2.187,2.2633,2.3738,2.4315,2.4315,2.5452,2.5979,2.5979,2.6348,2.6499,2.6499,2.6499,2.6298,2.5979,2.5979,2.5653,2.5093,2.454,2.4205,2.3929,2.3321,2.2784,2.2257,2.2046,2.1845,0.0,2.1367,2.1727,2.2334,2.2615,2.3109,2.361,2.361,2.3868,2.4395,2.5495,2.6183,2.6704,2.7063,2.7692,2.8261,2.8547,2.9175,2.9894,3.0568,3.1435,3.2333,3.3095,3.3949,3.4607,3.5011,3.531,3.5519,3.5519,3.5848,3.6297,3.6956,3.7375,3.7828,3.8442,3.9225,3.9811,4.0013,4.0484,4.0675,4.0532,4.0817,4.1152,4.1529,4.143,4.1768,4.2497,4.2145,4.1923,4.1923,4.1923,4.1749,4.1403,4.1403,4.1403,4.1403,4.1403,4.1403,4.1373,4.1104,4.0965,4.0954,4.0666,4.0546,4.0457,3.969,3.9391,3.9391,0.0,0.0,0.0,0.0,0.0,0.0,0.0,0.0,0.0,0.0,1.2915,1.2915,1.2915,1.4179,1.5365,1.619,1.7467,1.8447,1.8985,1.9336,1.9854,2.0666,2.1055,2.1608,2.2282,2.3236,2.3828,2.4004,2.4933,2.5385,2.5385,2.5829,2.603,2.603,2.603,2.5804,2.5385,2.5385,2.5084,2.454,2.4155,2.3803,2.3461,2.306,2.2558,2.2071,2.2071,2.2114,2.2088,2.1549,2.1979,2.2694,2.2694,2.3227,2.3868,2.3868,2.4616,2.5603,2.6405,2.7003,2.7512,2.7782,2.838,2.8906,2.9086,2.9834,3.0747,3.16,3.2303,3.3125,3.4278,3.4637,3.4937,3.5429,3.5519,3.5519,3.5519,3.6058,3.6716,3.7345,3.7973,3.8452,3.8661,3.9686,4.0156,3.9715,4.0702,4.1157,4.0703,4.1313,4.1673,4.1673,4.1852,4.1923,4.1923,4.1923,4.1923,4.1923,4.1923,4.1923,4.1923,4.1923,4.1923,4.1923,4.1923,4.1923,4.1893,4.1733,4.1673,4.1643,4.1463,4.1403,4.1283,4.0307,3.9948,3.9948,0.0,0.0,0.0,0.0,0.0,0.0,0.0,0.0,0.0,0.0,0.0,0.0,0.0,1.3466,1.3795,1.3629,1.5253,1.6525,1.7038,1.8113,1.9325,2.0639,2.073,2.1206,2.2282,2.2844,2.3396,2.4004,2.454,2.48,2.48,2.4842,2.4867,2.4867,2.4867,2.4842,2.48,2.48,2.4515,2.4029,2.4004,2.3351,2.2357,2.2332,2.1995,2.1532,2.1532,2.1578,2.1549,2.102,2.1658,2.2694,2.2694,2.3579,2.4575,2.4575,2.5974,2.7375,2.6764,2.8021,2.9368,2.8727,2.9056,2.9728,3.0313,3.0462,3.0867,3.2183,3.3006,3.3679,3.4368,3.5011,3.5489,3.5519,3.5519,3.5519,3.5519,3.6058,3.6716,3.7345,3.7973,3.8661,3.9302,3.9427,3.9697,4.0307,4.0415,4.0703,4.1343,4.2021,4.2381,4.2381,4.294,4.323,4.323,4.323,4.323,4.323,4.323,4.323,4.323,4.323,4.323,4.323,4.323,4.323,4.322,4.2601,4.2381,4.2321,4.1643,4.1403,4.1403,4.1343,4.1343,4.1343,0.0,0.0,0.0,0.0,0.0,0.0,0.0,0.0,0.0,0.0,0.0,0.0,0.0,0.0,0.0,0.0,1.5437,1.6439,1.6972,1.8074,1.8917,1.9363,2.0225,2.0867,2.1231,2.1769,2.2146,2.2322,2.3236,2.3672,2.3697,2.4465,2.4816,2.4816,2.4816,2.4591,2.4239,2.3822,2.3346,2.2849,2.2472,2.2096,2.1769,2.1769,2.1432,2.0968,0.0,2.0977,2.0974,2.0795,2.1298,2.2028,2.2028,2.323,2.4874,2.6183,2.6764,2.7183,2.8291,2.877,2.9009,2.9219,2.9728,3.0253,3.0462,3.1196,3.2063,3.2976,3.3709,3.4368,3.504,3.534,3.5519,3.5519,3.5519,3.5519,3.5519,3.6417,3.7165,3.7375,3.8374,3.9152,3.9391,3.9391,3.966,4.0337,4.0816,4.1343,4.2021,4.2641,4.3,4.3,4.319,4.329,4.329,4.329,4.329,4.329,4.329,4.329,4.329,4.329,4.329,4.329,4.329,4.329,4.326,4.307,4.3,4.2951,4.2741,4.2651,4.2651,4.2651,4.2651,4.2532,0.0,0.0,0.0,0.0,0.0,0.0,0.0,0.0,0.0,0.0,0.0,0.0,0.0,0.0,0.0,0.0,0.0,1.5562,1.6304,1.7453,1.8167,1.829,1.9371,2.0091,2.0302,2.0634,2.1031,2.1507,2.2182,2.2533,2.2533,2.3286,2.3612,2.3612,2.3612,2.3427,2.3075,2.2684,2.2332,2.1981,2.1633,2.1382,2.1206,2.1206,2.0867,0.0,2.039,2.039,2.039,2.039,2.1136,2.2072,2.207,2.3724,2.5944,2.7225,2.7782,2.8171,2.9009,2.9445,2.9671,2.9877,3.0402,3.0867,3.0867,3.1704,3.2691,3.3365,3.4039,3.4697,3.537,3.5519,3.5519,3.5519,3.5519,3.5519,3.5519,3.6596,3.7387,3.7387,3.8584,3.9391,3.9391,3.9601,4.0038,4.0696,4.1373,4.2032,4.269,4.31,4.329,4.329,4.329,4.329,4.329,4.329,4.329,4.329,4.329,4.329,4.329,4.329,4.329,4.329,4.329,4.329,4.329,4.329,4.329,4.329,4.329,4.329,4.329,4.329,4.329,4.317,0.0,0.0,0.0,0.0,0.0,0.0,0.0,0.0,0.0,0.0,0.0,0.0,0.0,0.0,0.0,0.0,0.0,0.0,1.5073,1.6273,1.7131,1.7583,1.8273,1.8925,1.9531,1.9555,2.0142,2.1351,2.1443,2.1457,2.1457,2.1482,2.1507,2.1507,2.1507,2.1507,2.1507,2.1482,2.1457,2.1457,2.1432,2.1105,2.0641,2.0641,2.0314,1.9811,1.9811,1.9811,1.9811,1.9811,2.1076,2.2729,2.2828,2.5003,2.7555,2.7615,2.8949,3.0163,2.8996,3.0029,3.1301,3.0687,3.1046,3.1511,3.1511,3.2049,3.2721,3.3365,3.4069,3.4757,3.537,3.5519,3.5519,3.5519,3.5519,3.5519,3.5519,3.6596,3.7387,3.7387,3.8584,3.9391,3.9391,4.0038,4.0696,4.1343,4.2021,4.2661,4.326,4.329,4.329,4.329,4.329,4.329,4.329,4.329,4.329,4.329,4.329,4.329,4.329,4.329,4.329,4.329,4.329,4.329,4.329,4.329,4.329,4.329,4.329,4.329,4.329,4.329,4.329,4.329,0.0,0.0,0.0,0.0,0.0,0.0,0.0,0.0,0.0,0.0,0.0,0.0,0.0,0.0,0.0,0.0,0.0,0.0,1.4334,1.5507,1.6607,1.7569,1.7784,1.822,1.8915,1.8942,1.9094,1.9403,2.0397,2.0893,2.0918,2.1306,2.1507,2.1507,2.1507,2.1507,2.1482,2.1055,2.0893,2.0867,2.0427,2.0137,2.0025,2.0025,1.9936,1.9811,1.9811,1.9811,1.9811,1.9811,2.1097,2.2965,2.4415,2.5764,2.7063,2.8051,2.8697,2.9235,2.9864,3.0372,3.0837,3.1152,3.1361,3.1511,3.1511,3.2392,3.3275,3.3455,3.4412,3.531,3.5459,3.5519,3.5519,3.5519,3.5519,3.5519,3.5519,3.6596,3.7387,3.7387,3.8584,3.9391,3.9391,4.0457,4.1224,4.1403,4.2021,4.2661,4.326,4.329,4.329,4.329,4.329,4.329,4.329,4.329,4.329,4.329,4.329,4.329,4.329,4.329,4.329,4.329,4.329,4.329,4.329,4.329,4.329,4.329,4.329,4.329,4.329,4.329,4.329,4.329,0.0,0.0,0.0,0.0,0.0,0.0,0.0,0.0,0.0,0.0,0.0,0.0,0.0,0.0,0.0,0.0,0.0,0.0,0.0,1.5542,1.655,1.7569,1.792,1.8124,1.8219,1.8219,1.838,1.8701,1.944,1.9985,2.0301,2.0614,2.074,2.074,2.074,2.074,2.074,2.0427,2.0314,0.0,0.0,1.9811,1.9811,1.9811,1.9811,1.9811,1.9811,1.9978,2.0283,2.0546,2.1935,2.3814,2.5171,2.6452,2.7632,2.8368,2.8996,2.9594,3.0313,3.0717,3.1046,3.1421,3.1511,3.1511,3.1511,3.2303,3.3066,3.3066,3.3903,3.4711,3.5027,3.507,3.516,3.5459,3.5519,3.5519,3.5519,3.6596,3.7387,3.7387,3.8584,3.9391,3.9391,4.0606,4.1403,4.1403,4.2271,4.294,4.326,4.329,4.329,4.329,4.329,4.329,4.329,4.329,4.329,4.329,4.329,4.329,4.329,4.329,4.329,4.329,4.329,4.329,4.329,4.329,4.329,4.329,4.329,4.329,4.329,4.329,4.329,4.329,0.0,0.0,0.0,0.0,0.0,0.0,0.0,0.0,0.0,0.0,0.0,0.0,0.0,0.0,0.0,0.0,0.0,0.0,0.0,0.0,1.6667,1.7607,1.8226,1.83,1.7756,1.7756,1.807,1.8701,1.8794,1.9175,1.9811,1.9811,1.9811,1.9811,1.9811,1.9811,1.9811,1.9811,1.9811,1.9811,1.9811,1.9811,1.9811,0.0,1.9811,1.9811,1.9811,2.0283,2.1017,2.152,2.3049,2.4815,2.5408,2.6931,2.8457,2.8457,2.9385,3.0372,3.0372,3.0927,3.1511,3.1511,3.1511,3.1511,3.1511,3.2033,3.2512,3.2512,3.3036,3.3679,3.4248,3.4444,3.4697,3.528,3.5459,3.5519,3.5519,3.6537,3.7315,3.7404,3.8494,3.9302,3.9391,4.0606,4.1403,4.1403,4.2562,4.329,4.329,4.329,4.329,4.329,4.329,4.329,4.329,4.329,4.329,4.329,4.329,4.329,4.329,4.329,4.329,4.329,4.329,4.329,4.329,4.329,4.329,4.329,4.329,4.329,4.329,4.329,4.329,4.329,0.0,0.0,0.0,0.0,0.0,0.0,0.0,0.0,0.0,0.0,1.2915,0.0,0.0,0.0,0.0,0.0,0.0,0.0,0.0,0.0,0.0,1.7791,1.7813,1.8029,1.8501,1.8514,1.8581,1.8701,1.9319,1.9657,1.9811,1.9811,1.9811,1.9811,1.9811,1.9811,1.9811,1.9811,1.9811,1.9811,1.9811,1.9811,1.9811,1.9811,0.0,0.0,1.9811,2.0558,2.1556,2.1675,2.3049,2.4815,2.5408,2.6602,2.7764,2.7764,2.871,2.9758,2.9758,3.0598,3.1511,3.1511,3.1511,3.1511,3.1511,3.2033,3.2512,3.2512,3.3036,3.3544,3.3649,3.4128,3.4533,3.4637,3.513,3.5519,3.5519,3.6178,3.6836,3.7327,3.8093,3.8781,3.9361,4.0606,4.1403,4.1403,4.2562,4.329,4.329,4.329,4.329,4.329,4.329,4.329,4.329,4.329,4.329,4.329,4.329,4.329,4.329,4.329,4.329,4.329,4.329,4.329,4.329,4.329,4.329,4.329,4.329,4.329,4.329,4.329,4.329,4.329,0.0,0.0,0.0,0.0,0.0,0.0,0.0,0.0,0.0,0.0,1.2915,1.3017,0.0,0.0,0.0,0.0,0.0,0.0,0.0,0.0,0.0,0.0,0.0,0.0,1.8701,1.8701,1.8701,1.8701,0.0,1.9423,1.9811,1.9811,1.9811,1.9811,1.9811,1.9811,1.9811,1.9811,1.9811,1.9811,1.9811,1.9811,1.9811,0.0,0.0,0.0,0.0,2.0434,2.1234,2.1234,2.2783,2.4815,2.5408,2.6524,2.7675,2.8021,2.883,2.9668,2.9997,3.0777,3.1511,3.1511,3.1511,3.1511,3.1511,3.175,3.1959,3.1959,3.2243,3.2572,3.2916,3.3245,3.3709,3.4368,3.4757,3.51,3.5459,3.6058,3.6716,3.7345,3.7973,3.8661,3.9331,4.0606,4.1403,4.1403,4.2562,4.329,4.329,4.329,4.329,4.329,4.329,4.329,4.329,4.329,4.329,4.329,4.329,4.329,4.329,4.329,4.329,4.329,4.329,4.329,4.329,4.329,4.329,4.329,4.329,4.329,4.329,4.329,4.329,4.329,0.0,0.0,0.0,0.0,0.0,0.0,0.0,1.2915,1.2915,1.2915,1.2915,1.3186,1.3909,1.3445,1.3286,0.0,0.0,0.0,0.0,0.0,0.0,0.0,0.0,0.0,1.894,0.0,0.0,1.8927,1.8927,0.0,0.0,0.0,0.0,0.0,1.9811,1.9811,1.9811,1.9811,1.9811,0.0,0.0,1.9811,1.9811,0.0,0.0,0.0,0.0,2.022,2.082,2.0956,2.2637,2.4815,2.5408,2.6524,2.7705,2.8231,2.8859,2.9518,3.0133,3.0777,3.1331,3.1481,3.1511,3.1511,3.1511,3.1511,3.1511,3.1511,3.1511,3.166,3.2183,3.2392,3.2886,3.4099,3.4398,3.4727,3.54,3.5938,3.6567,3.7315,3.7853,3.8512,3.9331,4.0606,4.1403,4.1403,4.2562,4.329,4.329,4.329,4.329,4.329,4.329,4.329,4.329,4.329,4.329,4.329,4.329,4.329,4.329,4.329,4.329,4.329,4.329,4.3379,4.3499,4.3499,4.3609,4.3708,4.3417,4.3316,4.3295,4.3001,4.2919,4.2919,0.0,0.0,0.0,0.0,0.0,0.0,0.0,1.2915,1.2915,1.2915,1.2915,1.3334,1.448,1.4073,1.3733,0.0,0.0,0.0,0.0,0.0,0.0,0.0,0.0,0.0,0.0,0.0,0.0,1.9696,1.9696,0.0,0.0,0.0,0.0,0.0,0.0,1.9811,1.9811,1.9811,0.0,0.0,0.0,0.0,0.0,0.0,0.0,0.0,0.0,2.022,2.0882,2.1424,2.3001,2.4815,2.5408,2.6524,2.7615,2.7675,2.8171,2.8846,2.9488,3.0133,3.0747,3.1361,3.1511,3.1511,3.1511,3.1511,3.1511,3.1511,3.1511,3.154,3.157,3.2093,3.2721,3.3455,3.4099,3.4727,3.54,3.5549,3.6058,3.7255,3.7464,3.7985,3.9272,4.0606,4.1403,4.1403,4.2562,4.329,4.329,4.329,4.329,4.329,4.329,4.329,4.329,4.329,4.329,4.329,4.329,4.329,4.329,4.329,4.329,4.329,4.329,4.3668,4.4207,4.4207,4.4586,4.4991,4.3831,4.3401,4.3243,4.2094,4.1668,4.1668,0.0,0.0,0.0,0.0,0.0,0.0,0.0,1.2915,1.2915,1.2915,1.2915,1.3214,1.4062,1.4271,1.4341,0.0,0.0,0.0,0.0,0.0,0.0,0.0,0.0,0.0,0.0,0.0,1.9811,1.9811,1.9811,0.0,0.0,0.0,0.0,0.0,0.0,1.9811,1.9811,1.9811,0.0,0.0,0.0,0.0,0.0,0.0,0.0,0.0,0.0,0.0,2.0295,2.0942,2.2465,2.4145,2.4381,2.59,2.7585,2.7585,2.8081,2.8667,2.8949,2.9488,3.0117,3.0747,3.0897,3.1017,3.1421,3.1511,3.1511,3.1511,3.1511,3.1511,3.1511,3.172,3.2243,3.3335,3.3724,3.4278,3.534,3.5519,3.5952,3.7255,3.7387,3.7926,3.9272,4.0606,4.1733,4.2491,4.301,4.329,4.329,4.329,4.329,4.329,4.329,4.329,4.329,4.329,4.329,4.329,4.329,4.329,4.329,4.329,4.329,4.3319,4.3728,4.4057,4.4286,4.391,4.3929,4.4027,4.2729,4.2262,4.2195,4.1698,4.1494,4.1494,0.0,0.0,0.0,0.0,0.0,0.0,1.2915,1.2915,1.2915,1.2915,1.2915,1.321,1.3968,1.4283,1.4583,1.4937,0.0,0.0,0.0,0.0,0.0,0.0,0.0,0.0,0.0,0.0,1.9811,1.9811,1.9811,1.9811,0.0,0.0,1.9811,1.9811,0.0,0.0,0.0,0.0,0.0,0.0,0.0,0.0,0.0,0.0,0.0,0.0,0.0,0.0,0.0,0.0,0.0,2.4032,2.4207,2.58,2.7585,2.7585,2.7931,2.8351,2.8547,2.8936,2.9458,3.0073,3.0372,3.0628,3.1092,3.1361,3.1511,3.1511,3.1511,3.1511,3.1511,3.1511,3.1929,3.3275,3.3484,3.3963,3.531,3.5519,3.5952,3.7255,3.7387,3.7926,3.9272,4.0606,4.1833,4.2951,4.322,4.329,4.329,4.329,4.329,4.329,4.329,4.329,4.329,4.329,4.329,4.329,4.329,4.329,4.329,4.329,4.3409,4.3618,4.3692,4.3962,4.4263,4.3465,4.3237,4.3296,4.2044,4.1533,4.1486,4.111,4.0968,4.0968,0.0,0.0,0.0,0.0,0.0,0.0,0.0,1.2915,1.2915,1.2915,1.2915,1.3358,1.4549,1.4155,1.4295,1.5487,0.0,0.0,0.0,0.0,0.0,0.0,0.0,0.0,0.0,0.0,1.9811,1.9811,1.9811,1.9811,1.9811,1.9811,1.9811,1.9811,0.0,0.0,0.0,0.0,0.0,0.0,0.0,0.0,0.0,0.0,0.0,0.0,0.0,0.0,0.0,0.0,0.0,0.0,0.0,2.6512,2.7585,2.7585,2.7585,2.7764,2.8427,2.8607,2.8757,2.9428,3.0043,3.0492,3.0522,3.1017,3.1511,3.1511,3.1511,3.1511,3.1511,3.1511,3.1929,3.3275,3.3484,3.3963,3.531,3.5519,3.5952,3.7255,3.7387,3.7926,3.9272,4.0606,4.1673,4.2351,4.297,4.329,4.329,4.329,4.329,4.329,4.329,4.329,4.329,4.329,4.329,4.329,4.329,4.329,4.329,4.329,4.3668,4.4206,4.296,4.3171,4.4305,4.3031,4.2904,4.3357,4.2106,4.1616,4.1442,4.0185,3.9724,3.9724,0.0,0.0,0.0,0.0,0.0,0.0,0.0,1.2915,1.2915,1.2915,1.3262,1.3493,1.3478,1.441,1.5165,1.5497,0.0,0.0,0.0,0.0,0.0,0.0,0.0,0.0,0.0,0.0,0.0,1.9811,1.9811,1.9811,1.9811,1.9811,1.9811,1.9811,1.9811,1.9811,0.0,0.0,0.0,0.0,0.0,0.0,1.9837,0.0,0.0,0.0,0.0,0.0,0.0,0.0,0.0,0.0,0.0,0.0,0.0,2.7585,2.7585,2.7645,2.7854,2.7914,2.8094,2.877,2.9385,2.9997,3.0402,3.1017,3.1511,3.1511,3.1511,3.1511,3.1511,3.1511,3.1929,3.3275,3.3484,3.3963,3.531,3.5519,3.5952,3.7255,3.8195,3.9122,4.0008,4.0876,4.1673,4.2351,4.297,4.329,4.329,4.329,4.329,4.329,4.329,4.329,4.329,4.329,4.329,4.329,4.329,4.29,4.2132,4.2132,4.2016,4.1851,4.1902,4.2368,4.3041,4.2232,4.1994,4.2084,4.0794,4.0287,4.0236,3.9852,3.9697,3.9697,0.0,0.0,0.0,0.0,0.0,0.0,0.0,1.2915,1.2915,1.2915,1.3226,1.3386,1.3262,1.4456,1.5405,1.5821,0.0,0.0,0.0,0.0,0.0,0.0,0.0,0.0,0.0,0.0,1.9811,1.9811,1.9811,1.9811,1.9811,1.9811,1.9811,1.9811,1.9811,1.9811,0.0,0.0,0.0,0.0,0.0,0.0,2.0546,0.0,0.0,0.0,0.0,0.0,0.0,0.0,0.0,0.0,0.0,0.0,0.0,0.0,2.7585,2.7585,2.7585,2.7585,2.7705,2.8111,2.8919,2.9698,3.0073,3.0867,3.1511,3.1511,3.1511,3.1511,3.1511,3.1511,3.1929,3.3275,3.3484,3.3963,3.531,3.5519,3.5952,3.7255,3.8584,3.9571,3.996,4.0846,4.1583,4.1991,4.2821,4.329,4.329,4.329,4.329,4.329,4.329,4.329,4.329,4.329,4.329,4.329,4.286,4.2275,4.1587,4.1148,4.0863,4.0752,4.0909,4.13,0.0,4.1158,4.0895,4.0794,4.0006,3.9697,3.9697,3.9697,3.9697,3.9697,0.0,0.0,0.0,0.0,0.0,0.0,0.0,0.0,0.0,0.0,1.2932,1.3178,1.3733,1.4409,1.5257,0.0,0.0,0.0,0.0,0.0,0.0,0.0,0.0,0.0,0.0,1.9811,1.9811,1.9811,1.9811,1.9811,1.9811,1.9811,1.9811,1.9811,1.9811,1.9811,0.0,0.0,0.0,0.0,0.0,0.0,0.0,0.0,0.0,0.0,0.0,0.0,0.0,0.0,0.0,0.0,0.0,0.0,0.0,0.0,0.0,0.0,0.0,2.7585,2.7615,2.7645,2.8633,2.9608,2.9638,3.0628,0.0,3.1511,3.1511,3.1511,3.1511,3.1511,3.1929,3.3275,3.3484,3.3963,3.531,3.5579,3.6088,3.7255,3.8584,3.9391,3.9391,4.0606,4.1403,4.1403,4.2562,4.329,4.329,4.329,4.329,4.329,4.329,4.329,4.329,4.329,4.327,4.317,4.2111,4.1504,4.1316,4.0253,4.0063,4.0529,3.9941,4.0051,4.0629,3.9982,3.9697,3.9697,3.9697,3.9697,3.9697,3.9697,3.9697,3.9697,0.0,0.0,0.0,0.0,0.0,0.0,0.0,0.0,0.0,0.0,1.3298,1.3647,1.378,1.5117,1.6291,0.0,0.0,0.0,0.0,0.0,0.0,0.0,0.0,0.0,0.0,1.9811,1.9811,1.9811,1.9811,1.9811,1.9811,1.9811,1.9811,1.9811,1.9811,0.0,0.0,0.0,0.0,0.0,0.0,0.0,0.0,0.0,0.0,0.0,2.3165,2.3729,0.0,0.0,0.0,0.0,0.0,0.0,0.0,0.0,2.7585,2.7585,2.7585,0.0,2.7735,2.8231,2.8979,2.9728,0.0,0.0,0.0,0.0,0.0,3.1511,3.1511,3.1511,3.1929,3.3275,3.3484,3.3963,3.531,3.634,3.7058,3.7357,3.8584,3.9391,3.9391,4.0606,4.1403,4.1403,4.2562,4.329,4.329,4.329,4.329,4.329,4.329,4.329,4.329,4.329,4.286,4.2009,4.1711,4.0654,3.8912,3.8649,3.8333,3.8071,3.8324,3.8787,3.9346,3.96,3.9697,3.9697,3.9697,3.9697,3.9697,3.9697,3.9697,3.9697,0.0,0.0,0.0,0.0,0.0,0.0,0.0,0.0,0.0,0.0,0.0,0.0,0.0,0.0,0.0,0.0,0.0,0.0,0.0,0.0,0.0,0.0,0.0,0.0,0.0,1.9811,1.9811,1.9811,1.9811,1.9811,1.9824,2.0105,2.008,1.9824,2.0118,0.0,0.0,0.0,0.0,0.0,2.1343,0.0,0.0,0.0,0.0,0.0,2.3471,2.4018,0.0,2.5364,2.6063,2.6704,0.0,0.0,0.0,0.0,2.7585,2.7585,2.7585,2.7585,2.7764,2.8427,2.9099,2.9758,3.0372,0.0,0.0,0.0,0.0,3.1511,3.1511,3.175,3.2303,3.3335,3.3769,3.4338,3.534,3.6596,3.7387,3.7387,3.8584,3.9391,3.9391,4.0606,4.1403,4.1403,4.2562,4.329,4.329,4.329,4.329,4.329,4.329,4.329,4.329,4.28,4.2193,4.1587,4.0504,3.9332,3.8085,3.7563,3.7143,3.6859,3.7387,3.7939,3.8542,3.9095,3.9497,3.9697,3.9697,3.9697,3.9697,3.9697,3.9697,3.9697,0.0,0.0,0.0,0.0,0.0,0.0,0.0,0.0,0.0,0.0,0.0,0.0,0.0,0.0,0.0,0.0,0.0,0.0,0.0,0.0,0.0,0.0,0.0,0.0,1.9811,1.9811,1.9811,1.9811,1.9811,1.9811,1.9824,2.0371,2.0396,1.9978,2.0758,0.0,0.0,0.0,0.0,0.0,2.2063,0.0,0.0,0.0,0.0,0.0,0.0,0.0,0.0,2.5513,2.6183,2.6854,2.7435,0.0,0.0,0.0,0.0,0.0,2.7585,2.7675,2.7914,2.859,2.9189,2.9788,3.0492,0.0,0.0,0.0,0.0,3.154,3.163,3.2123,3.2751,3.3514,3.4218,3.4847,3.5429,3.6596,3.7387,3.7387,3.8584,3.9391,3.9391,4.0606,4.1403,4.1403,4.2562,4.329,4.329,4.315,4.3021,4.3021,4.286,4.278,4.278,4.2009,4.142,4.1035,3.9045,3.7994,3.7815,3.6849,3.6405,3.643,3.6959,3.7437,3.7939,3.8617,3.917,3.9572,3.9672,3.9697,3.9697,3.9697,3.9697,3.9697,0.0,0.0,0.0,0.0,0.0,0.0,0.0,0.0,0.0,0.0,0.0,0.0,0.0,0.0,0.0,0.0,0.0,0.0,0.0,0.0,0.0,0.0,0.0,1.9811,1.9811,1.9811,1.9811,1.9811,1.9811,1.9811,1.9811,1.9914,2.0194,2.0696,2.1868,2.2149,0.0,0.0,0.0,0.0,2.2592,0.0,0.0,0.0,0.0,0.0,0.0,0.0,0.0,2.6213,2.6884,2.7465,2.7555,0.0,0.0,0.0,0.0,0.0,2.7585,2.8021,2.862,2.9279,2.9518,2.9907,3.1076,0.0,0.0,0.0,0.0,3.166,3.2243,3.2422,3.2916,3.4158,3.4907,3.537,3.5489,3.6596,3.7387,3.7387,3.8584,3.9391,3.9391,4.0606,4.1403,4.1403,4.2562,4.329,4.329,4.2406,4.1864,4.1864,4.0916,4.0404,4.0404,4.1211,4.0611,3.8622,3.8266,3.7586,3.6662,3.6476,3.6405,3.643,3.6959,3.7261,3.7387,3.8467,3.8944,3.907,3.9521,3.9697,3.9697,3.9697,3.9697,3.9697,0.0,0.0,0.0,0.0,0.0,0.0,0.0,0.0,0.0,0.0,0.0,0.0,0.0,0.0,0.0,0.0,0.0,0.0,0.0,0.0,0.0,0.0,1.9811,1.9811,1.9811,1.9811,1.9811,1.9811,1.9811,1.9811,1.9811,1.9811,2.0707,2.2311,2.2219,2.238,2.2778,2.3352,0.0,0.0,0.0,0.0,0.0,0.0,0.0,0.0,0.0,0.0,0.0,0.0,2.7033,2.7585,2.7585,0.0,0.0,0.0,0.0,0.0,2.7585,2.8081,2.8757,2.9428,2.9847,3.0342,3.1271,0.0,0.0,0.0,3.178,3.2138,3.2452,3.3095,3.3903,3.4877,3.531,3.5639,3.5998,3.6836,3.7507,3.7913,3.8793,3.9391,3.9391,4.0277,4.1014,4.1373,4.1676,4.2005,4.2356,4.1295,4.0682,4.0682,4.0167,3.9579,3.8939,3.9442,3.9178,3.8085,3.7471,3.6919,3.6405,3.6405,3.6405,3.6406,3.6658,3.6934,3.7261,3.7763,3.8341,3.8919,3.917,3.9421,3.9697,3.9697,3.9697,3.9697,0.0,0.0,0.0,0.0,0.0,0.0,0.0,0.0,0.0,0.0,0.0,0.0,0.0,0.0,0.0,0.0,0.0,0.0,0.0,0.0,1.9811,1.9811,1.9811,1.9811,1.9811,1.9811,1.9811,1.9811,1.9811,1.9811,1.9824,2.0118,2.1292,2.3124,2.2443,2.2682,2.361,2.361,2.361,0.0,0.0,0.0,0.0,0.0,0.0,0.0,0.0,0.0,0.0,0.0,0.0,0.0,0.0,0.0,0.0,2.7585,2.7585,2.7615,2.7794,2.8321,2.8996,2.9638,3.0163,3.0687,3.1361,3.1511,3.1526,3.169,3.2153,3.2602,3.2916,3.3949,3.4907,3.5429,3.5519,3.5729,3.6404,3.7015,3.7644,3.8302,3.899,3.9391,3.9391,4.0008,4.0666,4.1343,4.0899,4.0904,4.1558,4.0253,3.947,3.947,3.9205,3.8653,3.7723,3.7701,3.7701,3.7701,3.6826,3.6405,3.6405,3.6405,3.6405,3.6405,3.6405,3.6632,3.7034,3.716,3.7713,3.8517,3.8793,3.9245,3.9697,3.9697,3.9697,3.9697,0.0,0.0,0.0,0.0,0.0,0.0,0.0,0.0,0.0,0.0,0.0,0.0,0.0,0.0,0.0,0.0,0.0,0.0,0.0,0.0,1.9811,1.9811,1.9811,1.9811,1.9811,1.9811,1.9811,1.9811,1.9811,1.9811,1.9837,2.1013,2.1675,2.1887,2.298,2.3504,2.361,2.361,2.361,2.361,0.0,0.0,0.0,0.0,0.0,0.0,0.0,0.0,0.0,0.0,0.0,0.0,0.0,0.0,2.7585,2.7585,2.7585,2.7735,2.8351,2.9009,2.9668,3.0283,3.0462,3.0687,3.1361,3.1511,3.169,3.2303,3.2452,3.2886,3.4128,3.4951,3.5459,3.5489,3.5519,3.5729,3.6404,3.7015,3.7644,3.8302,3.899,3.9391,3.9391,4.0008,4.0666,4.1343,4.0899,4.0904,4.1558,3.9464,3.8221,3.8221,3.7196,3.6592,3.6523,3.6523,3.6523,3.6523,3.6428,3.6405,3.6405,3.6405,3.6405,3.6405,3.6405,3.643,3.6505,3.6984,3.7261,3.7436,3.8492,3.9245,3.9697,3.9697,3.9697,3.9697,0.0,0.0,0.0,0.0,0.0,0.0,0.0,0.0,0.0,0.0,0.0,0.0,0.0,0.0,0.0,0.0,0.0,0.0,0.0,0.0,1.9811,1.9811,1.9811,1.9811,1.9811,1.9811,1.9811,1.9811,1.9811,2.0004,2.0421,2.0483,2.0939,2.1734,2.2202,2.2654,2.3065,2.3428,2.3838,2.4216,2.4216,0.0,0.0,0.0,0.0,0.0,0.0,0.0,0.0,0.0,2.7585,2.7585,2.7585,2.7585,2.7585,2.7585,2.7585,2.7735,2.8427,2.9099,2.9728,3.0342,3.0807,3.1182,3.1451,3.1809,3.2198,3.2452,3.3155,3.4039,3.4951,3.534,3.5519,3.5519,3.5848,3.6327,3.6956,3.7614,3.8272,3.896,3.9242,3.9391,3.9391,3.9631,3.978,3.9768,3.9247,3.8915,3.8927,3.7742,3.7034,3.7034,3.6615,3.6405,3.6405,3.6405,3.6405,3.6405,3.6405,3.6405,3.6405,3.6405,3.6405,3.6405,3.6405,3.6405,3.643,3.6607,3.6909,3.7311,3.8441,3.9019,3.9245,3.9572,3.9697,3.9697,0.0,0.0,0.0,0.0,0.0,0.0,0.0,0.0,0.0,0.0,0.0,0.0,0.0,0.0,0.0,0.0,0.0,0.0,0.0,0.0,1.9811,1.9811,1.9811,1.9811,1.9811,1.9811,1.9811,1.9811,1.9811,2.0016,2.0472,2.022,2.0682,2.171,2.171,2.2167,2.3027,2.3456,2.4,2.4634,2.4844,2.5334,0.0,0.0,0.0,0.0,0.0,0.0,0.0,0.0,2.7585,2.7585,2.7585,2.7585,2.7585,2.7585,2.7735,2.8051,2.874,2.9398,3.0013,3.0672,3.1152,3.157,3.178,3.2168,3.2632,3.302,3.4023,3.4967,3.5429,3.5519,3.5519,3.5519,3.6058,3.6716,3.7315,3.7973,3.8631,3.9331,3.909,3.9017,3.9355,3.8786,3.85,3.8794,3.7782,3.7111,3.7056,3.6447,3.613,3.613,3.6306,3.6405,3.6405,3.6405,3.6405,3.6405,3.6405,3.6405,3.6405,3.6405,3.6405,3.6405,3.6405,3.6405,3.6405,3.6405,3.6708,3.7286,3.8065,3.8592,3.8944,3.9321,3.9546,3.9697,0.0,0.0,0.0,0.0,0.0,0.0,0.0,0.0,0.0,0.0,0.0,0.0,0.0,0.0,0.0,0.0,0.0,0.0,0.0,1.9811,1.9811,1.9811,1.9811,1.9811,1.9811,1.9811,1.9811,1.9811,1.9811,1.9811,1.9824,2.0472,0.0,0.0,2.171,2.2398,2.3585,2.3687,2.406,2.4683,2.5322,2.6004,2.6614,0.0,0.0,0.0,0.0,0.0,0.0,0.0,2.7585,2.7585,2.7585,2.7585,2.7585,2.7615,2.8081,2.8757,2.9428,3.0043,3.0672,3.1331,3.1511,3.169,3.2362,3.2512,3.2886,3.4218,3.5056,3.5519,3.5519,3.5519,3.5519,3.5519,3.6058,3.6733,3.7315,3.7973,3.8661,3.9313,3.8472,3.8219,3.9283,3.7463,3.6915,3.8649,3.6743,3.5785,3.6426,3.5862,3.5483,3.5508,3.6081,3.6405,3.6405,3.6405,3.6405,3.6405,3.6405,3.6405,3.6405,3.6405,3.6405,3.6405,3.6405,3.6405,3.6405,3.6405,3.6708,3.721,3.721,3.7889,3.8894,3.8894,3.9245,3.9697,0.0,0.0,0.0,0.0,0.0,0.0,0.0,0.0,0.0,0.0,0.0,0.0,0.0,0.0,0.0,0.0,0.0,0.0,0.0,1.9811,1.9811,1.9811,1.9811,1.9811,1.9811,1.9811,1.9811,1.9811,1.9811,1.9811,1.9811,1.9991,0.0,2.0421,0.0,0.0,2.2315,2.4239,2.5117,2.5296,2.602,2.6704,2.7315,0.0,0.0,0.0,0.0,0.0,0.0,0.0,0.0,0.0,2.7585,2.7585,2.7675,2.8171,2.8427,2.8846,2.9924,3.0372,3.0672,3.1331,3.1839,3.2392,3.3066,3.3215,3.3574,3.4921,3.537,3.5519,3.5519,3.5519,3.5639,3.6118,3.6716,3.7375,3.8003,3.8691,3.89,3.835,3.8657,3.876,3.8341,3.7701,3.7241,3.6973,3.6047,3.5265,3.4714,3.483,3.513,3.5483,3.5682,3.5981,3.6405,3.6405,3.6405,3.6405,3.6405,3.6405,3.6405,3.6405,3.6405,3.6405,3.6405,3.6405,3.6405,3.6405,3.6482,3.6658,3.706,3.7663,3.8316,3.8743,3.9245,3.9697,0.0,0.0,0.0,0.0,0.0,0.0,0.0,0.0,0.0,0.0,0.0,0.0,0.0,0.0,0.0,0.0,0.0,0.0,0.0,0.0,1.9811,1.9811,1.9811,1.9811,1.9811,1.9811,1.9811,1.9811,1.9811,1.9811,1.9811,0.0,2.0053,2.0579,0.0,2.25,2.2887,2.4821,2.5734,2.6004,2.6723,2.7255,2.7585,0.0,0.0,0.0,0.0,0.0,0.0,0.0,0.0,0.0,2.7585,2.7794,2.8081,2.8487,2.8966,2.9535,3.0283,3.0687,3.0987,3.1391,3.1989,3.2751,3.3664,3.4083,3.4532,3.534,3.5519,3.5519,3.5519,3.5166,3.5257,3.6307,3.6696,3.7215,3.8267,3.862,3.8527,3.7881,3.7625,3.7434,3.7195,3.6417,3.5842,3.5614,3.4946,3.4255,3.3614,3.4098,3.4527,3.4853,3.5079,3.5456,3.6031,3.6031,3.6155,3.6405,3.6405,3.6405,3.6405,3.6405,3.6405,3.6405,3.6405,3.6405,3.6405,3.6405,3.6405,3.643,3.6758,3.721,3.7739,3.8316,3.8919,3.9421,0.0,0.0,0.0,0.0,0.0,0.0,0.0,0.0,0.0,0.0,1.9811,0.0,0.0,0.0,0.0,0.0,0.0,0.0,0.0,0.0,1.9811,1.9811,1.9811,1.9811,1.9811,1.9811,1.9811,1.9811,1.9811,1.9811,0.0,0.0,2.0463,2.1524,0.0,2.2827,2.4346,2.5347,2.6017,2.6476,2.727,2.7547,2.7496,2.756,0.0,0.0,0.0,0.0,0.0,0.0,0.0,0.0,2.7675,2.8111,2.8637,2.8757,2.9594,3.0522,3.0568,3.1046,3.1511,3.1511,3.2049,3.2931,3.4278,3.507,3.5519,3.5519,3.5519,3.5457,3.5375,3.461,3.4511,3.6065,3.616,3.6503,3.7979,3.7952,3.772,3.7529,3.5922,3.5156,3.5994,3.434,3.3662,3.4635,3.3725,3.309,3.309,3.3545,3.3847,3.3897,3.4352,3.4879,3.5408,3.5483,3.5782,3.6306,3.638,3.6405,3.6405,3.6405,3.6405,3.6405,3.6405,3.6405,3.6405,3.6405,3.6405,3.6405,3.6405,3.6733,3.7261,3.7789,3.8366,3.8969,0.0,0.0,0.0,0.0,0.0,0.0,0.0,0.0,0.0,0.0,0.0,0.0,0.0,0.0,0.0,0.0,0.0,0.0,0.0,0.0,1.9811,1.9811,1.9811,1.9811,1.9811,1.9811,1.9811,1.9811,1.9811,0.0,0.0,0.0,0.0,2.0957,0.0,2.2954,2.293,2.532,2.5749,2.4969,2.6844,2.7255,2.6785,2.7382,2.7585,0.0,0.0,0.0,0.0,0.0,0.0,0.0,2.8231,2.8487,2.8816,2.9804,3.0283,3.0598,3.1122,3.1391,3.1511,3.1511,3.2392,3.3634,3.4981,3.54,3.5519,3.5519,3.5519,3.5277,3.4476,3.416,3.4197,3.4774,3.5493,3.6161,3.6607,3.732,3.7204,3.5568,3.5682,3.5634,3.5081,3.4635,3.4449,3.4697,3.3725,3.309,3.309,3.3215,3.3467,3.3897,3.4022,3.4327,3.4879,3.5282,3.5558,3.5707,3.618,3.6405,3.6405,3.6405,3.6405,3.6405,3.6405,3.6405,3.6405,3.6405,3.6405,3.6405,3.6405,3.6733,3.7261,3.7789,3.8366,3.8969,0.0,0.0,0.0,0.0,0.0,0.0,0.0,0.0,0.0,0.0,0.0,0.0,0.0,0.0,0.0,0.0,0.0,0.0,0.0,0.0,0.0,0.0,1.9811,1.9811,1.9811,1.9811,1.9936,2.0226,0.0,0.0,0.0,0.0,0.0,2.151,0.0,2.3369,2.337,2.5218,2.5742,2.5439,2.6615,2.7061,2.7074,2.7446,2.7585,2.7585,2.7585,0.0,0.0,0.0,0.0,0.0,0.0,0.0,2.9654,3.0313,3.0717,3.1076,3.1421,3.1511,3.166,3.2303,3.3215,3.4248,3.528,3.5133,3.4905,3.5392,3.5116,3.4773,3.4739,3.3584,3.3205,3.4833,3.4808,3.4944,3.6065,3.6279,3.5902,3.4815,3.4712,3.4506,3.3995,3.3932,3.3932,3.3932,3.3407,3.309,3.309,3.309,3.3241,3.3517,3.3517,3.3771,3.4324,3.4603,3.5004,3.5508,3.5807,3.613,3.6405,3.6405,3.6405,3.6405,3.6405,3.6405,3.6405,3.6405,3.6405,3.6405,3.6405,3.6581,3.6909,3.7713,3.8191,3.8592,0.0,0.0,0.0,0.0,0.0,0.0,0.0,0.0,0.0,0.0,0.0,0.0,0.0,0.0,0.0,0.0,0.0,0.0,0.0,0.0,0.0,0.0,1.9811,1.9811,1.9811,1.9886,2.0201,0.0,0.0,0.0,0.0,0.0,0.0,2.2336,0.0,2.3645,2.4134,2.4908,2.5467,2.5946,2.6203,2.6602,2.7058,2.7318,2.7467,2.7599,2.7726,2.7854,2.7944,2.7944,0.0,0.0,0.0,0.0,3.0522,3.0642,3.1076,3.1511,3.1511,3.16,3.1989,3.3335,3.4099,3.4667,3.534,3.4739,3.4245,3.5083,3.4459,3.4024,3.4839,3.2922,3.2058,3.4696,3.3933,3.3627,3.5411,3.5095,3.4635,3.4449,3.3641,3.309,3.309,3.309,3.309,3.309,3.309,3.309,3.309,3.309,3.309,3.309,3.309,3.3316,3.3746,3.3847,3.4327,3.5232,3.5408,3.5807,3.6405,3.6405,3.6405,3.6405,3.6405,3.6405,3.6405,3.6405,3.6405,3.6405,3.6405,3.6405,3.6531,3.7588,3.8015,3.8165,0.0,0.0,0.0,0.0,0.0,0.0,0.0,0.0,0.0,0.0,1.9811,0.0,0.0,0.0,0.0,0.0,0.0,0.0,0.0,0.0,0.0,0.0,1.9811,1.9811,1.9811,2.0301,2.0616,0.0,0.0,0.0,0.0,0.0,0.0,2.2307,0.0,0.0,2.3305,2.4105,2.409,2.3666,2.5007,2.5203,2.4894,0.0,0.0,0.0,2.8248,2.883,2.9309,2.9309,2.9398,0.0,0.0,0.0,3.0598,3.1182,3.1421,3.1511,3.1511,3.1929,3.2691,3.4039,3.4428,3.4667,3.534,3.4739,3.403,3.4177,3.3463,3.2823,3.2947,3.2028,3.1374,3.1903,3.2561,3.3118,3.3462,3.4178,3.4345,3.3407,3.3197,3.309,3.309,3.309,3.309,3.309,3.309,3.309,3.309,3.309,3.309,3.309,3.309,3.314,3.3215,3.3671,3.3972,3.4123,3.5054,3.5807,3.6405,3.6405,3.6405,3.6405,3.6405,3.6405,3.6405,3.6405,3.6405,3.6405,3.6405,3.6405,3.6531,3.7588,3.8015,3.8165,0.0,0.0,0.0,0.0,0.0,0.0,0.0,0.0,0.0,0.0,0.0,1.9811,0.0,0.0,0.0,0.0,0.0,0.0,0.0,0.0,0.0,0.0,0.0,2.0301,2.0301,2.0854,0.0,0.0,0.0,0.0,0.0,2.2744,2.2744,0.0,0.0,0.0,0.0,2.3484,2.3691,2.3865,2.4826,2.528,0.0,0.0,0.0,0.0,0.0,0.0,2.9608,2.9608,2.9817,3.0133,3.0432,0.0,0.0,0.0,3.1511,3.16,3.1959,3.2542,3.3275,3.4248,3.4787,3.4971,3.4701,3.3922,3.3209,3.3209,3.2046,3.136,3.2397,3.1415,3.0714,3.1609,3.1937,3.2209,3.255,3.3288,3.3641,3.3154,3.309,3.309,3.309,3.309,3.309,3.309,3.309,3.309,3.309,3.309,3.309,3.309,3.309,3.309,3.309,3.3341,3.3596,3.3922,3.5004,3.5656,3.5906,3.6256,3.6405,3.6405,3.6405,3.6405,3.6405,3.6405,3.6405,3.6405,3.6405,3.6405,3.6531,3.7588,3.8015,3.8165,0.0,0.0,0.0,0.0,0.0,0.0,0.0,0.0,0.0,0.0,0.0,0.0,0.0,0.0,0.0,0.0,0.0,0.0,0.0,0.0,0.0,0.0,0.0,0.0,2.0893,2.1432,0.0,0.0,0.0,0.0,2.3095,2.3095,2.3095,0.0,2.3095,0.0,0.0,0.0,0.0,0.0,0.0,2.5346,0.0,0.0,0.0,0.0,0.0,0.0,0.0,2.9429,2.9894,3.0448,3.0448,3.0919,0.0,0.0,0.0,3.1634,3.2527,3.3245,3.3857,3.4262,3.4747,3.4856,3.3859,3.2912,3.2236,3.2236,3.094,3.0235,3.1628,3.0733,3.0207,3.1448,3.1383,3.1386,3.1913,3.2491,3.2889,3.2889,3.3014,3.309,3.309,3.309,3.309,3.309,3.309,3.309,3.309,3.309,3.309,3.309,3.309,3.309,3.309,3.309,3.3366,3.3897,3.4853,3.5357,3.5508,3.613,3.6405,3.6405,3.6405,3.6405,3.6405,3.6405,3.6405,3.6405,3.6405,3.6405,3.6531,3.7588,3.8015,3.8165,0.0,0.0,0.0,0.0,0.0,0.0,0.0,0.0,0.0,0.0,0.0,0.0,0.0,0.0,0.0,1.9811,0.0,0.0,0.0,0.0,0.0,0.0,0.0,0.0,0.0,0.0,0.0,0.0,0.0,0.0,2.3095,2.3095,2.3095,2.3095,2.3095,2.3095,2.3145,0.0,0.0,0.0,0.0,0.0,0.0,0.0,0.0,0.0,0.0,0.0,0.0,2.9018,2.959,3.0301,3.0301,3.0852,3.1336,0.0,0.0,0.0,3.3046,3.3949,3.4371,3.4109,3.4064,3.3825,3.2876,3.1929,3.1259,3.1259,3.0495,2.9818,2.9934,2.9856,2.9999,3.0567,3.0653,3.0834,3.1361,3.1913,3.2265,3.2265,3.2742,3.309,3.309,3.309,3.309,3.309,3.309,3.309,3.309,3.309,3.309,3.309,3.309,3.309,3.309,3.309,3.3366,3.3897,3.4452,3.5004,3.5508,3.613,3.6405,3.6405,3.6405,3.6405,3.6405,3.6405,3.6405,3.6405,3.6405,3.6405,3.6531,3.7588,3.8015,3.8165,0.0,0.0,0.0,0.0,0.0,0.0,0.0,0.0,0.0,0.0,0.0,0.0,0.0,0.0,1.9811,1.9811,1.9811,0.0,0.0,0.0,0.0,0.0,0.0,0.0,0.0,0.0,0.0,0.0,0.0,2.3095,2.3095,2.3095,2.3296,2.3662,2.3662,2.3662,2.3712,2.4264,0.0,0.0,0.0,0.0,0.0,0.0,0.0,0.0,0.0,2.8318,2.9002,2.9002,2.9207,2.9473,0.0,0.0,2.9898,2.9966,3.0123,3.0596,3.1933,3.2459,3.2704,3.3016,3.3087,3.2859,3.1938,3.1444,3.1044,3.0438,3.0024,2.9804,2.9804,2.9804,2.9854,3.0055,3.0382,3.0663,3.0859,3.1361,3.1813,3.2144,3.239,3.2667,3.3065,3.309,3.309,3.309,3.309,3.309,3.309,3.309,3.309,3.309,3.309,3.309,3.309,3.309,3.319,3.3391,3.3922,3.4452,3.5004,3.5556,3.6031,3.6405,3.6405,3.6405,3.6405,3.6405,3.6405,3.6405,3.6405,3.6405,3.6531,3.7588,3.8015,3.8165,0.0,0.0,0.0,0.0,0.0,0.0,0.0,0.0,0.0,0.0,0.0,0.0,0.0,0.0,2.0162,2.0338,2.0363,2.0552,2.0943,2.0968,0.0,0.0,0.0,0.0,0.0,0.0,0.0,0.0,0.0,0.0,0.0,2.3396,2.3712,2.428,2.4456,2.4431,0.0,0.0,0.0,2.5118,0.0,0.0,2.5954,0.0,0.0,0.0,2.7313,2.767,2.8179,2.8377,2.8611,2.8828,0.0,0.0,0.0,0.0,0.0,0.0,3.1316,3.176,3.1973,3.21,3.2128,3.1901,3.0932,3.0733,3.0545,2.9934,2.9804,2.9804,2.9804,2.9804,2.9804,2.9804,3.0105,3.0331,3.0331,3.0783,3.126,3.1617,3.1838,3.2164,3.2742,3.2813,3.2889,3.309,3.309,3.309,3.309,3.309,3.309,3.309,3.309,3.309,3.309,3.309,3.309,3.3115,3.3646,3.4198,3.4728,3.528,3.5832,3.6405,3.6405,3.6405,3.6405,3.6405,3.6405,3.6405,3.6405,3.6405,3.6531,3.7588,3.8015,3.8165,0.0,0.0,0.0,0.0,0.0,0.0,0.0,0.0,0.0,0.0,0.0,0.0,0.0,0.0,0.0,2.1457,2.1507,2.1507,2.1532,2.1532,0.0,0.0,0.0,0.0,0.0,0.0,0.0,0.0,0.0,0.0,0.0,0.0,2.4315,2.4842,2.5385,2.5335,2.4892,0.0,2.5611,2.5661,0.0,2.6499,2.6499,0.0,2.6524,2.6524,2.6524,2.6549,2.6625,2.7135,2.784,2.8495,0.0,0.0,0.0,0.0,0.0,0.0,0.0,0.0,0.0,3.1389,3.1148,3.0914,3.0011,2.9804,2.9804,2.9804,2.9804,2.9804,2.9804,2.9804,2.9804,2.9804,2.9804,2.9804,2.9804,3.0256,3.0588,3.0588,3.106,3.1587,3.2118,3.219,3.2441,3.304,3.3065,3.309,3.309,3.309,3.309,3.309,3.309,3.309,3.309,3.309,3.309,3.3115,3.3621,3.4173,3.4728,3.5232,3.5807,3.6405,3.6405,3.6405,3.6405,3.6405,3.6405,3.6405,3.6405,3.6405,3.6532,3.7613,3.8015,3.8191,0.0,0.0,0.0,0.0,0.0,0.0,0.0,0.0,0.0,0.0,0.0,0.0,0.0,0.0,0.0,2.1482,2.1507,2.1669,2.2046,2.2071,2.2307,2.2844,2.2869,2.2945,0.0,0.0,0.0,0.0,0.0,0.0,0.0,0.0,0.0,0.0,2.5536,2.5778,2.603,2.6197,0.0,2.6273,2.6424,2.6499,2.6524,2.6927,2.706,2.7135,2.7512,2.7645,2.767,2.7821,2.8034,2.8224,0.0,0.0,0.0,0.0,0.0,0.0,3.0122,0.0,0.0,0.0,0.0,0.0,2.9856,2.9804,2.9804,2.9804,2.9804,2.9804,2.9804,2.9804,2.9804,2.9804,2.9804,2.9804,2.9804,2.993,3.0181,3.0538,3.0713,3.1035,3.1562,3.1612,3.1838,3.2416,3.2466,3.2641,3.3065,3.309,3.309,3.309,3.309,3.309,3.309,3.309,3.309,3.309,3.3266,3.3796,3.4703,3.4853,3.5454,3.6405,3.6405,3.6405,3.6405,3.6405,3.6405,3.6405,3.6405,3.6632,3.706,3.7739,3.8266,3.8592,0.0,0.0,0.0,0.0,0.0,0.0,0.0,0.0,0.0,0.0,0.0,0.0,0.0,0.0,0.0,2.2146,2.2171,2.2307,2.2608,2.2619,2.2769,2.3095,2.3095,2.3095,2.3095,2.3095,2.3221,2.3487,2.3828,2.423,2.4682,2.4983,0.0,0.0,0.0,0.0,0.0,0.0,0.0,2.6826,2.6826,2.6977,2.7211,2.7494,2.762,2.767,2.7996,2.8097,2.8147,2.8355,2.843,2.848,2.8725,0.0,0.0,0.0,0.0,0.0,0.0,0.0,0.0,2.9804,0.0,0.0,2.9804,2.9804,2.9804,2.9804,2.9804,2.9804,2.9804,2.9804,2.9804,2.9804,2.9804,2.9804,2.9804,2.9804,2.9905,3.0231,3.0281,3.0482,3.1009,3.106,3.1286,3.1838,3.1863,3.2114,3.2692,3.2964,3.309,3.309,3.309,3.309,3.309,3.309,3.309,3.309,3.309,3.3646,3.4703,3.4703,3.5328,3.6405,3.6405,3.6405,3.6405,3.6405,3.6405,3.6405,3.6405,3.6733,3.7261,3.7789,3.7991,3.7926,0.0,0.0,0.0,0.0,0.0,0.0,0.0,0.0,0.0,0.0,0.0,0.0,0.0,0.0,0.0,0.0,2.2914,2.2959,2.2959,2.3035,0.0,2.3195,2.3195,2.3221,2.3296,2.3296,2.3562,2.4079,2.4155,2.4657,2.5586,2.5661,2.603,2.6575,0.0,0.0,0.0,0.0,2.7412,2.7469,2.7412,2.767,2.8122,2.8172,2.8197,2.8197,2.8254,2.8298,2.8373,2.8831,2.9007,2.9107,2.9628,2.9428,2.9107,0.0,2.9804,0.0,0.0,0.0,0.0,0.0,2.9804,0.0,2.9804,2.9804,2.9804,2.9804,2.9804,2.9804,2.9804,2.9804,2.9804,2.9804,2.9804,2.9804,2.9804,2.9804,2.9804,2.9804,2.9804,2.998,3.0462,3.0512,3.0733,3.126,3.1381,3.1637,3.2169,3.2692,3.304,3.309,3.309,3.309,3.309,3.309,3.309,3.309,3.309,3.3646,3.4703,3.4703,3.5328,3.6405,3.6405,3.6405,3.6405,3.6405,3.6405,3.6405,3.6405,3.6663,3.7093,3.7592,3.7234,3.6599,0.0,0.0,0.0,0.0,0.0,0.0,0.0,0.0,0.0,0.0,0.0,0.0,0.0,0.0,0.0,0.0,0.0,2.2125,2.2125,2.2747,2.3321,2.3788,2.3828,2.4014,2.4449,2.4465,2.454,2.4641,2.5084,2.5385,2.5611,2.6097,2.6625,2.7135,0.0,0.0,0.0,0.0,2.8179,2.8555,2.8122,2.8021,2.8147,2.858,2.8756,2.8806,2.9302,2.9453,2.9478,2.9578,2.9628,2.9654,2.9754,2.9704,2.9654,2.9754,2.9804,0.0,0.0,0.0,0.0,2.9804,2.9804,0.0,2.9804,2.9804,2.9804,2.9804,2.9804,2.9804,2.9804,2.9804,2.9804,2.9804,2.9804,2.9804,2.9804,2.9804,2.9804,2.9804,2.9804,2.9829,2.9955,2.9955,3.0181,3.0733,3.116,3.1637,3.2169,3.2315,3.2591,3.309,3.309,3.309,3.309,3.309,3.309,3.309,3.309,3.3646,3.4703,3.4703,3.5328,3.6405,3.6405,3.6405,3.6405,3.6405,3.6405,3.6405,3.6405,3.6259,3.6093,3.6189,3.5955,3.5427,0.0,0.0,0.0,0.0,0.0,0.0,0.0,0.0,0.0,0.0,0.0,0.0,0.0,0.0,0.0,0.0,0.0,0.0,0.0,0.0,2.2644,2.2937,2.2944,2.3079,2.334,2.4111,2.4514,2.4514,2.5543,2.618,2.6457,2.6758,2.7185,2.7695,0.0,0.0,0.0,2.8505,2.8831,2.9283,2.8731,2.8681,2.8976,2.9252,2.9333,2.9402,2.9679,2.9804,2.9804,2.9804,2.9804,2.9804,2.9804,2.9804,2.9804,2.9804,2.9804,2.9804,2.9804,2.9804,2.9804,2.9804,2.9804,0.0,0.0,2.9804,2.9804,2.9804,2.9804,2.9804,2.9804,2.9804,2.9804,2.9804,2.9804,2.9804,2.9804,2.9804,2.9804,2.9804,2.9804,2.9804,2.9804,2.9804,2.9905,3.0181,3.0708,3.1135,3.1391,3.1893,3.234,3.2641,3.2939,3.309,3.309,3.309,3.309,3.309,3.309,3.3646,3.4703,3.4703,3.5328,3.6405,3.6405,3.6405,3.6405,3.6405,3.6405,3.643,3.6683,3.6848,3.6842,3.6422,3.5865,3.5096,1.6859,0.0,0.0,0.0,0.0,0.0,0.0,0.0,0.0,0.0,0.0,0.0,0.0,0.0,0.0,0.0,0.0,0.0,0.0,0.0,2.1936,2.2043,2.2043,2.2087,2.2216,2.3618,2.4404,2.4499,2.5933,2.6927,2.7462,2.7462,2.7745,2.8254,2.8254,0.0,0.0,0.0,2.9358,2.9754,2.9258,2.9377,2.9804,2.9804,2.9804,2.9804,2.9804,2.9804,2.9804,2.9804,2.9804,2.9804,2.9804,2.9804,2.9804,2.9804,2.9804,2.9804,2.9804,2.9804,2.9804,2.9804,2.9804,2.9804,0.0,0.0,0.0,2.9804,2.9804,2.9804,2.9804,2.9804,2.9804,2.9804,2.9804,2.9804,2.9804,2.9804,2.9804,2.9804,2.9804,2.9804,2.9804,2.9804,2.9804,2.9804,3.0206,3.0487,3.0588,3.1516,3.2093,3.2194,3.2788,3.309,3.309,3.309,3.309,3.309,3.3215,3.3746,3.4703,3.4803,3.5429,3.6405,3.6405,3.6405,3.6405,3.6405,3.6457,3.6558,3.672,3.6924,3.7043,3.6166,3.5269,3.4264,1.7399,1.7321,0.0,0.0,0.0,0.0,0.0,0.0,0.0,0.0,0.0,0.0,0.0,0.0,0.0,0.0,0.0,0.0,2.0744,0.0,0.0,0.0,2.2608,2.2827,2.331,2.4358,2.5135,2.5618,2.6692,2.7487,2.8021,2.8021,2.8298,2.8806,2.8806,2.9132,0.0,2.9704,2.9729,2.9779,2.9729,2.9729,2.9804,2.9804,2.9804,2.9804,2.9804,2.9804,2.9804,2.9804,2.9804,2.9804,2.9804,2.9804,2.9804,2.9804,2.9804,2.9804,2.9804,2.9804,2.9804,2.9804,2.9804,2.9804,2.9804,0.0,2.9804,2.9804,0.0,2.9804,2.9804,0.0,0.0,2.9804,2.9804,2.9804,2.9804,2.9804,2.9804,2.9804,2.9804,2.9804,2.9804,2.9804,2.9804,2.9804,2.9854,3.0105,3.0563,3.116,3.1712,3.2169,3.2788,3.309,3.309,3.309,3.309,3.3115,3.3571,3.4123,3.4728,3.5182,3.5757,3.6405,3.6405,3.6405,3.6405,3.6405,3.6683,3.6989,3.5743,3.4773,3.3986,3.3051,3.2145,3.1383,1.7773,1.7754,0.0,0.0,0.0,0.0,0.0,0.0,0.0,0.0,0.0,0.0,0.0,0.0,0.0,0.0,0.0,2.0601,2.0601,2.0956,0.0,0.0,2.1842,2.2048,2.2562,2.3515,2.4122,2.4338,2.5355,2.6127,2.6663,2.6663,2.7295,2.8446,2.8446,2.8924,2.9804,2.9804,2.9804,2.9804,2.9804,2.9804,2.9804,2.9804,2.9804,2.9804,2.9804,2.9804,2.9804,2.9804,2.9804,2.9804,2.9804,2.9804,2.9804,2.9804,2.9804,2.9804,2.9804,2.9804,2.9804,2.9804,2.9804,2.9804,2.9804,2.9804,2.9804,2.9804,0.0,0.0,0.0,0.0,0.0,0.0,2.9804,2.9804,2.9804,2.9804,2.9804,2.9804,2.9804,2.9804,2.9804,2.9804,2.9804,2.9804,2.9804,2.9905,3.0131,3.0934,3.1486,3.1738,3.2638,3.309,3.309,3.309,3.309,3.3115,3.3646,3.4198,3.4728,3.528,3.5832,3.6405,3.6405,3.6405,3.6405,3.6405,3.6204,3.5816,3.462,3.4699,3.5182,3.3378,3.2486,3.2035,1.8359,0.0,0.0,0.0,1.8264,0.0,0.0,0.0,0.0,0.0,0.0,0.0,1.9647,1.9921,0.0,0.0,2.0566,2.082,2.0938,2.0977,2.1094,2.1386,2.1386,2.1542,2.1896,2.2818,2.3384,2.355,2.4552,2.5291,2.5842,2.5842,2.6487,2.7663,2.7663,2.8108,2.889,2.889,2.9072,2.9326,2.9326,2.9527,2.9804,2.9804,2.9804,2.9804,2.9804,2.9804,2.9804,2.9804,2.9804,2.9804,2.9804,2.9804,2.9804,2.9804,2.9804,2.9804,2.9804,2.9804,2.9804,2.9804,2.9804,2.9804,2.9804,2.9804,2.9804,2.9804,2.9804,0.0,0.0,0.0,2.9804,2.9804,0.0,2.9804,2.9804,2.9804,2.9804,2.9804,2.9804,2.9804,2.9804,2.9804,2.9804,2.9804,2.9804,2.9663,2.9346,3.0643,3.1263,3.0951,3.202,3.259,3.259,3.259,3.259,3.259,3.3617,3.4301,3.4728,3.5431,3.5981,3.6405,3.6405,3.6405,3.6381,3.5977,3.56,3.5082,3.36,3.4141,3.5447,3.3289,3.2501,3.233,1.9256,1.8888,0.0,0.0,1.8965,1.9258,1.9276,1.9296,1.9434,1.9825,1.9864,2.0059,2.0507,2.0566,2.0742,2.1112,2.1171,2.1366,2.1837,2.1876,2.1855,2.1876,2.1876,2.1875,2.1915,2.2818,2.3592,2.4177,2.5115,2.5885,2.6481,2.6481,2.6502,2.6565,2.6565,2.6565,2.6607,2.6607,2.7221,2.8144,2.8144,2.8806,2.9804,2.9804,2.9804,2.9804,2.9804,2.9804,2.9804,2.9804,2.9804,2.9804,2.9804,2.9804,2.9804,2.9804,2.9804,2.9804,2.9804,2.9804,2.9804,2.9804,2.9804,2.9804,2.9804,2.9804,2.9804,2.9804,2.9804,2.9804,2.9804,2.9804,0.0,0.0,0.0,0.0,0.0,2.9804,2.9804,2.9804,2.9804,2.9804,2.9804,2.9804,2.9804,2.9804,2.9804,2.9326,2.8227,3.0215,3.091,2.9867,3.0787,3.1267,3.1267,3.1267,3.1267,3.1289,3.3565,3.4678,3.4728,3.5854,3.638,3.6405,3.6405,3.6405,3.631,3.4993,3.498,3.55,3.2748,3.2293,3.3028,3.1536,3.0966,3.0966,0.0,0.0,0.0,0.0,1.918,1.9393,1.9668,1.996,2.0214,2.0351,2.0605,2.082,2.0976,2.1269,2.1524,2.166,2.166,2.1719,2.1896,2.1915,2.2012,2.2285,2.2305,2.242,2.2693,2.3016,2.3268,2.3472,2.3772,2.4046,2.4252,2.4252,2.4659,2.5378,2.5378,2.5776,2.6504,2.6504,2.7116,2.8187,2.8929,2.9008,2.8767,2.9527,2.9804,2.9804,2.9804,2.9804,2.9804,2.9804,2.9804,2.9804,2.9804,2.9804,2.9804,2.9804,2.9804,2.9804,2.9804,2.9804,2.9804,2.9804,2.9804,2.9804,2.9804,2.9804,2.9804,2.9804,2.9804,2.9804,2.9804,2.9804,0.0,0.0,0.0,0.0,0.0,2.9804,2.9804,2.9804,2.9804,2.9804,2.9804,2.9804,2.9804,2.9804,2.9804,2.9436,2.8627,2.9629,2.9841,2.9026,2.9668,3.0011,3.0011,3.0799,3.1201,3.1247,3.3567,3.4247,3.3468,3.548,3.5906,3.5138,3.6001,3.6405,3.6383,3.6279,3.5514,3.4279,3.3687,3.2726,3.1565,3.1083,3.0898,3.0898,1.9765,0.0,2.0176,1.9609,1.9766,2.0059,2.0332,2.0762,2.1055,2.1055,2.1289,2.1445,2.1445,2.1719,2.1974,2.209,2.2109,2.2168,2.2324,2.2324,2.2441,2.2693,2.2713,2.283,2.3081,2.3101,2.3101,2.3101,2.3101,2.3101,2.3101,2.3101,2.3495,2.4189,2.4189,2.4595,2.5295,2.5295,2.5922,2.7032,2.8171,2.8191,2.7643,2.8767,2.9443,2.9804,2.9804,2.9804,2.9804,2.9804,2.9804,2.9804,2.9804,2.9804,2.9804,2.9804,2.9804,2.9804,2.9804,2.9804,2.9804,2.9804,2.9804,2.9804,2.9804,2.9955,3.003,2.9829,3.0105,3.0256,2.9854,3.0105,0.0,0.0,0.0,0.0,0.0,2.9804,2.9804,2.9804,2.9804,2.9804,2.9804,2.9424,2.9365,2.976,2.9204,2.8637,2.8205,2.8858,2.887,2.8027,2.8487,2.8773,2.8773,2.951,2.992,2.9943,3.2247,3.2909,3.2135,3.4055,3.4727,3.4459,3.5307,3.5953,3.636,3.5917,3.4852,3.3564,3.3106,3.2061,3.0898,3.0898,3.0898,3.0898,2.0488,2.0858,2.0897,2.0137,2.0684,2.1229,2.1229,2.1621,2.1915,2.1915,2.1915,2.1935,2.1935,2.1954,2.2109,2.25,2.2518,2.2693,2.3062,2.3101,2.3101,2.3101,2.3101,2.3101,2.3101,2.3101,2.3101,2.3101,2.3101,2.3101,2.3101,2.3101,2.3101,2.3101,2.3101,2.3101,2.3101,2.3101,2.3735,2.4808,2.6005,2.6483,2.6545,2.7663,2.8767,2.9721,2.9779,2.9804,2.9804,2.9804,2.9804,2.9804,2.9804,2.9804,2.9804,2.9804,2.9804,2.9804,2.9804,2.9804,2.9804,2.9804,2.9804,2.9804,2.9829,3.0231,3.0462,2.998,3.0683,3.1105,3.0055,3.0708,3.1235,0.0,0.0,0.0,2.9955,2.9854,2.9829,2.9829,2.9829,2.9829,2.9804,2.8831,2.8673,2.9771,2.8199,2.7179,2.7182,2.8009,2.796,2.6882,2.7275,2.7529,2.7529,2.7576,2.76,2.7665,2.9855,3.0873,3.0868,3.193,3.3105,3.4312,3.4361,3.5187,3.6267,3.3981,3.3276,3.3427,3.1203,3.0575,3.0898,3.0898,3.0898,3.0898,1.8987,1.9602,2.0534,2.1264,2.1562,2.1719,2.1719,2.1816,2.1915,2.1915,2.2168,2.2363,2.2363,2.2615,2.283,2.2947,2.2967,2.2984,2.3081,2.3101,2.3101,2.3101,2.3101,2.3101,2.3101,2.3101,2.3101,2.3101,2.3101,2.3101,2.3101,2.3101,2.3101,2.3101,2.3101,2.3101,2.3101,2.3101,2.3256,2.3714,2.5714,2.5985,2.5462,2.738,2.8287,2.8648,2.9507,2.9804,2.9804,2.9804,2.9804,2.9804,2.9804,2.9804,2.9804,2.9804,2.9804,2.9804,2.9804,2.9804,2.9804,2.9804,2.9804,2.9905,3.0306,3.0487,3.0663,3.0934,3.1231,3.1331,3.1055,3.121,3.1336,0.0,0.0,0.0,3.1009,3.0658,3.0387,3.0387,3.0387,3.0256,2.9829,2.9895,3.0084,3.0367,2.9168,2.8364,2.8231,2.7278,2.6514,2.6032,2.6123,2.6183,2.6183,2.7125,2.7767,2.8079,2.9985,3.0541,2.9945,3.2634,3.3477,3.2905,3.3945,3.5405,3.6818,3.4539,3.382,3.407,3.2839,3.1761,3.0898,3.0898,3.0898,3.0898,1.9008,2.0107,2.1367,2.2275,2.242,2.2363,2.2187,2.2305,2.242,2.242,2.2615,2.2771,2.2771,2.2945,2.3101,2.3101,2.3101,2.3101,2.3101,2.3101,2.3101,2.3101,2.3101,2.3101,2.3101,2.3101,2.3101,2.3101,2.3101,2.3101,2.3101,2.3101,2.3101,2.3101,2.3101,2.3101,2.3101,2.3101,2.3101,2.3212,2.4489,2.4638,0.0,2.5983,2.6664,2.6808,2.7947,2.8993,2.9804,2.9804,2.9804,2.9804,2.9804,2.9804,2.9804,2.9804,2.9804,2.9854,3.008,3.0156,3.0206,3.0432,3.0482,3.0583,3.0884,3.1115,3.1336,3.1386,3.1808,3.2009,3.1486,3.1808,3.206,3.1788,3.1763,3.1662,3.1411,3.1135,3.0959,3.0959,3.0738,3.0462,3.0181,3.0213,3.0024,2.9538,2.8594,2.7875,2.7542,2.6489,2.5859,2.5698,2.5693,2.5693,2.5693,2.6404,2.6988,2.7415,2.861,2.9019,2.8808,3.1425,3.2177,3.1495,3.288,3.4548,3.6137,3.3817,3.346,3.4247,3.274,3.1623,3.0898,3.0898,3.0898,3.0898,1.9505,2.101,2.2222,2.2566,2.2753,2.2746,2.2401,2.2761,2.3101,2.3101,2.3101,2.3101,2.3101,2.3101,2.3101,2.3101,2.3101,2.3101,2.3101,2.3101,2.3101,2.3101,2.3101,2.3101,2.3101,2.3101,2.3101,2.3101,2.3101,2.3101,2.3101,2.3101,2.3101,2.3101,2.3101,2.3101,2.3101,2.3101,2.3101,2.3101,2.3101,2.3101,2.3212,2.4382,2.4808,2.4957,2.6088,2.775,2.9365,2.9365,2.9468,2.9585,2.966,2.9763,2.9905,2.998,3.0005,3.0105,3.0583,3.0688,3.0834,3.1286,3.1406,3.1432,3.1486,3.1863,3.2089,3.1687,3.2411,3.2788,3.1808,3.2437,3.2939,3.2416,3.2315,3.2164,3.1708,3.1537,3.1486,3.1486,3.111,0.0,3.0713,3.0269,2.9525,2.8389,2.759,2.6899,2.6335,2.5872,2.5659,2.5693,2.5693,2.5693,2.5693,2.5693,2.5952,2.6465,2.6836,2.7266,2.7832,2.972,3.0463,3.0406,3.1993,3.3572,3.4839,3.2613,3.2575,3.3732,3.1713,3.0898,3.0898,3.0898,3.0898,3.0898,1.8056,1.9138,2.0048,2.0116,2.0944,2.1595,2.1522,2.2432,2.3101,2.3101,2.3101,2.3101,2.3101,2.3101,2.3101,2.3101,2.3101,2.3101,2.3101,2.3101,2.3101,2.3101,2.3101,2.3101,2.3101,2.3101,2.3101,2.3101,2.3101,2.3101,2.3101,2.3101,2.3101,2.3101,2.3101,2.3101,2.3101,2.3101,2.3101,2.3101,2.3101,2.3101,2.3212,2.4382,2.4808,2.4957,2.6088,2.6751,2.7078,2.7078,2.7666,2.8478,2.8911,2.971,3.0557,3.0984,3.111,3.1155,3.1235,3.126,3.1286,3.1381,3.1406,3.1532,3.1964,3.2118,3.2315,3.2713,3.2964,3.304,3.2839,3.2964,3.3065,3.2964,3.2939,3.2914,3.2813,3.2365,3.2064,3.2064,3.1989,3.1763,3.1311,3.1173,3.063,2.9436,2.8803,2.8135,2.7373,2.5986,2.5352,2.5698,2.5693,2.5693,2.5693,2.5693,2.6108,2.6914,2.6973,2.7422,2.829,3.0807,3.1363,3.0458,3.3417,3.4458,3.3956,3.2759,3.1965,3.1465,3.1043,3.0898,3.0898,3.0898,3.0898,3.0937,1.7684,1.8688,1.9497,1.9497,1.998,2.0364,2.0364,2.0854,2.1676,2.2928,2.2558,2.2403,2.3016,2.2536,2.2425,2.3057,2.3101,2.3101,2.3101,2.3101,2.3101,2.3101,2.3101,2.3101,2.3101,2.3101,2.3101,2.3101,2.3101,2.3101,2.3101,2.3101,2.3101,2.3101,2.3101,2.3101,2.3101,2.3101,2.3101,2.3101,2.3101,2.3101,2.3186,2.3974,2.4274,2.4381,2.5132,2.5412,2.5545,2.6489,2.7271,2.8045,2.8973,2.9629,3.0261,3.1148,3.1406,3.1461,3.1738,3.1813,3.1888,3.221,3.2286,3.2361,3.2591,3.2667,3.2742,3.304,3.309,3.309,3.309,3.309,3.309,3.309,3.309,3.309,3.309,3.2864,3.2667,3.2667,3.1836,3.1159,3.0912,3.0866,3.0281,2.8848,2.8366,2.7638,2.6374,2.5726,2.5484,2.5674,2.5693,2.5693,2.5693,2.5932,2.6387,2.6986,2.7246,2.7676,2.8361,3.0359,3.0514,2.9402,3.1941,3.2918,3.276,3.2753,3.2031,3.0898,3.0898,3.0898,3.0898,3.0898,3.1035,3.125,1.7288,1.8272,1.9039,1.8764,1.8948,1.9108,1.9108,1.9108,1.9883,2.205,2.1743,2.1658,2.2602,2.2098,2.2076,2.3035,2.3101,2.3101,2.3101,2.3101,2.3101,2.3101,2.3101,2.3101,2.3101,2.3101,2.3101,2.3101,2.3101,2.3101,2.3101,2.3101,2.3101,2.3101,2.3101,2.3101,2.3101,2.3101,2.3101,2.3101,2.322,2.3259,2.3298,2.375,2.3926,2.3965,2.4297,2.4449,2.4769,2.6187,2.6977,2.7568,2.866,2.9373,2.9971,3.1041,3.1552,3.1838,3.229,3.239,3.2516,3.2989,3.309,3.309,3.309,3.309,3.309,3.309,3.309,3.309,3.309,3.309,3.309,3.309,3.309,3.309,3.309,3.309,3.3004,3.272,3.1674,3.0757,3.0255,3.043,2.9915,2.8341,2.8061,2.7173,2.533,2.5523,2.5693,2.5693,2.5693,2.5693,2.5693,2.6172,2.6602,2.7031,2.7487,2.7917,2.8354,2.9697,2.9606,2.8545,3.0686,3.1778,3.2131,3.284,3.2236,3.0898,3.0898,3.0898,3.0898,3.0898,3.1152,3.1494,1.5974,1.6983,1.7498,1.6362,1.71,1.787,1.787,1.787,1.8342,1.9656,2.0679,2.1346,2.1458,2.2337,2.2972,2.3101,2.3101,2.3101,2.3101,2.3101,2.3101,2.3101,2.3101,2.3101,2.3101,2.3101,2.3101,2.3101,2.3101,2.3101,2.3101,2.3101,2.3101,2.3101,2.3101,2.3101,2.3101,2.3101,2.3101,2.314,2.3574,2.373,2.3769,2.4199,2.4332,2.4332,2.4391,2.4668,2.5071,2.5224,2.5729,2.6367,2.695,2.8611,3.044,3.1047,3.2049,3.2964,3.3014,3.3014,3.304,3.309,3.309,3.309,3.309,3.309,3.309,3.309,3.309,3.309,3.309,3.309,3.309,3.309,3.309,3.309,3.309,3.309,3.2677,3.151,3.2234,3.1969,2.9693,3.0482,3.0616,2.9352,2.9236,2.817,2.5761,2.5698,2.5693,2.5693,2.5693,2.5693,2.5693,2.6172,2.6602,2.7031,2.7487,2.7917,2.8354,2.9697,2.977,2.9023,3.2169,3.3312,3.298,3.3064,3.2236,3.0898,3.0898,3.0898,3.0898,3.0898,3.1152,3.1552,1.5808,1.6197,1.641,1.5903,1.6221,1.6551,1.6551,1.6728,1.7032,1.7518,1.9122,2.0269,2.0446,2.1658,2.2493,2.2667,2.3411,2.3884,2.3884,2.3649,2.3535,2.3535,2.3259,2.3101,2.3101,2.3101,2.3101,2.3101,2.3101,2.3101,2.3101,2.3101,2.3101,2.3101,2.3101,2.3259,2.3535,2.3535,2.3649,2.3903,2.4079,2.416,2.4219,2.4648,2.4828,2.4844,2.5093,2.5289,2.5469,2.5469,2.5638,2.602,2.7006,2.7959,2.8899,2.9852,3.0485,3.1023,3.1755,3.1952,3.2152,3.2918,3.309,3.309,3.309,3.309,3.309,3.309,3.309,3.309,3.309,3.309,3.309,3.309,3.309,3.2828,3.2086,3.2612,3.2373,3.035,3.0575,3.0215,2.8495,2.875,2.8518,2.7271,2.7885,2.7885,2.6887,2.611,2.5693,2.5693,2.5693,2.5835,2.6133,2.6543,2.6973,2.7448,2.7858,2.8125,2.8327,2.8847,2.9172,2.9474,3.1902,3.2497,3.1854,3.2729,3.2236,3.0898,3.0898,3.0898,3.0918,3.1172,3.1543,3.1973,1.5808,1.5808,1.5835,1.5915,1.5965,1.5968,1.6048,1.6273,1.6417,1.6417,1.8055,1.9278,1.9471,2.1053,2.218,2.2398,2.363,2.4391,2.4391,2.4141,2.3965,2.3965,2.3649,2.3435,2.3318,2.3298,2.324,2.3101,2.3101,2.3101,2.3101,2.3101,2.3159,2.3298,2.3298,2.3574,2.3965,2.3965,2.4141,2.441,2.4551,2.4609,2.4648,2.5121,2.5297,2.5312,2.5601,2.5693,2.5693,2.5693,2.5693,2.5844,2.6764,2.7292,2.7838,2.905,2.9647,3.0192,3.1422,3.1755,3.1952,3.2896,3.309,3.309,3.309,3.309,3.309,3.309,3.309,3.309,3.309,3.309,3.309,3.309,3.309,3.2785,3.1887,3.2217,3.1887,3.0124,2.992,2.9326,2.7744,2.826,2.7981,2.638,2.7078,2.7458,2.7054,2.6183,2.5693,2.5693,2.5693,2.5913,2.6412,2.6797,2.7226,2.7702,2.8112,2.8301,2.8301,2.8582,2.909,2.9878,3.1793,3.1958,3.0995,3.2501,3.2236,3.0898,3.0898,3.0957,3.1113,3.1406,3.1875,3.2433,1.5808,1.5808,1.5901,1.6244,1.6297,1.6391,1.6647,1.67,1.67,1.67,1.7768,1.8518,1.8518,2.0834,2.2392,2.2392,2.363,2.4391,2.4391,2.4391,2.4391,2.4391,2.4391,2.4199,2.3789,2.3789,2.3574,2.3101,2.3101,2.3101,2.3101,2.3101,2.3357,2.3789,2.3789,2.4023,2.4391,2.4391,2.4391,2.443,2.4906,2.5082,2.5141,2.5542,2.5674,2.5674,2.5693,2.5693,2.5693,2.5693,2.5693,2.5693,2.5718,2.6596,2.7838,2.905,3.0237,3.1444,3.272,3.3068,3.3068,3.309,3.309,3.309,3.309,3.309,3.309,3.309,3.309,3.309,3.309,3.309,3.309,3.309,3.309,3.309,3.3068,3.2021,3.1223,3.1178,3.1178,3.0237,2.7838,2.9761,3.0147,2.7744,2.76,2.7054,2.5791,2.5718,2.5693,2.5693,2.5693,2.5913,2.6412,2.6797,2.7226,2.7702,2.8112,2.8301,2.832,2.9188,2.9813,3.03,3.2246,3.2244,3.0995,3.2501,3.2236,3.0898,3.0898,3.1152,3.1474,3.1494,3.2051,3.2793,1.6393,1.6408,1.646,1.6553,1.6567,1.6593,1.6687,1.6874,1.7033,1.7033,1.7527,1.7882,1.7882,2.0826,2.258,2.1966,2.3979,2.5289,2.5289,2.5019,2.4887,2.4887,2.457,2.4332,2.4196,2.4219,2.4141,2.3981,2.3981,2.3981,2.3981,2.3981,2.4059,2.4219,2.4219,2.4453,2.4887,2.4887,2.5039,2.5308,2.5445,2.5503,2.5523,2.5659,2.5693,2.5693,2.5693,2.5693,2.5693,2.5693,2.5693,2.5693,2.5693,2.5965,2.638,2.6768,2.7152,2.791,3.0011,3.0575,3.0978,3.2677,3.309,3.309,3.309,3.309,3.309,3.309,3.309,3.309,3.309,3.309,3.309,3.309,3.309,3.281,3.1931,3.2196,3.1557,2.905,2.9464,2.9005,2.6548,2.7006,2.7128,2.6356,2.6284,2.65,2.6959,2.6183,2.5693,2.5693,2.601,2.6387,2.6816,2.7246,2.7702,2.8112,2.8223,2.8437,2.873,2.9344,2.9833,3.03,3.2267,3.2264,3.0995,3.2501,3.2236,3.0898,3.0898,3.1152,3.1562,3.1855,3.2324,3.2832,1.6673,1.67,1.674,1.6886,1.6899,1.6914,1.7021,1.722,1.7341,1.7341,1.7501,1.7608,1.7608,2.0071,2.1512,2.0941,2.3384,2.4947,2.4947,2.5204,2.5312,2.5312,2.5035,2.4801,2.4668,2.4668,2.459,2.4391,2.4391,2.4391,2.4391,2.4391,2.4489,2.4668,2.4668,2.4902,2.5312,2.5312,2.5488,2.5693,2.5693,2.5693,2.5693,2.5693,2.5693,2.5693,2.5693,2.5693,2.5693,2.5693,2.5693,2.5693,2.5693,2.5693,2.5791,2.6279,2.672,2.7531,2.9533,3.044,3.1156,3.2698,3.309,3.309,3.309,3.309,3.309,3.309,3.309,3.309,3.309,3.309,3.309,3.309,3.309,3.2806,3.2042,3.2196,3.1534,2.9235,2.9235,2.8611,2.662,2.6404,2.6231,2.5742,2.5693,2.6062,2.6839,2.6135,2.5796,2.5952,2.625,2.668,2.7246,2.7545,2.7897,2.8301,2.8457,2.875,2.9207,3.0203,3.0874,3.1402,3.3177,3.3077,3.1796,3.2729,3.2236,3.0918,3.1055,3.1387,3.1816,3.2276,3.2676,3.3066,1.6767,1.6767,1.6847,1.7179,1.7233,1.7301,1.7568,1.7608,1.7608,1.7608,1.7608,1.7608,1.7608,1.8708,1.9498,1.9602,2.2114,2.3683,2.3683,2.4971,2.5693,2.5693,2.5693,2.5523,2.5141,2.5141,2.4945,2.4489,2.4489,2.4489,2.4489,2.4489,2.4727,2.5141,2.5141,2.5352,2.5693,2.5693,2.5693,2.5693,2.5693,2.5693,2.5693,2.5693,2.5693,2.5693,2.5693,2.5693,2.5693,2.5693,2.5693,2.5693,2.5693,2.5693,2.5917,2.7125,2.8262,2.9396,3.0619,3.1821,3.2745,3.2831,3.2918,3.2982,3.3068,3.309,3.309,3.309,3.309,3.309,3.309,3.309,3.309,3.309,3.309,3.309,3.309,3.2086,3.1311,3.1223,3.0192,2.905,2.7838,2.772,2.7197,2.5917,2.582,2.5815,2.5757,2.5757,2.5952,2.6412,2.647,2.6881,2.7682,2.7721,2.7956,2.834,2.873,2.916,2.9713,3.1448,3.2497,3.3021,3.4515,3.4292,3.2964,3.3049,3.2256,3.0976,3.1367,3.1797,3.2296,3.2656,3.3066,3.3386,1.7354,1.7394,1.7421,1.7488,1.7501,1.7528,1.7595,1.7608,1.7608,1.7608,1.7608,1.7608,1.7608,1.7884,1.8473,1.9498,2.2114,2.3683,2.3683,2.4971,2.5693,2.5693,2.5693,2.5659,2.5562,2.5562,2.5503,2.5382,2.5382,2.5382,2.5382,2.5382,2.5464,2.5562,2.5562,2.562,2.5693,2.5693,2.5693,2.5693,2.5693,2.5693,2.5693,2.5693,2.5693,2.5693,2.5693,2.5693,2.5693,2.5693,2.5693,2.5693,2.5693,2.5693,2.5766,2.6062,2.6356,2.6839,2.8098,2.868,2.912,3.0056,3.0978,3.1887,3.2896,3.309,3.309,3.309,3.309,3.309,3.309,3.309,3.309,3.309,3.309,3.309,3.309,3.2853,3.2283,3.1311,3.0956,3.0282,2.9096,2.8981,2.8471,2.7244,2.7149,2.6882,2.626,2.623,2.6289,2.6412,2.7057,2.7487,2.7702,2.8015,2.8359,2.8769,2.884,2.9316,3.0087,3.0534,3.0974,3.1498,3.2964,3.2786,3.1527,3.2644,3.2391,3.1387,3.1455,3.1973,3.2656,3.2754,3.3066,3.3386,1.7582,1.7608,1.7608,1.7608,1.7608,1.7622,1.7769,1.7796,1.7849,1.7983,1.8023,1.8023,1.8023,1.8023,1.8306,1.9015,2.137,2.3043,2.3658,2.4971,2.5693,2.5693,2.5693,2.5693,2.5693,2.5693,2.5693,2.5693,2.5693,2.5693,2.5693,2.5693,2.5693,2.5693,2.5693,2.5693,2.5693,2.5693,2.5693,2.5693,2.5693,2.5693,2.5693,2.5693,2.5693,2.5693,2.5693,2.5693,2.5713,2.5952,2.601,2.605,2.6245,2.6303,2.6303,2.6303,2.6428,2.6716,2.741,2.8002,2.8704,2.992,3.1156,3.2261,3.2939,3.309,3.309,3.309,3.309,3.309,3.309,3.309,3.309,3.309,3.309,3.309,3.309,3.309,3.2633,3.1356,3.1201,3.0732,2.9533,2.9396,2.9231,2.8822,2.8227,2.779,2.76,2.7798,2.7618,2.7024,2.7448,2.778,2.7976,2.8807,2.912,2.8926,2.9759,3.017,3.0252,3.183,3.2678,3.2985,3.4487,3.4264,3.2928,3.3049,3.2472,3.1513,3.1738,3.2226,3.2812,3.3008,3.3191,3.3386,1.7742,1.7742,1.7742,1.7742,1.7742,1.7809,1.8049,1.8089,1.8183,1.8464,1.849,1.849,1.849,1.849,1.8574,1.8781,2.0461,2.1969,2.3073,2.4603,2.5439,2.5406,2.5577,2.5693,2.5693,2.5693,2.5693,2.5693,2.5693,2.5693,2.5693,2.5693,2.5693,2.5693,2.5693,2.5693,2.5693,2.5693,2.5693,2.5693,2.5693,2.5693,2.5718,2.5776,2.5815,2.5815,2.5874,2.5913,2.5971,2.6348,2.6484,2.6543,2.6894,2.6986,2.6986,2.6986,2.7236,2.7523,2.7523,2.8406,2.9666,3.1102,3.2286,3.3124,3.3298,3.3341,3.3341,3.3341,3.3341,3.3341,3.3341,3.3341,3.3316,3.3241,3.3215,3.319,3.3115,3.309,3.2698,3.1623,3.156,3.1208,3.0193,3.0148,3.0308,3.06,2.9536,2.9077,2.9398,2.9602,2.9214,2.8146,2.8074,2.8167,2.8281,2.9706,2.9925,2.9023,3.0854,3.1222,3.0427,3.3534,3.4847,3.4709,3.6433,3.619,3.4564,3.3593,3.2554,3.166,3.212,3.255,3.293,3.325,3.3386,3.3386,1.8343,1.8343,1.8343,1.8343,1.8343,1.837,1.841,1.8424,1.8437,1.8477,1.849,1.849,1.849,1.849,1.8975,2.007,2.0482,2.0677,2.0667,2.2972,2.4245,2.4016,2.5094,2.5693,2.5693,2.5693,2.5693,2.5693,2.5693,2.5693,2.5693,2.5693,2.5693,2.5693,2.5693,2.5693,2.5693,2.5693,2.5693,2.5693,2.5693,2.5693,2.5732,2.6152,2.6289,2.6328,2.668,2.6791,2.6811,2.6869,2.6914,2.6934,2.6992,2.6986,2.6986,2.6986,2.7041,2.7075,2.7075,2.8061,2.964,3.2043,3.2786,3.32,3.4202,3.4452,3.4452,3.4452,3.4452,3.4452,3.4452,3.4452,3.4276,3.3847,3.3771,3.3621,3.3165,3.309,3.3025,3.2831,3.3208,3.3416,3.3217,3.359,3.35,3.2557,3.2277,3.1897,3.1308,3.0274,2.9773,2.9891,2.9886,2.9379,2.8308,3.0093,3.0477,2.95,3.1381,3.1769,3.0839,3.2631,3.2758,3.171,3.4459,3.4118,3.1692,3.3037,3.3023,3.214,3.257,3.2949,3.3289,3.3367,3.3386,3.3386,1.849,1.849,1.849,1.849,1.849,1.8544,1.8704,1.8731,1.8784,1.8973,1.8986,1.8986,1.8986,1.8986,1.9242,1.9864,2.0622,2.0975,2.0701,2.3075,2.4787,2.5459,2.6081,2.6401,2.6401,2.6186,2.6094,2.6094,2.5835,2.5693,2.5693,2.5693,2.5693,2.5693,2.5693,2.5693,2.5737,2.5971,2.6094,2.6113,2.6303,2.6401,2.642,2.6641,2.6719,2.6758,2.6928,2.6986,2.7051,2.7285,2.7389,2.7402,2.7637,2.7695,2.7695,2.7715,2.7383,2.6986,2.6986,2.7935,2.9341,3.133,3.2301,3.3142,3.4406,3.4703,3.4703,3.4703,3.4703,3.4703,3.4703,3.4703,3.4628,3.4352,3.4327,3.4226,3.3997,3.3972,3.3972,3.3972,3.4198,3.4327,3.4327,3.4552,3.4576,3.432,3.3644,3.3196,3.3179,3.2563,3.1957,3.1393,2.999,2.9424,2.978,3.1422,3.2264,3.2317,3.393,3.4197,3.3325,3.482,3.4681,3.3353,3.4709,3.4192,3.24,3.2507,3.2535,3.2519,3.2715,3.3047,3.3386,3.3386,3.3386,3.3386,1.8719,1.8719,1.8719,1.8719,1.8719,1.8771,1.8985,1.9025,1.9105,1.9361,1.9401,1.9401,1.9401,1.9401,1.9533,1.9866,2.0945,2.1805,2.2296,2.4061,2.5543,2.6481,2.6833,2.6986,2.6986,2.6699,2.6543,2.6543,2.6167,2.601,2.601,2.601,2.601,2.601,2.601,2.601,2.603,2.6387,2.6543,2.6562,2.6894,2.6986,2.7006,2.7129,2.7168,2.7187,2.7285,2.7305,2.7363,2.7721,2.7839,2.7897,2.8184,2.8301,2.8301,2.8301,2.7832,2.7356,2.7671,2.8421,2.9558,3.1282,3.2414,3.3455,3.478,3.5102,3.5102,3.5102,3.5102,3.5102,3.5102,3.5102,3.5029,3.4904,3.4904,3.4853,3.4728,3.4703,3.4703,3.4703,3.4803,3.4904,3.4904,3.5004,3.5255,3.5682,3.4767,3.439,3.4824,3.4581,3.3819,3.2561,3.0501,2.9952,3.1079,3.3057,3.423,3.463,3.613,3.633,3.5343,3.646,3.619,3.4792,3.4875,3.4267,3.3123,3.2177,3.2207,3.2812,3.291,3.3144,3.3386,3.3386,3.3386,3.3386,1.9334,1.9334,1.9334,1.9334,1.9334,1.9334,1.9361,1.9361,1.9374,1.9388,1.9401,1.9401,1.9401,1.9401,1.9953,2.1301,2.1529,2.277,2.5555,2.5919,2.5738,2.517,2.6352,2.6986,2.6986,2.6967,2.6973,2.6973,2.6908,2.6889,2.6889,2.6889,2.6889,2.6889,2.6889,2.6889,2.6889,2.6928,2.6973,2.6973,2.6986,2.6986,2.7051,2.7487,2.7643,2.7702,2.8066,2.8203,2.8203,2.8242,2.8242,2.8262,2.8281,2.8301,2.8301,2.8301,2.8242,2.8476,2.9704,3.0119,3.082,3.3483,3.4218,3.4631,3.5972,3.6256,3.6256,3.6256,3.6256,3.6256,3.6256,3.6256,3.6105,3.5533,3.5433,3.5257,3.4778,3.4703,3.4703,3.4703,3.5132,3.5433,3.5433,3.5931,3.6281,3.6331,3.6235,3.6213,3.6263,3.5066,3.4008,3.3154,3.2945,3.2271,3.1106,3.4703,3.5867,3.4603,3.653,3.6684,3.5288,3.5398,3.4653,3.3297,3.3662,3.2994,3.1711,3.2424,3.2734,3.2832,3.3223,3.3367,3.3386,3.3386,3.3386,3.3386,1.9401,1.9401,1.9401,1.9401,1.9401,1.9401,1.9401,1.9401,1.9401,1.9401,1.9401,1.9401,1.9401,1.9401,1.962,2.0199,2.1059,2.2476,2.4544,2.5563,2.638,2.7009,2.753,2.7812,2.7812,2.7559,2.7448,2.7448,2.7148,2.6986,2.6986,2.6986,2.6986,2.6986,2.6986,2.6986,2.7006,2.7305,2.7448,2.7467,2.7695,2.7812,2.7832,2.7988,2.8073,2.8093,2.8242,2.8301,2.8301,2.8301,2.8301,2.8301,2.8301,2.8301,2.8301,2.8301,2.8301,2.8415,2.8926,2.9059,2.9723,3.2429,3.3105,3.3675,3.5906,3.6405,3.6405,3.6405,3.6405,3.6405,3.6405,3.6405,3.6306,3.6081,3.6056,3.5981,3.5778,3.5753,3.5753,3.5753,3.5931,3.6056,3.6056,3.6256,3.6405,3.6405,3.6405,3.6405,3.6405,3.6228,3.5769,3.4965,3.6108,3.6046,3.4651,3.6064,3.712,3.7768,3.8511,3.8582,3.8005,3.7103,3.6541,3.6291,3.5517,3.4666,3.3837,3.4135,3.3869,3.3203,3.3328,3.3386,3.3386,3.3386,3.3386,3.3386,1.9401,1.9401,1.9401,1.9401,1.9401,1.9401,1.9401,1.9401,1.9401,1.9401,1.9401,1.9401,1.9401,1.9401,1.9591,2.0068,2.1458,2.2927,2.4433,2.5964,2.7249,2.8274,2.8301,2.8301,2.8301,2.8034,2.7897,2.7897,2.7559,2.7422,2.7422,2.7422,2.7422,2.7422,2.7422,2.7422,2.7441,2.7761,2.7897,2.7917,2.8184,2.8301,2.8301,2.8301,2.8301,2.8301,2.8301,2.8301,2.8301,2.8301,2.8301,2.8301,2.8301,2.8301,2.8301,2.8301,2.8301,2.8301,2.8301,2.8301,2.8953,3.1622,3.2306,3.3007,3.5762,3.6405,3.6405,3.6405,3.6405,3.6405,3.6405,3.6405,3.6405,3.6405,3.6405,3.6405,3.6405,3.6405,3.6405,3.6405,3.6405,3.6405,3.6405,3.6405,3.6405,3.6405,3.6557,3.6708,3.6884,3.7436,3.7494,3.6935,3.8363,3.8686,3.7711,3.7711,3.8371,3.9697,3.9697,3.9697,3.9671,3.8359,3.7689,3.75,3.6849,3.578,3.4511,3.5151,3.4605,3.3386,3.3386,3.3386,3.3386,3.3386,3.3386,3.3386,1.9401,1.9401,1.9401,1.9401,1.9401,1.9401,1.9401,1.9401,1.9401,1.9401,1.9401,1.9401,1.9401,1.9401,1.9982,2.1472,2.2927,2.4433,2.5991,2.7465,2.8301,2.8301,2.8301,2.8301,2.8301,2.8301,2.8301,2.8301,2.8301,2.8301,2.8301,2.8301,2.8301,2.8301,2.8301,2.8301,2.8301,2.8301,2.8301,2.8301,2.8301,2.8301,2.8301,2.8301,2.8301,2.8301,2.8301,2.8301,2.8301,2.8301,2.8301,2.8301,2.8301,2.8301,2.8301,2.8301,2.8301,2.8301,2.8301,2.8301,2.8953,3.1622,3.228,3.3007,3.5763,3.6381,3.6405,3.6405,3.6405,3.6405,3.6405,3.6405,3.6405,3.6405,3.6405,3.6405,3.6405,3.6405,3.6405,3.6405,3.6405,3.6405,3.6405,3.6405,3.6405,3.6406,3.6909,3.7437,3.799,3.8592,3.8894,3.8894,3.9421,3.9697,3.9697,3.9697,3.9697,3.9697,3.9697,3.9697,3.9671,3.8747,3.7445,3.6016,3.7138,3.5793,3.3018,3.4995,3.484,3.3386,3.3386,3.3386,3.3386,3.3386,3.3386,3.3386,1.9401,1.9401,1.9401,1.9401,1.9401,1.9401,1.9401,1.9401,1.9401,1.9401,1.9401,1.9401,1.9401,1.9401,1.9982,2.1472,2.2011,2.3347,2.5936,2.7465,2.8301,2.8301,2.8301,2.8301,2.8301,2.8301,2.8301,2.8301,2.8301,2.8301,2.8301,2.8301,2.8301,2.8301,2.8301,2.8301,2.8301,2.8301,2.8301,2.8301,2.8301,2.8301,2.8301,2.8301,2.8301,2.8301,2.8301,2.8301,2.8301,2.8301,2.8301,2.8301,2.8301,2.8301,2.8301,2.8301,2.8301,2.8301,2.8301,2.8301,2.8734,3.0463,3.1596,3.2758,3.4581,3.5715,3.6405,3.6405,3.6405,3.6405,3.6405,3.6405,3.6405,3.6405,3.6405,3.6405,3.6405,3.6405,3.6405,3.6405,3.6405,3.6556,3.6934,3.6959,3.7135,3.7487,3.7663,3.8015,3.8617,3.8793,3.907,3.9446,3.9622,3.9697,3.9697,3.9697,3.9697,3.9697,3.9697,3.9898,4.0222,3.8916,3.9049,4.0293,3.9575,3.8241,3.6648,3.7229,3.5888,3.3386,3.3386,3.3386,3.3386,3.3386,3.3386,3.3386,1.9548,1.9562,1.9573,1.9693,1.9706,1.9706,1.9706,1.9706,1.9706,1.9706,1.9706,1.9706,1.9706,2.0143,2.0801,2.1694,2.2752,2.4139,2.5991,2.7465,2.8301,2.8301,2.8301,2.8301,2.8301,2.8301,2.8301,2.8301,2.8301,2.8301,2.8301,2.8301,2.8301,2.8301,2.8301,2.8301,2.8301,2.8301,2.8301,2.8301,2.8301,2.8301,2.8301,2.8301,2.8301,2.8301,2.8301,2.8301,2.8301,2.8301,2.8398,2.8535,2.8535,2.8652,2.8789,2.8789,2.8789,2.8789,2.8789,2.8789,2.9006,2.9829,3.0763,3.2003,3.3945,3.5017,3.5763,3.6287,3.6405,3.6405,3.6405,3.6405,3.648,3.6683,3.6708,3.6783,3.7009,3.7034,3.7034,3.7034,3.7034,3.716,3.7487,3.7513,3.7739,3.8316,3.8341,3.8592,3.9195,3.922,3.9371,3.9697,3.9697,3.9697,3.9697,3.9898,4.0023,4.0023,4.0023,4.03,4.0799,4.0144,4.0367,4.1198,4.0551,3.9099,3.7243,3.7243,3.5735,3.3386,3.3386,3.3386,3.3386,3.3386,3.3386,3.3386,1.9786,1.984,1.992,2.0157,2.0197,2.0197,2.0197,2.0197,2.0197,2.0197,2.0197,2.0197,2.0197,2.1167,2.1876,2.2022,2.4581,2.6208,2.6208,2.7598,2.8418,2.8418,2.8418,2.8418,2.8418,2.834,2.8301,2.8301,2.8301,2.8301,2.8301,2.8301,2.8301,2.8301,2.8301,2.8301,2.8301,2.8301,2.8301,2.8301,2.8301,2.8301,2.8301,2.8301,2.832,2.834,2.834,2.8379,2.8418,2.8418,2.8652,2.8957,2.8957,2.9258,2.9598,2.9598,2.9598,2.9598,2.9598,2.9598,2.9598,2.9598,3.0032,3.1133,3.3764,3.4553,3.5066,3.6294,3.6532,3.6532,3.6532,3.6532,3.6708,3.721,3.7286,3.7437,3.7939,3.8015,3.8015,3.8015,3.8015,3.8015,3.809,3.8115,3.8366,3.8919,3.8969,3.9195,3.9672,3.9697,3.9697,3.9697,3.9697,3.9722,3.9772,4.0275,4.0499,4.0499,4.0549,4.0851,4.1403,4.1959,4.1416,4.0124,4.0435,3.8853,3.602,3.5867,3.484,3.3386,3.3386,3.3386,3.3386,3.3386,3.3386,3.3386,2.0104,2.0104,2.013,2.0197,2.0197,2.0197,2.0197,2.0197,2.0197,2.0197,2.0197,2.0197,2.0197,2.0432,2.1068,2.2275,2.5163,2.687,2.687,2.8425,2.9324,2.9324,2.9324,2.9324,2.9324,2.866,2.8301,2.8301,2.8301,2.8301,2.8301,2.8301,2.8301,2.8301,2.8301,2.8301,2.8301,2.8301,2.8301,2.8301,2.8301,2.8301,2.8301,2.8301,2.8496,2.8789,2.8789,2.9004,2.9324,2.9324,2.9383,2.9461,2.9461,2.952,2.9598,2.9598,2.9598,2.9598,2.9598,2.9598,2.9598,2.9598,3.0553,3.1907,3.3548,3.5625,3.7295,3.7589,3.7638,3.7638,3.7638,3.7638,3.7688,3.7814,3.7839,3.7864,3.799,3.8015,3.8015,3.8015,3.8015,3.8191,3.8668,3.9069,3.9396,3.9522,3.9547,3.9572,3.9697,3.9697,3.9697,3.9697,3.9697,3.9898,4.0299,4.0424,4.0499,4.0499,4.0926,4.1455,4.2009,4.2135,4.2246,4.223,4.1114,3.9493,3.7574,3.6304,3.484,3.3386,3.3386,3.3386,3.3386,3.3386,3.3386,3.3386,2.0414,2.0441,2.0481,2.0597,2.0624,2.0624,2.0624,2.0624,2.0624,2.0624,2.0624,2.0624,2.0624,2.1152,2.2075,2.3535,2.5753,2.7122,2.7179,2.869,2.9598,2.9598,2.9598,2.9598,2.9598,2.9149,2.8933,2.8933,2.8933,2.8933,2.8933,2.8933,2.8933,2.8933,2.8933,2.8933,2.8933,2.8933,2.8933,2.8933,2.8933,2.8933,2.8933,2.8933,2.9043,2.9219,2.9219,2.9403,2.9598,2.9598,2.9735,2.9891,2.9891,3.0048,3.0224,3.0224,3.0224,3.0224,3.0224,3.0224,3.0395,3.1091,3.2392,3.353,3.3736,3.5474,3.7244,3.7866,3.8015,3.8015,3.8015,3.8015,3.809,3.8366,3.8417,3.8517,3.8768,3.8818,3.8818,3.8818,3.8818,3.8919,3.9245,3.9547,3.9697,3.9697,3.9697,3.9697,3.9697,3.9697,3.9823,4.0074,4.0099,4.035,4.0876,4.1178,4.1304,4.1304,4.158,4.2034,4.2587,4.2587,4.2323,4.1785,4.0158,3.8528,3.6933,3.5304,3.4164,3.3386,3.3386,3.3386,3.3386,3.3386,3.3386,3.3386,2.0695,2.0779,2.0828,2.1069,2.1109,2.1109,2.1109,2.1109,2.1109,2.1109,2.1109,2.1109,2.1109,2.2269,2.346,2.458,2.629,2.7377,2.7481,2.8946,2.9813,2.9813,2.9813,2.9813,2.9813,2.9813,2.9755,2.9598,2.9598,2.9598,2.9598,2.9598,2.9598,2.9598,2.9598,2.9598,2.9598,2.9598,2.9598,2.9598,2.9598,2.9598,2.9598,2.9598,2.9637,2.9696,2.9696,2.9755,2.9813,2.9813,3.0019,3.0312,3.0312,3.0586,3.0898,3.0898,3.0898,3.0898,3.0898,3.0898,3.1199,3.2416,3.4013,3.5087,3.4258,3.5393,3.696,3.8042,3.8291,3.8291,3.8291,3.8291,3.8442,3.8969,3.9044,3.9195,3.9622,3.9697,3.9697,3.9697,3.9697,3.9697,3.9697,3.9697,3.9697,3.9697,3.9697,3.9747,3.9823,3.9848,4.0099,4.0625,4.0625,4.0901,4.1453,4.1959,4.2263,4.2363,4.2363,4.2562,4.3014,4.3014,4.2121,4.0505,3.8905,3.7295,3.5683,3.4039,3.3386,3.3386,3.3386,3.3386,3.3386,3.3386,3.3386,3.3386,2.1042,2.1056,2.1069,2.1096,2.1109,2.1109,2.1109,2.1109,2.1109,2.1109,2.1109,2.1109,2.1109,2.2548,2.3577,2.3748,2.6516,2.8234,2.8264,2.9791,3.0703,3.0703,3.0703,3.0703,3.0703,3.0703,3.0332,2.9598,2.9598,2.9598,2.9598,2.9598,2.9598,2.9598,2.9598,2.9598,2.9598,2.9598,2.9598,2.9598,2.9598,2.9598,2.9598,2.9598,2.9833,3.0117,3.0117,3.0371,3.0703,3.0703,3.0762,3.0801,3.0801,3.084,3.0898,3.0898,3.0898,3.0898,3.0898,3.0898,3.0957,3.1141,3.3268,3.5266,3.5131,3.721,3.924,3.9445,3.9471,3.9471,3.9471,3.9471,3.9496,3.9572,3.9572,3.9622,3.9697,3.9697,3.9697,3.9697,3.9697,3.9697,3.9697,3.9697,3.9697,3.9697,3.9697,3.9898,4.0375,4.04,4.0625,4.1177,4.1202,4.1505,4.206,4.2162,4.2411,4.2889,4.2889,4.2939,4.3014,4.3014,4.2121,4.0505,3.8905,3.7295,3.5683,3.4039,3.3386,3.3386,3.3386,3.3386,3.3386,3.3386,3.3386,3.3386,2.1109,2.1109,2.1109,2.1109,2.1109,2.1109,2.1109,2.1109,2.1109,2.1109,2.1109,2.1109,2.1109,2.2591,2.4332,2.6122,2.7572,2.8783,2.9737,3.048,3.0898,3.0898,3.0898,3.0898,3.0898,3.0898,3.0703,3.0341,3.0341,3.0341,3.0341,3.0341,3.0341,3.0341,3.0341,3.0341,3.0341,3.0341,3.0341,3.0341,3.0341,3.0341,3.0341,3.0341,3.0458,3.0586,3.0586,3.0723,3.0898,3.0898,3.0898,3.0898,3.0898,3.0898,3.0898,3.0898,3.0898,3.0898,3.0898,3.0898,3.1112,3.194,3.3106,3.4515,3.6162,3.753,3.8687,3.9517,3.9697,3.9697,3.9697,3.9697,3.9697,3.9697,3.9697,3.9697,3.9697,3.9697,3.9697,3.9697,3.9697,3.9697,3.9697,3.9697,3.9823,4.0124,4.0149,4.0374,4.0926,4.0951,4.1202,4.1781,4.1781,4.2057,4.2637,4.2637,4.2763,4.3014,4.3014,4.3014,4.3014,4.3014,4.1643,3.9229,3.8521,3.6781,3.4414,3.3682,3.3386,3.3386,3.3386,3.3386,3.3386,3.3386,3.3386,3.3386]},{"header":{"parameterUnit":"m.s-1","parameterCategory":1,"la1":30.6,"la2":28.766,"lo1":-90.7593,"lo2":-88.6598,"dy":0.0162,"dx":0.0183,"nx":116,"ny":114,"refTime":"2023-10-30T06:00:00:Z","depth":0,"parameterNumber":3,"parameterNumberName":"V-component_of_WINDS"},"data":[0.0,0.0,0.0,0.0,0.0,0.0,0.0,0.0,0.0,0.0,0.0,0.0,0.0,0.0,0.0,0.0,0.0,0.0,0.0,0.0,0.0,0.0,0.0,0.0,0.0,0.0,0.0,0.0,0.0,0.0,0.0,0.0,0.0,0.0,0.0,0.0,0.0,0.0,0.0,0.0,0.0,0.0,0.0,0.0,0.0,0.0,0.0,0.0,0.0,0.0,0.0,0.0,0.0,0.0,0.0,0.0,0.0,0.0,0.0,0.0,0.0,0.0,0.0,0.0,0.0,0.0,0.0,0.0,0.0,0.0,0.0,0.0,0.0,0.0,0.0,0.0,0.0,0.0,0.0,0.0,0.0,0.0,0.0,0.0,0.0,0.0,0.0,0.0,0.0,0.0,0.0,0.0,0.0,0.0,0.0,0.0,0.0,0.0,0.0,0.0,0.0,0.0,0.0,0.0,0.0,0.0,0.0,0.0,0.0,0.0,0.0,0.0,0.0,0.0,0.0,0.0,0.0,0.0,0.0,0.0,0.0,0.0,0.0,0.0,0.0,0.0,0.0,0.0,0.0,0.0,0.0,0.0,0.0,0.0,0.0,0.0,0.0,0.0,0.0,0.0,0.0,0.0,0.0,0.0,0.0,0.0,0.0,0.0,0.0,0.0,0.0,0.0,0.0,0.0,0.0,0.0,0.0,0.0,0.0,0.0,0.0,0.0,0.0,0.0,0.0,0.0,0.0,0.0,0.0,0.0,0.0,0.0,0.0,0.0,0.0,0.0,0.0,0.0,0.0,0.0,0.0,0.0,0.0,0.0,0.0,0.0,0.0,0.0,0.0,0.0,0.0,0.0,0.0,0.0,0.0,0.0,0.0,0.0,0.0,0.0,0.0,0.0,0.0,0.0,0.0,0.0,0.0,0.0,0.0,0.0,0.0,0.0,0.0,0.0,0.0,0.0,0.0,0.0,0.0,0.0,0.0,0.0,0.0,0.0,0.0,0.0,0.0,0.0,0.0,0.0,0.0,0.0,0.0,0.0,0.0,0.0,0.0,0.0,0.0,0.0,0.0,0.0,0.0,0.0,0.0,0.0,0.0,0.0,0.0,0.0,0.0,0.0,0.0,0.0,0.0,0.0,0.0,0.0,0.0,0.0,0.0,0.0,0.0,0.0,0.0,0.0,0.0,0.0,0.0,0.0,0.0,0.0,0.0,0.0,0.0,0.0,0.0,0.0,0.0,0.0,0.0,0.0,0.0,0.0,0.0,0.0,0.0,0.0,0.0,0.0,0.0,0.0,0.0,0.0,0.0,0.0,0.0,0.0,0.0,0.0,0.0,0.0,0.0,0.0,0.0,0.0,0.0,0.0,0.0,0.0,0.0,0.0,0.0,0.0,0.0,0.0,0.0,0.0,0.0,0.0,0.0,0.0,0.0,0.0,0.0,0.0,0.0,0.0,0.0,0.0,0.0,0.0,0.0,0.0,0.0,0.0,0.0,0.0,0.0,0.0,0.0,0.0,0.0,0.0,0.0,0.0,0.0,0.0,0.0,0.0,0.0,0.0,0.0,0.0,0.0,0.0,0.0,0.0,0.0,0.0,0.0,0.0,0.0,0.0,0.0,0.0,0.0,0.0,0.0,0.0,0.0,0.0,0.0,0.0,0.0,0.0,0.0,0.0,0.0,0.0,0.0,0.0,0.0,0.0,0.0,0.0,0.0,0.0,0.0,0.0,0.0,0.0,0.0,0.0,0.0,0.0,0.0,0.0,0.0,0.0,0.0,0.0,0.0,0.0,0.0,0.0,0.0,0.0,0.0,0.0,0.0,0.0,0.0,0.0,0.0,0.0,0.0,0.0,0.0,0.0,0.0,0.0,0.0,0.0,0.0,0.0,0.0,0.0,0.0,0.0,0.0,0.0,0.0,0.0,0.0,0.0,0.0,0.0,0.0,0.0,0.0,0.0,0.0,0.0,0.0,0.0,0.0,0.0,0.0,0.0,0.0,0.0,0.0,0.0,0.0,0.0,0.0,0.0,0.0,0.0,0.0,0.0,0.0,0.0,0.0,0.0,0.0,0.0,0.0,0.0,0.0,0.0,0.0,0.0,0.0,0.0,0.0,0.0,0.0,0.0,0.0,0.0,0.0,0.0,0.0,0.0,0.0,0.0,0.0,0.0,0.0,0.0,0.0,0.0,0.0,0.0,0.0,0.0,0.0,0.0,0.0,0.0,0.0,0.0,0.0,0.0,0.0,0.0,0.0,0.0,0.0,0.0,0.0,0.0,0.0,0.0,0.0,0.0,0.0,0.0,0.0,0.0,0.0,0.0,0.0,0.0,0.0,0.0,0.0,0.0,0.0,0.0,0.0,0.0,0.0,0.0,0.0,0.0,0.0,0.0,0.0,0.0,0.0,0.0,0.0,0.0,0.0,0.0,0.0,0.0,0.0,0.0,0.0,0.0,0.0,0.0,0.0,0.0,0.0,0.0,0.0,0.0,0.0,0.0,0.0,0.0,0.0,0.0,0.0,0.0,0.0,0.0,0.0,0.0,0.0,0.0,0.0,0.0,0.0,0.0,0.0,0.0,0.0,0.0,0.0,0.0,0.0,0.0,0.0,0.0,0.0,0.0,0.0,0.0,0.0,0.0,0.0,0.0,0.0,0.0,0.0,0.0,0.0,0.0,0.0,0.0,0.0,0.0,0.0,0.0,0.0,0.0,0.0,0.0,0.0,0.0,0.0,0.0,0.0,0.0,0.0,0.0,0.0,0.0,0.0,0.0,0.0,0.0,0.0,0.0,0.0,0.0,0.0,0.0,0.0,0.0,0.0,0.0,0.0,0.0,0.0,0.0,0.0,0.0,0.0,0.0,0.0,0.0,0.0,0.0,0.0,0.0,0.0,0.0,0.0,0.0,0.0,0.0,0.0,0.0,0.0,0.0,0.0,0.0,0.0,0.0,0.0,0.0,0.0,0.0,0.0,0.0,0.0,0.0,0.0,0.0,0.0,0.0,0.0,0.0,0.0,0.0,0.0,0.0,0.0,0.0,0.0,0.0,0.0,0.0,0.0,0.0,0.0,0.0,0.0,0.0,0.0,0.0,0.0,0.0,0.0,0.0,0.0,0.0,0.0,0.0,0.0,0.0,0.0,0.0,0.0,0.0,0.0,0.0,0.0,0.0,0.0,0.0,0.0,0.0,0.0,0.0,0.0,0.0,0.0,0.0,0.0,0.0,0.0,0.0,0.0,0.0,0.0,0.0,0.0,0.0,0.0,0.0,0.0,0.0,0.0,0.0,0.0,0.0,0.0,0.0,0.0,0.0,0.0,0.0,0.0,0.0,0.0,0.0,0.0,0.0,0.0,0.0,0.0,0.0,0.0,0.0,0.0,0.0,0.0,0.0,0.0,0.0,0.0,0.0,0.0,0.0,0.0,0.0,0.0,0.0,0.0,0.0,0.0,0.0,0.0,0.0,0.0,0.0,0.0,0.0,0.0,0.0,0.0,0.0,0.0,0.0,0.0,0.0,0.0,0.0,0.0,0.0,0.0,0.0,0.0,0.0,0.0,0.0,0.0,0.0,0.0,0.0,0.0,0.0,0.0,0.0,0.0,0.0,0.0,0.0,0.0,0.0,0.0,0.0,0.0,0.0,0.0,0.0,0.0,0.0,0.0,0.0,0.0,0.0,0.0,0.0,0.0,0.0,0.0,0.0,0.0,0.0,0.0,0.0,0.0,0.0,0.0,0.0,0.0,0.0,0.0,0.0,0.0,0.0,0.0,0.0,0.0,0.0,0.0,0.0,0.0,0.0,0.0,0.0,0.0,0.0,0.0,0.0,0.0,0.0,0.0,0.0,0.0,0.0,0.0,0.0,0.0,0.0,0.0,0.0,0.0,0.0,0.0,0.0,0.0,0.0,0.0,0.0,0.0,0.0,0.0,0.0,0.0,0.0,0.0,0.0,0.0,0.0,0.0,0.0,0.0,0.0,0.0,0.0,0.0,0.0,0.0,0.0,0.0,0.0,0.0,0.0,0.0,0.0,0.0,0.0,0.0,0.0,0.0,0.0,0.0,0.0,0.0,0.0,0.0,0.0,0.0,0.0,0.0,0.0,0.0,0.0,0.0,0.0,0.0,0.0,0.0,0.0,0.0,0.0,0.0,0.0,0.0,0.0,0.0,0.0,0.0,0.0,0.0,0.0,0.0,0.0,0.0,0.0,0.0,0.0,0.0,0.0,0.0,0.0,0.0,0.0,0.0,0.0,0.0,0.0,0.0,0.0,0.0,0.0,0.0,0.0,0.0,0.0,0.0,0.0,0.0,0.0,0.0,0.0,0.0,0.0,0.0,0.0,0.0,0.0,0.0,0.0,0.0,0.0,0.0,0.0,0.0,0.0,0.0,0.0,0.0,0.0,0.0,0.0,0.0,0.0,0.0,0.0,0.0,0.0,0.0,0.0,0.0,0.0,0.0,0.0,0.0,0.0,0.0,0.0,0.0,0.0,0.0,0.0,0.0,0.0,0.0,0.0,0.0,0.0,0.0,0.0,0.0,0.0,0.0,0.0,0.0,0.0,0.0,0.0,0.0,0.0,0.0,0.0,0.0,0.0,0.0,0.0,0.0,0.0,0.0,0.0,0.0,0.0,0.0,0.0,0.0,0.0,0.0,0.0,0.0,0.0,0.0,0.0,0.0,0.0,0.0,0.0,0.0,0.0,0.0,0.0,0.0,0.0,0.0,0.0,0.0,0.0,0.0,0.0,0.0,0.0,0.0,0.0,0.0,0.0,0.0,0.0,0.0,0.0,0.0,0.0,0.0,0.0,0.0,0.0,0.0,0.0,0.0,0.0,0.0,0.0,0.0,0.0,0.0,0.0,0.0,0.0,0.0,0.0,0.0,0.0,0.0,0.0,0.0,0.0,0.0,0.0,0.0,0.0,0.0,0.0,0.0,0.0,0.0,0.0,0.0,0.0,0.0,0.0,0.0,0.0,0.0,0.0,0.0,0.0,0.0,0.0,0.0,0.0,0.0,0.0,0.0,0.0,0.0,0.0,0.0,0.0,0.0,0.0,0.0,0.0,0.0,0.0,0.0,0.0,0.0,0.0,0.0,0.0,0.0,0.0,0.0,0.0,0.0,0.0,0.0,0.0,0.0,0.0,0.0,0.0,0.0,0.0,0.0,0.0,0.0,0.0,0.0,0.0,0.0,0.0,0.0,0.0,0.0,0.0,0.0,0.0,0.0,0.0,0.0,0.0,0.0,0.0,0.0,0.0,0.0,0.0,0.0,0.0,0.0,0.0,0.0,0.0,0.0,0.0,0.0,0.0,0.0,0.0,0.0,0.0,0.0,0.0,0.0,0.0,0.0,0.0,0.0,0.0,0.0,0.0,0.0,0.0,0.0,0.0,0.0,0.0,0.0,0.0,0.0,0.0,0.0,0.0,0.0,0.0,0.0,0.0,0.0,0.0,0.0,0.0,0.0,0.0,0.0,0.0,0.0,0.0,0.0,0.0,0.0,0.0,0.0,0.0,0.0,0.0,0.0,0.0,0.0,0.0,0.0,0.0,0.0,0.0,0.0,0.0,0.0,0.0,0.0,0.0,0.0,0.0,0.0,0.0,0.0,0.0,0.0,0.0,0.0,0.0,0.0,0.0,0.0,0.0,0.0,0.0,0.0,0.0,0.0,0.0,0.0,0.0,0.0,0.0,0.0,0.0,0.0,0.0,0.0,0.0,0.0,0.0,0.0,0.0,0.0,0.0,0.0,0.0,0.0,0.0,0.0,0.0,0.0,0.0,0.0,0.0,0.0,0.0,0.0,0.0,0.0,0.0,0.0,0.0,0.0,0.0,0.0,0.0,0.0,0.0,0.0,0.0,0.0,0.0,0.0,0.0,0.0,0.0,0.0,0.0,0.0,0.0,0.0,0.0,0.0,0.0,0.0,0.0,0.0,0.0,0.0,0.0,0.0,0.0,0.0,0.0,0.0,0.0,0.0,0.0,0.0,0.0,0.0,0.0,0.0,0.0,0.0,0.0,0.0,0.0,0.0,0.0,0.0,0.0,0.0,0.0,0.0,0.0,0.0,0.0,0.0,0.0,0.0,0.0,0.0,0.0,0.0,0.0,1.5265,1.4463,0.0,0.0,0.0,0.0,0.0,0.0,0.0,0.0,0.0,0.0,0.0,0.0,0.0,0.0,0.0,0.0,0.0,0.0,0.0,0.0,0.0,0.0,0.0,0.0,0.0,0.0,0.0,0.0,0.0,0.0,0.0,0.0,0.0,0.0,0.0,0.0,0.0,0.0,2.361,2.361,2.361,2.361,2.361,2.361,0.0,0.0,0.0,0.0,0.0,0.0,0.0,0.0,0.0,0.0,0.0,0.0,0.0,0.0,0.0,0.0,0.0,0.0,0.0,0.0,0.0,0.0,0.0,0.0,0.0,0.0,0.0,0.0,0.0,0.0,0.0,0.0,0.0,0.0,0.0,0.0,0.0,0.0,0.0,0.0,0.0,0.0,0.0,0.0,0.0,0.0,0.0,0.0,0.0,0.0,0.0,0.0,0.0,0.0,0.0,0.0,0.0,0.0,0.0,0.0,0.0,0.0,0.0,0.0,0.0,0.0,0.0,0.0,0.0,0.0,1.613,1.5484,0.0,0.0,0.0,0.0,0.0,0.0,0.0,0.0,0.0,0.0,0.0,0.0,0.0,0.0,0.0,0.0,0.0,0.0,0.0,0.0,0.0,0.0,0.0,2.2061,2.2313,2.2313,2.2313,2.2185,0.0,0.0,0.0,0.0,0.0,0.0,0.0,2.3879,2.361,2.361,2.361,2.361,2.361,2.361,2.361,2.361,2.361,0.0,0.0,0.0,0.0,0.0,0.0,0.0,0.0,0.0,0.0,0.0,0.0,0.0,0.0,0.0,0.0,0.0,0.0,0.0,0.0,0.0,0.0,0.0,0.0,0.0,0.0,0.0,0.0,0.0,0.0,0.0,0.0,0.0,0.0,0.0,0.0,0.0,0.0,0.0,0.0,0.0,0.0,0.0,0.0,0.0,0.0,0.0,0.0,0.0,0.0,0.0,0.0,0.0,0.0,0.0,0.0,0.0,0.0,0.0,0.0,0.0,0.0,0.0,1.7732,1.7907,1.8223,1.8223,1.8223,1.8149,1.6762,1.6451,1.6889,1.6222,0.0,0.0,0.0,0.0,0.0,0.0,0.0,0.0,0.0,0.0,0.0,0.0,0.0,0.0,0.0,0.0,0.0,0.0,0.0,0.0,0.0,2.2251,2.2313,2.2313,2.2313,2.2535,2.3133,0.0,0.0,0.0,0.0,0.0,2.441,2.3879,2.361,2.361,2.361,2.361,2.361,2.361,2.361,2.361,2.361,2.361,2.3577,0.0,0.0,0.0,0.0,0.0,0.0,0.0,0.0,0.0,0.0,0.0,0.0,0.0,0.0,0.0,0.0,0.0,0.0,0.0,0.0,0.0,0.0,0.0,0.0,0.0,0.0,0.0,0.0,0.0,0.0,0.0,0.0,0.0,0.0,0.0,0.0,0.0,0.0,0.0,0.0,0.0,1.5396,1.5396,0.0,0.0,0.0,0.0,0.0,0.0,0.0,0.0,0.0,0.0,0.0,0.0,0.0,1.801,1.8344,1.8752,1.9002,1.9061,1.9061,1.908,1.9139,1.9139,1.9139,1.9121,1.8895,0.0,1.7815,1.7714,0.0,0.0,0.0,0.0,0.0,0.0,0.0,0.0,0.0,0.0,0.0,0.0,0.0,0.0,0.0,0.0,0.0,0.0,0.0,0.0,0.0,2.2313,2.2313,2.2313,2.2313,2.2624,2.3349,2.352,0.0,0.0,0.0,2.4299,2.441,2.3879,2.361,2.361,2.361,2.361,2.361,2.361,2.361,2.361,2.361,2.361,2.3588,2.3308,0.0,0.0,0.0,0.0,0.0,0.0,0.0,0.0,0.0,0.0,0.0,0.0,0.0,0.0,0.0,0.0,0.0,0.0,0.0,0.0,0.0,0.0,0.0,0.0,0.0,0.0,0.0,0.0,0.0,0.0,0.0,0.0,0.0,0.0,0.0,0.0,0.0,0.0,0.0,1.5625,1.5796,1.5796,1.5981,1.6215,0.0,0.0,0.0,0.0,0.0,0.0,0.0,0.0,0.0,1.8455,1.8633,1.8809,1.8986,1.9434,1.9648,1.9648,1.9902,2.0019,2.0019,2.0019,2.0019,2.0019,2.0019,1.9804,1.9432,1.8926,1.873,1.873,0.0,0.0,0.0,0.0,1.873,1.873,0.0,0.0,0.0,0.0,0.0,0.0,0.0,0.0,0.0,0.0,0.0,0.0,2.2313,2.2313,2.2313,2.2313,2.2348,2.2686,2.3447,2.3793,2.4193,0.0,2.478,2.4622,2.4194,2.3805,2.361,2.361,2.361,2.3699,2.3879,2.3879,2.3939,2.4118,2.3939,2.3759,2.361,2.361,2.361,2.3599,0.0,0.0,0.0,0.0,0.0,0.0,0.0,0.0,0.0,0.0,0.0,0.0,0.0,0.0,0.0,0.0,0.0,0.0,0.0,0.0,0.0,0.0,0.0,0.0,0.0,0.0,0.0,0.0,0.0,0.0,0.0,0.0,0.0,0.0,0.0,0.0,0.0,1.5972,1.6246,1.6246,1.6508,1.6785,0.0,0.0,0.0,0.0,0.0,0.0,1.8479,1.9102,1.9511,1.9628,1.9727,1.9785,1.9785,2.0215,2.041,2.043,2.0762,2.0918,2.0918,2.0918,2.0918,2.0918,2.0918,2.0918,2.0879,1.9999,1.9628,1.9628,1.9492,1.9453,1.9434,1.9354,1.9315,1.9315,0.0,0.0,0.0,0.0,0.0,0.0,0.0,0.0,0.0,0.0,0.0,2.2313,2.2313,2.2313,2.2313,2.2313,2.2462,2.2882,2.3638,2.4345,2.4659,2.4428,2.5369,2.5211,2.3655,2.3591,2.361,2.361,2.361,2.3939,2.4545,2.4545,2.4903,2.5453,2.4844,2.4186,2.361,2.361,2.361,2.3556,2.2976,0.0,0.0,0.0,0.0,0.0,0.0,0.0,0.0,0.0,0.0,0.0,0.0,0.0,0.0,0.0,0.0,0.0,0.0,0.0,0.0,0.0,0.0,0.0,0.0,0.0,0.0,0.0,0.0,0.0,0.0,0.0,0.0,0.0,0.0,0.0,0.0,0.0,0.0,1.6668,1.6687,0.0,0.0,0.0,0.0,1.912,1.9217,1.9394,1.9786,1.9863,2.0078,2.0527,2.0918,2.1093,2.1093,2.1562,2.1817,2.1817,2.1816,2.1837,2.1837,2.1837,2.1837,2.1837,2.1837,2.1837,2.1778,2.0879,2.0546,2.0507,2.0039,1.9864,1.9805,1.9434,1.9315,1.9315,0.0,0.0,0.0,0.0,0.0,0.0,0.0,0.0,2.2313,2.2313,2.2313,2.2313,2.2313,2.2313,2.218,2.186,2.2642,2.333,2.3794,2.4453,2.5126,2.585,2.5307,2.4542,2.3631,2.4018,2.4246,2.4246,2.4687,2.5005,2.5244,2.5244,2.5364,2.5573,2.5364,2.5124,2.4825,2.3969,2.361,2.3588,2.3352,2.3264,0.0,0.0,0.0,0.0,0.0,0.0,0.0,0.0,0.0,0.0,0.0,0.0,0.0,0.0,0.0,0.0,0.0,0.0,0.0,0.0,0.0,0.0,0.0,0.0,0.0,0.0,0.0,0.0,0.0,0.0,0.0,0.0,0.0,0.0,0.0,0.0,0.0,1.7542,1.803,0.0,1.8809,1.9082,1.9337,1.9668,2.0196,2.0586,2.0742,2.1035,2.125,2.1426,2.1582,2.166,2.166,2.207,2.2285,2.2285,2.2537,2.2674,2.2674,2.2674,2.2674,2.2674,2.2674,2.2674,2.2654,2.2323,2.1894,2.1426,2.125,2.1191,2.1172,2.1035,2.0957,2.0957,0.0,0.0,0.0,0.0,0.0,0.0,0.0,0.0,2.2313,2.2313,2.2313,2.2313,2.2313,2.2313,2.2281,2.22,2.2991,2.3687,2.4157,2.4651,2.5246,2.5895,2.5002,2.4383,2.4221,2.4676,2.4933,2.4933,2.5393,2.5812,2.6273,2.6273,2.6524,2.6931,2.6482,2.6273,2.6183,2.4837,2.4137,2.3928,2.3928,2.3819,2.3588,0.0,0.0,0.0,0.0,0.0,0.0,0.0,0.0,0.0,0.0,0.0,0.0,0.0,0.0,0.0,0.0,0.0,0.0,0.0,0.0,0.0,0.0,0.0,0.0,0.0,0.0,0.0,0.0,0.0,0.0,0.0,0.0,0.0,0.0,1.7757,1.8264,1.8418,1.9062,1.9551,1.9726,2.0098,2.041,2.0566,2.1093,2.1503,2.164,2.1913,2.2168,2.2305,2.2305,2.2305,2.2305,2.2557,2.2693,2.2713,2.2964,2.3101,2.3101,2.3101,2.3101,2.3101,2.3101,2.3101,2.3101,2.3101,2.2791,2.2305,2.2148,2.209,2.209,2.1954,2.1915,2.1937,0.0,0.0,0.0,0.0,0.0,0.0,0.0,2.2313,2.2313,2.2313,2.2313,2.2272,2.2265,2.2265,2.2569,2.3313,2.3551,2.3983,2.4738,2.507,2.4989,2.4482,2.4557,2.4884,2.5388,2.5561,2.5633,2.5663,2.5693,2.6363,2.7645,2.7645,2.8364,2.9548,2.8244,2.7645,2.7585,2.6273,2.5334,2.4694,2.4664,2.4227,2.3575,0.0,0.0,0.0,0.0,0.0,0.0,0.0,0.0,0.0,0.0,0.0,0.0,0.0,0.0,0.0,0.0,0.0,0.0,0.0,0.0,0.0,0.0,0.0,0.0,0.0,0.0,0.0,0.0,0.0,0.0,0.0,0.0,0.0,1.8105,1.8401,1.883,1.9296,1.9707,2.0137,2.0605,2.0996,2.1425,2.1875,2.1914,2.2109,2.2498,2.2539,2.2693,2.3081,2.3101,2.312,2.312,2.312,2.314,2.314,2.314,2.314,2.314,2.314,2.314,2.314,2.314,2.314,2.314,2.312,2.312,2.3081,2.2674,2.2539,2.2523,2.2133,2.1997,2.2183,0.0,0.0,0.0,0.0,0.0,0.0,0.0,2.2313,2.2313,2.2313,2.2313,2.2173,2.1831,2.1794,2.1954,2.2426,2.2952,2.3585,2.4322,2.5245,2.5764,2.571,2.5371,2.5288,2.5546,2.6057,2.6554,2.7033,2.753,2.8218,2.9052,2.9052,2.9262,2.9578,2.9189,2.9052,2.9022,2.865,2.7842,2.6704,2.5734,2.4903,2.4324,0.0,0.0,0.0,0.0,0.0,0.0,0.0,0.0,0.0,0.0,0.0,0.0,0.0,0.0,0.0,0.0,0.0,0.0,0.0,0.0,0.0,0.0,0.0,0.0,0.0,0.0,0.0,0.0,0.0,0.0,0.0,2.0135,2.0687,1.916,1.9589,2.0097,2.0233,2.0899,2.1407,2.1524,2.1914,2.2186,2.2324,2.2596,2.283,2.2947,2.2947,2.3006,2.3081,2.3415,2.3613,2.3613,2.3884,2.404,2.404,2.404,2.404,2.404,2.404,2.404,2.404,2.404,2.404,2.402,2.373,2.3613,2.3574,2.3123,2.3446,2.4154,2.4031,2.4535,2.5282,0.0,0.0,0.0,0.0,0.0,0.0,0.0,2.2313,2.2223,2.2032,2.218,2.2137,2.1642,2.1597,2.2017,2.3029,2.3088,2.3706,2.5148,2.5499,2.5619,2.5529,2.5483,2.5648,2.6015,2.6961,2.7632,2.8021,2.868,2.9368,2.9997,2.9997,3.0133,3.0372,3.0103,2.9997,2.9967,2.9698,2.9129,2.8364,2.729,2.6111,2.4993,2.4724,2.3975,2.3092,2.2792,2.1868,2.0795,2.0795,0.0,0.0,0.0,0.0,0.0,0.0,0.0,0.0,0.0,0.0,0.0,0.0,0.0,0.0,0.0,0.0,0.0,0.0,0.0,0.0,0.0,0.0,0.0,0.0,2.2139,2.2581,2.1879,2.1445,2.1189,2.1154,2.1759,2.2357,2.2816,2.2795,2.2967,2.3418,2.3426,2.3396,2.3396,2.3552,2.3875,2.441,2.4177,2.4315,2.4836,2.5078,2.4923,2.4414,2.4945,2.4923,2.4391,2.4391,2.4391,2.4391,2.4391,2.4391,2.4371,2.416,2.436,2.4775,0.0,0.0,0.0,0.0,2.5922,2.6565,0.0,0.0,0.0,0.0,0.0,0.0,0.0,2.2313,2.2159,2.1742,2.2039,2.2137,2.1642,2.1552,2.2305,2.4246,2.3518,2.3952,2.6284,2.5561,2.4946,2.48,2.5309,2.5944,2.6704,2.7949,2.8637,2.8697,2.9368,3.0013,3.0598,3.0598,3.0927,3.1466,3.0867,3.0598,3.0582,3.0057,2.9758,2.9638,2.8966,2.756,2.5752,2.5083,2.4351,2.3617,2.3103,2.2041,2.0919,2.0993,0.0,0.0,0.0,0.0,0.0,0.0,0.0,0.0,0.0,0.0,0.0,0.0,0.0,0.0,0.0,0.0,0.0,0.0,0.0,0.0,0.0,0.0,0.0,0.0,2.4477,2.447,2.5173,2.3719,2.2545,2.235,2.2683,2.33,2.4179,2.3855,2.3881,2.4636,2.4437,2.423,2.4095,2.4541,0.0,0.0,0.0,2.5303,2.6166,2.6343,2.5865,2.4759,2.591,2.5933,2.4967,2.4967,2.4967,2.4967,2.4967,2.4967,2.4947,2.4907,2.5603,2.6622,2.5701,2.5359,2.5486,2.664,2.7053,2.7197,0.0,0.0,0.0,0.0,0.0,0.0,0.0,2.2313,2.2258,2.218,2.2237,2.2137,2.1642,2.1314,2.1891,2.3859,2.2776,2.2801,2.4737,2.4256,2.4554,2.5986,2.5757,2.6153,2.7375,2.8201,2.8846,2.9398,3.0013,3.0658,3.1301,3.1301,3.1391,3.1481,3.1361,3.1301,3.1301,3.1182,3.0807,3.0283,2.9668,2.853,2.7136,2.6465,2.5171,2.3734,2.4097,2.308,2.1604,2.2149,2.1547,2.0609,2.0609,2.0232,0.0,0.0,0.0,0.0,0.0,0.0,0.0,0.0,0.0,0.0,0.0,0.0,0.0,0.0,0.0,0.0,0.0,0.0,0.0,2.408,2.5815,2.6884,2.5837,2.6017,2.5972,2.5145,2.5444,2.5458,2.4767,2.5785,2.5786,2.41,2.6037,2.6844,2.5868,2.682,2.7062,2.6329,2.7364,2.7104,2.5344,2.6671,2.7233,2.6975,2.7233,0.0,2.8442,2.8442,2.8442,2.8442,2.8442,2.8442,2.8399,2.8072,2.8408,2.9102,2.8913,2.8843,2.897,3.0056,3.0446,3.0466,0.0,0.0,0.0,0.0,0.0,0.0,0.0,2.2313,2.2216,2.1988,2.2159,2.2137,2.1642,2.1236,2.1763,2.363,2.3587,2.3597,2.3976,2.4016,2.4604,2.5952,2.5736,2.6213,2.7555,2.8603,2.9249,2.9608,3.0552,3.1152,3.1511,3.1511,3.1511,3.1511,3.1511,3.1511,3.1511,3.1511,3.1301,3.0927,2.9997,2.9202,2.8453,2.7123,2.5985,2.5106,2.4741,2.3583,2.2197,2.2187,2.1355,2.0295,2.0295,2.0055,1.9811,0.0,0.0,0.0,0.0,0.0,0.0,0.0,0.0,0.0,0.0,0.0,0.0,0.0,0.0,2.379,2.3934,0.0,2.5955,2.6242,2.7533,2.8343,2.7852,2.8241,2.7943,2.6346,2.6592,2.6904,2.6838,2.6819,2.678,2.678,2.7238,2.7521,2.7544,2.8322,2.8768,2.8746,2.897,2.8788,2.815,2.8986,2.9096,2.8518,2.912,2.9396,2.9396,2.9396,2.9396,2.9396,2.9396,2.9396,2.9442,2.9826,3.0194,3.057,3.1196,3.1111,3.0663,3.1202,3.1406,3.1406,0.0,0.0,0.0,0.0,0.0,0.0,0.0,2.2313,2.2173,2.1787,2.2061,2.2166,2.1779,2.1361,2.1795,2.3439,2.4351,2.4535,2.3805,2.4049,2.4658,2.5566,2.5603,2.6213,2.7555,2.8889,2.9608,2.9608,3.0867,3.1511,3.1511,3.1511,3.1511,3.1511,3.1511,3.1511,3.1511,3.1511,3.1421,3.1212,3.0043,2.9518,2.9219,2.7452,2.6704,2.6435,2.5244,2.4055,2.2957,2.2169,2.1122,2.0156,2.0029,1.9914,1.9811,1.9811,1.9811,0.0,0.0,0.0,0.0,0.0,0.0,0.0,0.0,2.3351,2.4029,2.413,2.4124,2.4577,2.6203,2.6184,2.6566,2.8569,2.9007,2.9233,2.9729,2.9804,2.9199,2.7502,2.7686,2.8233,2.8991,2.8084,2.8052,2.9501,2.8678,2.843,2.9238,2.9896,3.0602,3.1343,3.0763,3.065,3.1149,3.142,3.1036,3.0079,3.1082,3.1149,3.0422,3.0422,3.0422,3.0422,3.0422,3.0422,3.0491,3.1368,3.1723,3.1834,3.2748,3.2537,3.1733,3.1733,3.1733,3.1733,0.0,0.0,0.0,0.0,0.0,0.0,0.0,0.0,2.2272,2.2223,2.2258,2.2265,2.2223,2.1801,2.1978,2.3062,2.3437,2.3798,2.4287,2.3921,2.4244,2.5543,2.5603,2.6213,2.7555,2.8889,2.9608,2.9608,3.0867,3.1511,3.1511,3.1511,3.1511,3.1511,3.1511,3.1511,3.1511,3.1511,3.1152,3.0538,2.9877,2.9249,2.8607,2.7782,2.7136,2.6494,2.5764,2.5002,2.4202,2.2976,2.2114,2.1388,2.087,2.027,1.9811,1.9811,1.9811,1.9911,2.0465,2.1331,2.2146,2.2196,2.2608,2.3145,0.0,2.3904,2.413,2.4616,2.5494,2.6246,2.6457,2.7598,2.8569,2.8863,2.9333,2.9704,2.9779,2.9804,2.9877,3.0094,3.0198,3.0094,2.9726,3.0824,3.0818,2.9056,3.1085,3.1967,3.0973,3.2501,3.2975,3.2027,3.3348,3.3111,3.1052,3.2137,3.2626,3.251,3.2649,3.3204,3.4119,3.4119,3.4119,3.4119,3.4119,3.4119,3.4092,3.3754,3.3598,3.357,3.3226,3.3014,3.2914,3.2914,3.2914,3.2914,0.0,0.0,0.0,0.0,0.0,0.0,0.0,0.0,0.0,2.2313,2.2313,2.2313,2.2313,2.2007,2.2065,2.2577,2.2861,2.3254,2.3882,2.3709,2.4018,2.4963,2.5393,2.6063,2.7003,2.8321,2.9009,2.9009,3.0299,3.0927,3.0927,3.1331,3.1511,3.1511,3.1511,3.1271,3.0927,3.0927,3.0538,2.9937,2.9279,2.8846,2.8517,2.7854,2.7183,2.6554,2.6273,2.5521,0.0,2.36,2.2352,2.1125,2.0882,2.0333,1.9811,1.9811,2.005,2.0515,2.1393,2.197,2.2383,2.2684,2.3211,2.3687,2.3954,2.4481,2.5084,2.5678,2.6407,2.716,2.777,2.8455,2.9007,2.9377,2.9628,2.9804,2.9804,3.008,3.0457,3.1009,3.1361,3.1427,3.1234,3.1446,3.1525,3.1332,3.2059,3.2572,3.2749,3.3759,3.415,3.3629,3.4304,3.4202,3.3165,3.3674,3.3949,3.3949,3.3949,3.4224,3.4703,3.4703,3.4703,3.4703,3.4703,3.4703,3.4678,3.4452,3.4374,3.4327,3.4123,3.4022,3.3947,3.3341,3.309,3.309,0.0,0.0,0.0,0.0,0.0,0.0,0.0,0.0,0.0,0.0,2.2313,2.2313,2.2313,2.2044,2.2097,2.2567,2.2737,2.3061,2.3681,2.3799,2.4031,2.4575,2.5064,2.5722,2.6584,2.7722,2.8397,2.8607,2.9714,3.0253,3.0253,3.0747,3.0987,3.0987,3.0987,3.0717,3.0253,3.0253,2.9894,2.9279,2.8786,2.8368,2.7991,2.7512,2.6914,2.6303,2.6303,2.5496,2.4317,2.3646,2.2269,2.0795,2.0795,2.0436,2.005,2.005,2.0678,2.1507,2.2132,2.2633,2.306,2.3286,2.3788,2.4255,2.4406,2.5034,2.5829,2.6575,2.7135,2.7795,2.8731,2.9032,2.9283,2.9729,2.9804,2.9804,2.9804,3.0256,3.0809,3.1336,3.1863,3.2265,3.2441,3.1994,3.2157,3.3251,3.285,3.3032,3.4079,3.4628,3.4929,3.4929,3.5079,3.5177,3.5177,3.5177,3.5177,3.5177,3.5177,3.5177,3.5177,3.5177,3.5177,3.5177,3.5177,3.5177,3.5152,3.4979,3.4929,3.4904,3.4753,3.4703,3.4603,3.3822,3.352,3.352,0.0,0.0,0.0,0.0,0.0,0.0,0.0,0.0,0.0,0.0,0.0,0.0,0.0,2.1893,2.2103,2.3253,2.321,2.3383,2.4025,2.4257,2.4459,2.4597,2.4623,2.5244,2.6584,2.7285,2.7944,2.8607,2.9279,2.9621,2.9621,2.9638,2.9668,2.9668,2.9668,2.9638,2.9621,2.9621,2.9249,2.8637,2.8607,2.7829,2.6674,2.6644,2.6213,2.5633,2.5633,2.4823,2.3646,2.2965,2.1872,2.0795,2.0795,2.0746,2.0666,2.0666,2.1794,2.292,2.2433,2.3487,2.4616,2.4104,2.4381,2.4917,2.5435,2.5561,2.5929,2.7035,2.7695,2.8229,2.8806,2.9377,2.9779,2.9804,2.9804,2.9804,2.9804,3.0256,3.0809,3.1336,3.1863,3.2441,3.3014,3.3047,3.3273,3.3822,3.3875,3.4079,3.4653,3.5182,3.5483,3.5483,3.6031,3.6355,3.6355,3.6355,3.6355,3.6355,3.6355,3.6355,3.6355,3.6355,3.6355,3.6355,3.6355,3.6355,3.6306,3.5707,3.5483,3.5433,3.4904,3.4703,3.4703,3.4653,3.4653,3.4653,0.0,0.0,0.0,0.0,0.0,0.0,0.0,0.0,0.0,0.0,0.0,0.0,0.0,0.0,0.0,0.0,2.2994,2.3396,2.4071,2.4286,2.4431,2.4479,2.4535,2.4814,2.5274,2.5944,2.6393,2.6602,2.7722,2.8274,2.8304,2.9189,2.9608,2.9608,2.9608,2.9338,2.8919,2.8453,2.7884,2.723,2.6782,2.6333,2.5944,2.5944,2.5513,2.4933,0.0,2.467,2.4261,2.4054,2.2815,2.1388,2.1388,2.1078,2.0918,2.197,2.2433,2.2784,2.3712,2.4114,2.4315,2.449,2.4917,2.5385,2.5561,2.6206,2.6934,2.767,2.8254,2.8806,2.9402,2.9654,2.9804,2.9804,2.9804,2.9804,2.9804,3.0557,3.1185,3.1361,3.2236,3.2889,3.309,3.309,3.3316,3.3847,3.4248,3.4653,3.5182,3.578,3.6081,3.6081,3.6281,3.6405,3.6405,3.6405,3.6405,3.6405,3.6405,3.6405,3.6405,3.6405,3.6405,3.6405,3.6405,3.6405,3.638,3.618,3.6081,3.608,3.5904,3.5828,3.5828,3.5828,3.5828,3.5728,0.0,0.0,0.0,0.0,0.0,0.0,0.0,0.0,0.0,0.0,0.0,0.0,0.0,0.0,0.0,0.0,0.0,2.3428,2.3917,2.416,2.4412,2.4661,2.4572,2.4645,2.4876,2.5311,2.5541,2.5603,2.6465,2.6884,2.6884,2.7782,2.8171,2.8171,2.8171,2.7919,2.75,2.7063,2.6644,2.6225,2.5752,2.5453,2.5244,2.5244,2.4814,0.0,2.4246,2.4246,2.4246,2.4246,2.2965,2.1455,2.1902,2.1811,2.1769,2.2794,2.3286,2.3612,2.4315,2.4707,2.4924,2.5042,2.5511,2.5929,2.5929,2.6633,2.7462,2.7996,2.853,2.9082,2.9679,2.9804,2.9804,2.9804,2.9804,2.9804,2.9804,3.0708,3.1406,3.1406,3.2411,3.309,3.309,3.3266,3.3596,3.4148,3.4678,3.523,3.5782,3.6205,3.6405,3.6405,3.6405,3.6405,3.6405,3.6405,3.6405,3.6405,3.6405,3.6405,3.6405,3.6405,3.6405,3.6405,3.6405,3.6405,3.6405,3.6405,3.6405,3.6405,3.6405,3.6405,3.6405,3.6405,3.6405,3.6304,0.0,0.0,0.0,0.0,0.0,0.0,0.0,0.0,0.0,0.0,0.0,0.0,0.0,0.0,0.0,0.0,0.0,0.0,2.3745,2.3985,2.4437,2.517,2.4722,2.472,2.5339,2.5369,2.5407,2.553,2.5555,2.5543,2.5543,2.5573,2.5603,2.5603,2.5603,2.5603,2.5603,2.5573,2.5543,2.5543,2.5513,2.5124,2.4545,2.4545,2.4156,2.361,2.361,2.361,2.361,2.361,2.238,2.1103,2.219,2.2786,2.307,2.312,2.4264,2.531,2.433,2.5226,2.6323,2.5778,2.608,2.6499,2.6499,2.6952,2.7487,2.7996,2.8555,2.9132,2.9679,2.9804,2.9804,2.9804,2.9804,2.9804,2.9804,3.0708,3.1406,3.1406,3.2411,3.309,3.309,3.3596,3.4148,3.4653,3.5182,3.5757,3.638,3.6405,3.6405,3.6405,3.6405,3.6405,3.6405,3.6405,3.6405,3.6405,3.6405,3.6405,3.6405,3.6405,3.6405,3.6405,3.6405,3.6405,3.6405,3.6405,3.6405,3.6405,3.6405,3.6405,3.6405,3.6405,3.6405,3.6405,0.0,0.0,0.0,0.0,0.0,0.0,0.0,0.0,0.0,0.0,0.0,0.0,0.0,0.0,0.0,0.0,0.0,0.0,2.4243,2.4487,2.4796,2.5179,2.5076,2.4906,2.4679,2.4658,2.4689,2.4696,2.4799,2.4844,2.4874,2.5364,2.5603,2.5603,2.5603,2.5603,2.5573,2.5064,2.4844,2.4814,2.4317,2.3999,2.3838,2.3838,2.3759,2.361,2.361,2.361,2.361,2.361,2.2948,2.2105,2.1863,2.2102,2.2684,2.3512,2.4079,2.4531,2.5059,2.5485,2.5904,2.6197,2.6373,2.6499,2.6499,2.7211,2.7921,2.8072,2.8875,2.9628,2.9754,2.9804,2.9804,2.9804,2.9804,2.9804,2.9804,3.0708,3.1406,3.1406,3.2411,3.309,3.309,3.3947,3.4552,3.4703,3.5182,3.5757,3.638,3.6405,3.6405,3.6405,3.6405,3.6405,3.6405,3.6405,3.6405,3.6405,3.6405,3.6405,3.6405,3.6405,3.6405,3.6405,3.6405,3.6405,3.6405,3.6405,3.6405,3.6405,3.6405,3.6405,3.6405,3.6405,3.6405,3.6405,0.0,0.0,0.0,0.0,0.0,0.0,0.0,0.0,0.0,0.0,0.0,0.0,0.0,0.0,0.0,0.0,0.0,0.0,0.0,2.4047,2.4364,2.5179,2.4979,2.4831,2.4762,2.4762,2.4642,2.44,2.4467,2.4379,2.4167,2.4567,2.4717,2.4717,2.4717,2.4717,2.4717,2.4317,2.4156,0.0,0.0,2.361,2.361,2.361,2.361,2.361,2.361,2.3417,2.3154,2.2868,2.264,2.2402,2.1713,2.2196,2.316,2.3803,2.433,2.4833,2.5435,2.5804,2.608,2.6424,2.6499,2.6499,2.6499,2.7135,2.7745,2.7745,2.8448,2.9126,2.9358,2.9428,2.9503,2.9754,2.9804,2.9804,2.9804,3.0708,3.1406,3.1406,3.2411,3.309,3.309,3.4073,3.4703,3.4703,3.5431,3.6031,3.638,3.6405,3.6405,3.6405,3.6405,3.6405,3.6405,3.6405,3.6405,3.6405,3.6405,3.6405,3.6405,3.6405,3.6405,3.6405,3.6405,3.6405,3.6405,3.6405,3.6405,3.6405,3.6405,3.6405,3.6405,3.6405,3.6405,3.6405,0.0,0.0,0.0,0.0,0.0,0.0,0.0,0.0,0.0,0.0,0.0,0.0,0.0,0.0,0.0,0.0,0.0,0.0,0.0,0.0,2.3665,2.4914,2.4659,2.4702,2.5096,2.5096,2.4871,2.44,2.4328,2.4079,2.361,2.361,2.361,2.361,2.361,2.361,2.361,2.361,2.361,2.361,2.361,2.361,2.361,0.0,2.361,2.361,2.361,2.3154,2.2489,2.1899,2.2017,2.2295,2.1677,2.2598,2.3879,2.3879,2.4657,2.5485,2.5485,2.5979,2.6499,2.6499,2.6499,2.6499,2.6499,2.6909,2.7311,2.7311,2.772,2.8229,2.8706,2.8838,2.9082,2.9603,2.9754,2.9804,2.9804,3.0658,3.1311,3.1386,3.2336,3.3014,3.309,3.4073,3.4703,3.4703,3.5753,3.6405,3.6405,3.6405,3.6405,3.6405,3.6405,3.6405,3.6405,3.6405,3.6405,3.6405,3.6405,3.6405,3.6405,3.6405,3.6405,3.6405,3.6405,3.6405,3.6405,3.6405,3.6405,3.6405,3.6405,3.6405,3.6405,3.6405,3.6405,3.6405,0.0,0.0,0.0,0.0,0.0,0.0,0.0,0.0,0.0,0.0,2.2313,0.0,0.0,0.0,0.0,0.0,0.0,0.0,0.0,0.0,0.0,2.3717,2.4574,2.49,2.4552,2.4542,2.4491,2.44,2.3964,2.3687,2.361,2.361,2.361,2.361,2.361,2.361,2.361,2.361,2.361,2.361,2.361,2.361,2.361,2.361,0.0,0.0,2.361,2.2857,2.1864,2.1746,2.2017,2.2295,2.1677,2.2322,2.3246,2.3246,2.4064,2.4942,2.4942,2.5703,2.6499,2.6499,2.6499,2.6499,2.6499,2.6909,2.7311,2.7311,2.772,2.8147,2.8204,2.8605,2.8913,2.9032,2.9478,2.9804,2.9804,3.0357,3.0909,3.1356,3.1964,3.2541,3.3065,3.4073,3.4703,3.4703,3.5753,3.6405,3.6405,3.6405,3.6405,3.6405,3.6405,3.6405,3.6405,3.6405,3.6405,3.6405,3.6405,3.6405,3.6405,3.6405,3.6405,3.6405,3.6405,3.6405,3.6405,3.6405,3.6405,3.6405,3.6405,3.6405,3.6405,3.6405,3.6405,3.6405,0.0,0.0,0.0,0.0,0.0,0.0,0.0,0.0,0.0,0.0,2.2313,2.2209,0.0,0.0,0.0,0.0,0.0,0.0,0.0,0.0,0.0,0.0,0.0,0.0,2.44,2.44,2.44,2.44,0.0,2.3879,2.361,2.361,2.361,2.361,2.361,2.361,2.361,2.361,2.361,2.361,2.361,2.361,2.361,0.0,0.0,0.0,0.0,2.302,2.223,2.223,2.2292,2.2295,2.1677,2.2232,2.317,2.3487,2.4164,2.4867,2.5143,2.5854,2.6499,2.6499,2.6499,2.6499,2.6499,2.67,2.6876,2.6876,2.7085,2.7361,2.762,2.7896,2.8254,2.8806,2.9132,2.9453,2.9754,3.0256,3.0809,3.1336,3.1863,3.2441,3.304,3.4073,3.4703,3.4703,3.5753,3.6405,3.6405,3.6405,3.6405,3.6405,3.6405,3.6405,3.6405,3.6405,3.6405,3.6405,3.6405,3.6405,3.6405,3.6405,3.6405,3.6405,3.6405,3.6405,3.6405,3.6405,3.6405,3.6405,3.6405,3.6405,3.6405,3.6405,3.6405,3.6405,0.0,0.0,0.0,0.0,0.0,0.0,0.0,2.2313,2.2313,2.2313,2.2313,2.2109,2.1521,2.186,2.2003,0.0,0.0,0.0,0.0,0.0,0.0,0.0,0.0,0.0,2.4215,0.0,0.0,2.4225,2.4225,0.0,0.0,0.0,0.0,0.0,2.361,2.361,2.361,2.361,2.361,0.0,0.0,2.361,2.361,0.0,0.0,0.0,0.0,2.3209,2.2672,2.2546,2.244,2.2295,2.1677,2.2232,2.3195,2.3662,2.4189,2.4741,2.5285,2.5854,2.6348,2.6474,2.6499,2.6499,2.6499,2.6499,2.6499,2.6499,2.6499,2.6625,2.7035,2.7211,2.7595,2.858,2.8831,2.9107,2.9704,3.0156,3.0683,3.1311,3.1763,3.2315,3.304,3.4073,3.4703,3.4703,3.5753,3.6405,3.6405,3.6405,3.6405,3.6405,3.6405,3.6405,3.6405,3.6405,3.6405,3.6405,3.6405,3.6405,3.6405,3.6405,3.6405,3.6405,3.6405,3.648,3.6581,3.6581,3.6632,3.6757,3.704,3.7159,3.7182,3.7463,3.7556,3.7556,0.0,0.0,0.0,0.0,0.0,0.0,0.0,2.2313,2.2313,2.2313,2.2313,2.1974,2.1142,2.1414,2.1634,0.0,0.0,0.0,0.0,0.0,0.0,0.0,0.0,0.0,0.0,0.0,0.0,2.3655,2.3655,0.0,0.0,0.0,0.0,0.0,0.0,2.361,2.361,2.361,0.0,0.0,0.0,0.0,0.0,0.0,0.0,0.0,0.0,2.3209,2.2615,2.1993,2.2067,2.2295,2.1677,2.2232,2.312,2.317,2.3612,2.4205,2.4716,2.5285,2.5829,2.6373,2.6499,2.6499,2.6499,2.6499,2.6499,2.6499,2.6499,2.6524,2.6549,2.6959,2.7487,2.8072,2.858,2.9107,2.9704,2.9829,3.0256,3.126,3.1436,3.1909,3.2989,3.4073,3.4703,3.4703,3.5753,3.6405,3.6405,3.6405,3.6405,3.6405,3.6405,3.6405,3.6405,3.6405,3.6405,3.6405,3.6405,3.6405,3.6405,3.6405,3.6405,3.6405,3.6405,3.6683,3.7135,3.7135,3.7412,3.7962,3.912,3.9596,3.9712,4.0872,4.1306,4.1306,0.0,0.0,0.0,0.0,0.0,0.0,0.0,2.2313,2.2313,2.2313,2.2313,2.2046,2.1422,2.1283,2.1236,0.0,0.0,0.0,0.0,0.0,0.0,0.0,0.0,0.0,0.0,0.0,2.361,2.361,2.361,0.0,0.0,0.0,0.0,0.0,0.0,2.361,2.361,2.361,0.0,0.0,0.0,0.0,0.0,0.0,0.0,0.0,0.0,0.0,2.3143,2.2506,2.2613,2.2962,2.2711,2.2839,2.3095,2.3095,2.3537,2.4054,2.4264,2.4716,2.5243,2.5829,2.5954,2.6055,2.6424,2.6499,2.6499,2.6499,2.6499,2.6499,2.6499,2.6675,2.7085,2.7971,2.8298,2.8731,2.9654,2.9804,3.02,3.126,3.1406,3.1859,3.2989,3.4073,3.4979,3.5655,3.613,3.6405,3.6405,3.6405,3.6405,3.6405,3.6405,3.6405,3.6405,3.6405,3.6405,3.6405,3.6405,3.6405,3.6405,3.6405,3.6405,3.643,3.6733,3.7009,3.7284,3.8381,3.8951,3.9253,4.0548,4.1035,4.1104,4.1607,4.1812,4.1812,0.0,0.0,0.0,0.0,0.0,0.0,2.2313,2.2313,2.2313,2.2313,2.2313,2.2094,2.1483,2.1275,2.1071,2.0821,0.0,0.0,0.0,0.0,0.0,0.0,0.0,0.0,0.0,0.0,2.361,2.361,2.361,2.361,0.0,0.0,2.361,2.361,0.0,0.0,0.0,0.0,0.0,0.0,0.0,0.0,0.0,0.0,0.0,0.0,0.0,0.0,0.0,0.0,0.0,2.3081,2.2897,2.2951,2.3095,2.3095,2.3411,2.3763,2.3954,2.428,2.4691,2.5234,2.5485,2.5728,2.6147,2.6373,2.6499,2.6499,2.6499,2.6499,2.6499,2.6499,2.6851,2.7921,2.8097,2.8499,2.9628,2.9804,3.02,3.126,3.1406,3.1859,3.2989,3.4073,3.5102,3.608,3.6306,3.6405,3.6405,3.6405,3.6405,3.6405,3.6405,3.6405,3.6405,3.6405,3.6405,3.6405,3.6405,3.6405,3.6405,3.6405,3.6505,3.6681,3.744,3.7964,3.8393,4.0047,4.0807,4.1086,4.2366,4.2868,4.2913,4.3273,4.3408,4.3408,0.0,0.0,0.0,0.0,0.0,0.0,0.0,2.2313,2.2313,2.2313,2.2313,2.1959,2.1094,2.1361,2.1267,2.0366,0.0,0.0,0.0,0.0,0.0,0.0,0.0,0.0,0.0,0.0,2.361,2.361,2.361,2.361,2.361,2.361,2.361,2.361,0.0,0.0,0.0,0.0,0.0,0.0,0.0,0.0,0.0,0.0,0.0,0.0,0.0,0.0,0.0,0.0,0.0,0.0,0.0,2.2246,2.3095,2.3095,2.3095,2.3246,2.3853,2.4004,2.413,2.4666,2.5209,2.5586,2.5611,2.6055,2.6499,2.6499,2.6499,2.6499,2.6499,2.6499,2.6851,2.7921,2.8097,2.8499,2.9628,2.9804,3.02,3.126,3.1406,3.1859,3.2989,3.4073,3.4929,3.5458,3.6056,3.6405,3.6405,3.6405,3.6405,3.6405,3.6405,3.6405,3.6405,3.6405,3.6405,3.6405,3.6405,3.6405,3.6405,3.6405,3.6683,3.7258,3.8512,3.9732,4.0865,4.2148,4.2998,4.3594,4.4858,4.5366,4.5524,4.6792,4.7236,4.7236,0.0,0.0,0.0,0.0,0.0,0.0,0.0,2.2313,2.2313,2.2313,2.2017,2.1831,2.1886,2.1189,2.0897,2.1429,0.0,0.0,0.0,0.0,0.0,0.0,0.0,0.0,0.0,0.0,0.0,2.361,2.361,2.361,2.361,2.361,2.361,2.361,2.361,2.361,0.0,0.0,0.0,0.0,0.0,0.0,2.3537,0.0,0.0,0.0,0.0,0.0,0.0,0.0,0.0,0.0,0.0,0.0,0.0,2.3095,2.3095,2.3145,2.3321,2.3371,2.3521,2.4114,2.4657,2.5143,2.5511,2.6055,2.6499,2.6499,2.6499,2.6499,2.6499,2.6499,2.6851,2.7921,2.8097,2.8499,2.9628,2.9804,3.02,3.126,3.2085,3.2864,3.3571,3.4299,3.4929,3.5458,3.6056,3.6405,3.6405,3.6405,3.6405,3.6405,3.6405,3.6405,3.6405,3.6405,3.6405,3.6405,3.6405,3.6803,3.7563,3.7563,3.8333,3.9715,4.0508,4.1318,4.225,4.3876,4.4641,4.4932,4.6211,4.6704,4.6748,4.7127,4.7309,4.7309,0.0,0.0,0.0,0.0,0.0,0.0,0.0,2.2313,2.2313,2.2313,2.2039,2.1897,2.2017,2.1158,2.0867,2.1676,0.0,0.0,0.0,0.0,0.0,0.0,0.0,0.0,0.0,0.0,2.361,2.361,2.361,2.361,2.361,2.361,2.361,2.361,2.361,2.361,0.0,0.0,0.0,0.0,0.0,0.0,2.2868,0.0,0.0,0.0,0.0,0.0,0.0,0.0,0.0,0.0,0.0,0.0,0.0,0.0,2.3095,2.3095,2.3095,2.3095,2.3195,2.3562,2.4239,2.4892,2.5234,2.5929,2.6499,2.6499,2.6499,2.6499,2.6499,2.6499,2.6851,2.7921,2.8097,2.8499,2.9628,2.9804,3.02,3.126,3.2411,3.3241,3.3567,3.4274,3.4853,3.5157,3.5931,3.6405,3.6405,3.6405,3.6405,3.6405,3.6405,3.6405,3.6405,3.6405,3.6405,3.6405,3.6849,3.7402,3.8107,3.8581,3.9504,4.0841,4.1948,4.2767,0.0,4.5361,4.6121,4.6211,4.6997,4.7309,4.7309,4.7309,4.7309,4.7309,0.0,0.0,0.0,0.0,0.0,0.0,0.0,0.0,0.0,0.0,2.2258,2.2068,2.1634,2.1237,2.112,0.0,0.0,0.0,0.0,0.0,0.0,0.0,0.0,0.0,0.0,2.361,2.361,2.361,2.361,2.361,2.361,2.361,2.361,2.361,2.361,2.361,0.0,0.0,0.0,0.0,0.0,0.0,0.0,0.0,0.0,0.0,0.0,0.0,0.0,0.0,0.0,0.0,0.0,0.0,0.0,0.0,0.0,0.0,0.0,2.3095,2.312,2.3145,2.3973,2.4816,2.4842,2.5728,0.0,2.6499,2.6499,2.6499,2.6499,2.6499,2.6851,2.7921,2.8097,2.8499,2.9628,2.9854,3.0281,3.126,3.2411,3.309,3.309,3.4073,3.4703,3.4703,3.5753,3.6405,3.6405,3.6405,3.6405,3.6405,3.6405,3.6405,3.6405,3.6405,3.6428,3.6546,3.7586,3.8198,3.8401,3.9514,4.037,4.1063,4.2925,4.4044,4.468,4.6555,4.7309,4.7309,4.7309,4.7309,4.7309,4.7309,4.7309,4.7309,0.0,0.0,0.0,0.0,0.0,0.0,0.0,0.0,0.0,0.0,2.1996,2.1735,2.1604,2.1365,2.1472,0.0,0.0,0.0,0.0,0.0,0.0,0.0,0.0,0.0,0.0,2.361,2.361,2.361,2.361,2.361,2.361,2.361,2.361,2.361,2.361,0.0,0.0,0.0,0.0,0.0,0.0,0.0,0.0,0.0,0.0,0.0,2.027,2.0334,0.0,0.0,0.0,0.0,0.0,0.0,0.0,0.0,2.3095,2.3095,2.3095,0.0,2.3221,2.3662,2.429,2.4917,0.0,0.0,0.0,0.0,0.0,2.6499,2.6499,2.6499,2.6851,2.7921,2.8097,2.8499,2.9628,3.0527,3.113,3.1381,3.2411,3.309,3.309,3.4073,3.4703,3.4703,3.5753,3.6405,3.6405,3.6405,3.6405,3.6405,3.6405,3.6405,3.6405,3.6405,3.6849,3.7701,3.7971,3.9045,4.0781,4.1085,4.2016,4.3507,4.4477,4.5264,4.5916,4.6881,4.7309,4.7309,4.7309,4.7309,4.7309,4.7309,4.7309,4.7309,0.0,0.0,0.0,0.0,0.0,0.0,0.0,0.0,0.0,0.0,0.0,0.0,0.0,0.0,0.0,0.0,0.0,0.0,0.0,0.0,0.0,0.0,0.0,0.0,0.0,2.361,2.361,2.361,2.361,2.361,2.3599,2.3308,2.333,2.3599,2.3297,0.0,0.0,0.0,0.0,0.0,2.2126,0.0,0.0,0.0,0.0,0.0,1.9914,2.0175,0.0,2.1306,2.187,2.2383,0.0,0.0,0.0,0.0,2.3095,2.3095,2.3095,2.3095,2.3246,2.3853,2.439,2.4942,2.5485,0.0,0.0,0.0,0.0,2.6499,2.6499,2.67,2.7135,2.7971,2.8304,2.8781,2.9654,3.0708,3.1406,3.1406,3.2411,3.309,3.309,3.4073,3.4703,3.4703,3.5753,3.6405,3.6405,3.6405,3.6405,3.6405,3.6405,3.6405,3.6405,3.6919,3.7494,3.8107,3.92,4.0376,4.1608,4.2132,4.2917,4.3878,4.4556,4.5214,4.5882,4.654,4.7018,4.7309,4.7309,4.7309,4.7309,4.7309,4.7309,4.7309,0.0,0.0,0.0,0.0,0.0,0.0,0.0,0.0,0.0,0.0,0.0,0.0,0.0,0.0,0.0,0.0,0.0,0.0,0.0,0.0,0.0,0.0,0.0,0.0,2.361,2.361,2.361,2.361,2.361,2.361,2.3599,2.3076,2.3054,2.3417,2.2728,0.0,0.0,0.0,0.0,0.0,2.1352,0.0,0.0,0.0,0.0,0.0,0.0,0.0,0.0,2.1432,2.197,2.2508,2.297,0.0,0.0,0.0,0.0,0.0,2.3095,2.317,2.3371,2.3963,2.4465,2.4967,2.5586,0.0,0.0,0.0,0.0,2.6524,2.66,2.6984,2.7512,2.8122,2.8681,2.9208,2.9729,3.0708,3.1406,3.1406,3.2411,3.309,3.309,3.4073,3.4703,3.4703,3.5753,3.6405,3.6405,3.657,3.6662,3.6662,3.6849,3.6943,3.6943,3.7701,3.8289,3.8644,4.0654,4.1691,4.1906,4.286,4.329,4.3319,4.3997,4.4616,4.5214,4.5971,4.6629,4.716,4.7279,4.7309,4.7309,4.7309,4.7309,4.7309,0.0,0.0,0.0,0.0,0.0,0.0,0.0,0.0,0.0,0.0,0.0,0.0,0.0,0.0,0.0,0.0,0.0,0.0,0.0,0.0,0.0,0.0,0.0,2.361,2.361,2.361,2.361,2.361,2.361,2.361,2.361,2.3523,2.3231,2.2785,2.1607,2.1319,0.0,0.0,0.0,0.0,2.0907,0.0,0.0,0.0,0.0,0.0,0.0,0.0,0.0,2.1995,2.2533,2.2995,2.307,0.0,0.0,0.0,0.0,0.0,2.3095,2.3487,2.3988,2.454,2.4741,2.5067,2.6105,0.0,0.0,0.0,0.0,2.6625,2.7085,2.7236,2.762,2.8631,2.9258,2.9679,2.9779,3.0708,3.1406,3.1406,3.2411,3.309,3.309,3.4073,3.4703,3.4703,3.5753,3.6405,3.6405,3.7312,3.7861,3.7861,3.8827,3.936,3.936,3.8514,3.9089,4.1056,4.1441,4.2111,4.3021,4.323,4.329,4.3319,4.3997,4.4356,4.4556,4.5792,4.636,4.651,4.71,4.7309,4.7309,4.7309,4.7309,4.7309,0.0,0.0,0.0,0.0,0.0,0.0,0.0,0.0,0.0,0.0,0.0,0.0,0.0,0.0,0.0,0.0,0.0,0.0,0.0,0.0,0.0,0.0,2.361,2.361,2.361,2.361,2.361,2.361,2.361,2.361,2.361,2.361,2.2722,2.1149,2.1246,2.1076,2.0645,2.0055,0.0,0.0,0.0,0.0,0.0,0.0,0.0,0.0,0.0,0.0,0.0,0.0,2.2659,2.3095,2.3095,0.0,0.0,0.0,0.0,0.0,2.3095,2.3537,2.413,2.4666,2.5017,2.546,2.6298,0.0,0.0,0.0,2.6725,2.7027,2.7261,2.777,2.8448,2.9233,2.9628,2.9905,3.0206,3.0909,3.1507,3.1813,3.2587,3.309,3.309,3.3796,3.4377,3.4678,3.6069,3.7,3.7309,3.8424,3.9072,3.9072,3.9601,4.0189,4.081,4.0268,4.0526,4.1608,4.2214,4.28,4.329,4.329,4.329,4.3339,4.3638,4.3967,4.4356,4.4954,4.5642,4.633,4.6629,4.698,4.7309,4.7309,4.7309,4.7309,0.0,0.0,0.0,0.0,0.0,0.0,0.0,0.0,0.0,0.0,0.0,0.0,0.0,0.0,0.0,0.0,0.0,0.0,0.0,0.0,2.361,2.361,2.361,2.361,2.361,2.361,2.361,2.361,2.361,2.361,2.3599,2.3297,2.2121,2.0257,2.0952,2.0693,1.9811,1.9811,1.9811,0.0,0.0,0.0,0.0,0.0,0.0,0.0,0.0,0.0,0.0,0.0,0.0,0.0,0.0,0.0,0.0,2.3095,2.3095,2.312,2.3271,2.3738,2.433,2.4842,2.531,2.5778,2.6373,2.6499,2.6541,2.665,2.701,2.7386,2.762,2.8455,2.9258,2.9729,2.9804,2.998,3.0512,3.106,3.1587,3.2139,3.2717,3.309,3.309,3.3571,3.4123,3.4653,3.6304,3.7523,3.8081,3.9514,4.0296,4.0296,4.0554,4.1134,4.1988,4.2009,4.2009,4.2009,4.288,4.329,4.329,4.329,4.329,4.329,4.329,4.3609,4.4087,4.4237,4.4895,4.5852,4.6181,4.6719,4.7309,4.7309,4.7309,4.7309,0.0,0.0,0.0,0.0,0.0,0.0,0.0,0.0,0.0,0.0,0.0,0.0,0.0,0.0,0.0,0.0,0.0,0.0,0.0,0.0,2.361,2.361,2.361,2.361,2.361,2.361,2.361,2.361,2.361,2.361,2.3588,2.2386,2.1746,2.1532,2.0421,1.9876,1.9811,1.9811,1.9811,1.9811,0.0,0.0,0.0,0.0,0.0,0.0,0.0,0.0,0.0,0.0,0.0,0.0,0.0,0.0,2.3095,2.3095,2.3095,2.3221,2.3763,2.4315,2.4867,2.541,2.5561,2.5778,2.6373,2.6499,2.665,2.7135,2.7261,2.7595,2.8605,2.9327,2.9754,2.9779,2.9804,2.998,3.0512,3.106,3.1587,3.2139,3.2717,3.309,3.309,3.3571,3.4123,3.4653,3.6304,3.7523,3.8081,4.0247,4.1483,4.1483,4.2508,4.3081,4.319,4.319,4.319,4.319,4.327,4.329,4.329,4.329,4.329,4.329,4.329,4.3319,4.3409,4.4027,4.4356,4.4566,4.5822,4.6719,4.7309,4.7309,4.7309,4.7309,0.0,0.0,0.0,0.0,0.0,0.0,0.0,0.0,0.0,0.0,0.0,0.0,0.0,0.0,0.0,0.0,0.0,0.0,0.0,0.0,2.361,2.361,2.361,2.361,2.361,2.361,2.361,2.361,2.361,2.3395,2.3031,2.2924,2.2455,2.1687,2.1207,2.0781,2.0384,1.9965,2.0025,2.0365,2.0365,0.0,0.0,0.0,0.0,0.0,0.0,0.0,0.0,0.0,2.3095,2.3095,2.3095,2.3095,2.3095,2.3095,2.3095,2.3221,2.3853,2.439,2.4917,2.546,2.5879,2.6223,2.6449,2.6751,2.7077,2.7261,2.7821,2.853,2.9327,2.9654,2.9804,2.9804,3.008,3.0482,3.1009,3.1562,3.2114,3.2692,3.2964,3.309,3.309,3.3291,3.39,3.5106,3.6839,3.8367,3.957,4.155,4.2649,4.2649,4.3061,4.329,4.329,4.329,4.329,4.329,4.329,4.329,4.329,4.329,4.329,4.329,4.329,4.329,4.3319,4.3579,4.3938,4.4416,4.5762,4.645,4.6719,4.716,4.7309,4.7309,0.0,0.0,0.0,0.0,0.0,0.0,0.0,0.0,0.0,0.0,0.0,0.0,0.0,0.0,0.0,0.0,0.0,0.0,0.0,0.0,2.361,2.361,2.361,2.361,2.361,2.361,2.361,2.361,2.361,2.3384,2.2987,2.3209,2.2745,2.171,2.171,2.1244,2.0485,2.0412,2.0498,2.0717,2.0893,2.1281,0.0,0.0,0.0,0.0,0.0,0.0,0.0,0.0,2.3095,2.3095,2.3095,2.3095,2.3095,2.3095,2.3221,2.3512,2.4089,2.4641,2.5184,2.5737,2.6197,2.6549,2.6725,2.7052,2.7412,2.7738,2.8549,2.9308,2.9729,2.9804,2.9804,2.9804,3.0256,3.0809,3.1311,3.1863,3.2416,3.304,3.3386,3.3471,3.3133,3.3679,3.4476,3.5431,3.7291,3.8936,4.0219,4.202,4.301,4.301,4.322,4.329,4.329,4.329,4.329,4.329,4.329,4.329,4.329,4.329,4.329,4.329,4.329,4.329,4.329,4.329,4.3698,4.4386,4.5313,4.5942,4.636,4.6809,4.713,4.7309,0.0,0.0,0.0,0.0,0.0,0.0,0.0,0.0,0.0,0.0,0.0,0.0,0.0,0.0,0.0,0.0,0.0,0.0,0.0,2.361,2.361,2.361,2.361,2.361,2.361,2.361,2.361,2.361,2.361,2.361,2.3599,2.2987,0.0,0.0,2.171,2.1001,1.99,2.1095,2.1263,2.078,2.1295,2.182,2.2307,0.0,0.0,0.0,0.0,0.0,0.0,0.0,2.3095,2.3095,2.3095,2.3095,2.3095,2.312,2.3537,2.413,2.4666,2.5209,2.5737,2.6348,2.6499,2.665,2.7185,2.7311,2.7595,2.8681,2.9383,2.9804,2.9804,2.9804,2.9804,2.9804,3.0256,3.0789,3.1311,3.1863,3.2441,3.3061,3.4037,3.4262,3.3219,3.4973,3.6,3.5532,3.7554,3.9053,3.9578,4.1391,4.2381,4.241,4.3,4.329,4.329,4.329,4.329,4.329,4.329,4.329,4.329,4.329,4.329,4.329,4.329,4.329,4.329,4.329,4.3698,4.4296,4.4296,4.5104,4.63,4.63,4.6719,4.7309,0.0,0.0,0.0,0.0,0.0,0.0,0.0,0.0,0.0,0.0,0.0,0.0,0.0,0.0,0.0,0.0,0.0,0.0,0.0,2.361,2.361,2.361,2.361,2.361,2.361,2.361,2.361,2.361,2.361,2.361,2.361,2.3406,0.0,2.3031,0.0,0.0,2.2486,2.1825,2.1954,2.2577,2.2223,2.2383,2.2869,0.0,0.0,0.0,0.0,0.0,0.0,0.0,0.0,0.0,2.3095,2.3095,2.317,2.3612,2.3853,2.4205,2.5109,2.5485,2.5737,2.6348,2.6776,2.7211,2.7745,2.7871,2.8172,2.9302,2.9679,2.9804,2.9804,2.9804,2.9905,3.0306,3.0809,3.1361,3.1888,3.2466,3.3187,3.4116,3.3827,3.3768,3.4183,3.4774,3.5379,3.5939,3.7738,3.9208,4.0111,4.1143,4.1912,4.2381,4.2571,4.288,4.329,4.329,4.329,4.329,4.329,4.329,4.329,4.329,4.329,4.329,4.329,4.329,4.329,4.329,4.3429,4.3638,4.4117,4.4835,4.5663,4.6121,4.6719,4.7309,0.0,0.0,0.0,0.0,0.0,0.0,0.0,0.0,0.0,0.0,0.0,0.0,0.0,0.0,0.0,0.0,0.0,0.0,0.0,0.0,2.361,2.361,2.361,2.361,2.361,2.361,2.361,2.361,2.361,2.361,2.361,0.0,2.3609,2.3621,0.0,2.3072,2.3239,2.2521,2.2494,2.2956,2.2723,2.2819,2.3095,0.0,0.0,0.0,0.0,0.0,0.0,0.0,0.0,0.0,2.3095,2.3271,2.3537,2.3904,2.4305,2.4782,2.541,2.5778,2.603,2.6399,2.6901,2.7512,2.8247,2.8599,2.8976,2.9654,2.9804,2.9804,2.9804,3.0101,3.0413,3.0567,3.1376,3.2031,3.2181,3.3094,3.3974,3.4635,3.4856,3.5061,3.5258,3.6061,3.6632,3.6799,3.8179,3.9319,3.9971,4.0636,4.1194,4.1583,4.1852,4.2301,4.294,4.294,4.304,4.329,4.329,4.329,4.329,4.329,4.329,4.329,4.329,4.329,4.329,4.329,4.329,4.3319,4.3758,4.4296,4.4975,4.5663,4.633,4.6929,0.0,0.0,0.0,0.0,0.0,0.0,0.0,0.0,0.0,0.0,2.361,0.0,0.0,0.0,0.0,0.0,0.0,0.0,0.0,0.0,2.361,2.361,2.361,2.361,2.361,2.361,2.361,2.361,2.361,2.361,0.0,0.0,2.3722,2.3774,0.0,2.3407,2.2977,2.3277,2.3119,2.2712,2.2984,2.314,2.32,2.3125,0.0,0.0,0.0,0.0,0.0,0.0,0.0,0.0,2.317,2.3562,2.4029,2.413,2.4833,2.5611,2.5678,2.608,2.6499,2.6499,2.6952,2.7663,2.8731,2.9428,2.9804,2.9804,2.9804,2.9818,2.9914,3.062,3.1142,3.0973,3.1992,3.2723,3.2581,3.3799,3.4753,3.4959,3.6554,3.7291,3.6428,3.8096,3.8852,3.7881,3.8797,3.9391,3.9391,3.9978,4.0337,4.0397,4.0984,4.1613,4.2291,4.2381,4.269,4.322,4.326,4.329,4.329,4.329,4.329,4.329,4.329,4.329,4.329,4.329,4.329,4.329,4.329,4.3728,4.4356,4.5035,4.5723,4.639,0.0,0.0,0.0,0.0,0.0,0.0,0.0,0.0,0.0,0.0,0.0,0.0,0.0,0.0,0.0,0.0,0.0,0.0,0.0,0.0,2.361,2.361,2.361,2.361,2.361,2.361,2.361,2.361,2.361,0.0,0.0,0.0,0.0,2.443,0.0,2.5325,2.5662,2.4558,2.4676,2.5465,2.3776,2.3484,2.3959,2.3335,2.3095,0.0,0.0,0.0,0.0,0.0,0.0,0.0,2.3662,2.3904,2.418,2.5008,2.541,2.5703,2.6172,2.6399,2.6499,2.6499,2.7211,2.8222,2.9352,2.9704,2.9804,2.9804,2.9804,3.003,3.0771,3.1063,3.1716,3.3325,3.3134,3.339,3.5082,3.4954,3.5305,3.6952,3.6788,3.678,3.7415,3.7881,3.805,3.7824,3.8797,3.9391,3.9391,3.9541,3.984,4.0397,4.0546,4.0954,4.1613,4.2141,4.247,4.2601,4.307,4.329,4.329,4.329,4.329,4.329,4.329,4.329,4.329,4.329,4.329,4.329,4.329,4.3728,4.4356,4.5035,4.5723,4.639,0.0,0.0,0.0,0.0,0.0,0.0,0.0,0.0,0.0,0.0,0.0,0.0,0.0,0.0,0.0,0.0,0.0,0.0,0.0,0.0,0.0,0.0,2.361,2.361,2.361,2.361,2.3759,2.4077,0.0,0.0,0.0,0.0,0.0,2.5549,0.0,2.5897,2.6473,2.5329,2.5077,2.5329,2.4149,2.3706,2.3691,2.326,2.3095,2.3095,2.3095,0.0,0.0,0.0,0.0,0.0,0.0,0.0,2.4883,2.5435,2.5804,2.6105,2.6424,2.6499,2.6625,2.7135,2.7871,2.8706,2.9603,3.0139,3.0343,2.9895,3.0158,3.0495,3.0533,3.1628,3.2809,3.3601,3.402,3.4716,3.6026,3.62,3.6574,3.7663,3.7757,3.7946,3.8509,3.8564,3.8564,3.8564,3.9071,3.9391,3.9391,3.9391,3.9571,3.99,3.99,4.0247,4.0905,4.1283,4.1762,4.241,4.272,4.301,4.329,4.329,4.329,4.329,4.329,4.329,4.329,4.329,4.329,4.329,4.329,4.3499,4.3938,4.4945,4.5514,4.5942,0.0,0.0,0.0,0.0,0.0,0.0,0.0,0.0,0.0,0.0,0.0,0.0,0.0,0.0,0.0,0.0,0.0,0.0,0.0,0.0,0.0,0.0,2.361,2.361,2.361,2.3699,2.4048,0.0,0.0,0.0,0.0,0.0,0.0,2.659,0.0,2.6175,2.6628,2.5906,2.5301,2.4865,2.4595,2.4163,2.3651,2.341,2.3356,2.3442,2.3291,2.3321,2.3396,2.3396,0.0,0.0,0.0,0.0,2.5611,2.5711,2.6105,2.6499,2.6499,2.6575,2.6901,2.7971,2.858,2.9057,2.9654,3.0533,3.097,3.0196,3.079,3.1212,3.0419,3.2317,3.393,3.3799,3.4947,3.61,3.6669,3.7348,3.7881,3.805,3.887,3.9391,3.9391,3.9391,3.9391,3.9391,3.9391,3.9391,3.9391,3.9391,3.9391,3.9391,3.9391,3.966,4.0217,4.0337,4.0954,4.2081,4.2291,4.272,4.329,4.329,4.329,4.329,4.329,4.329,4.329,4.329,4.329,4.329,4.329,4.329,4.3439,4.4796,4.5304,4.5484,0.0,0.0,0.0,0.0,0.0,0.0,0.0,0.0,0.0,0.0,2.361,0.0,0.0,0.0,0.0,0.0,0.0,0.0,0.0,0.0,0.0,0.0,2.361,2.361,2.361,2.4167,2.4515,0.0,0.0,0.0,0.0,0.0,0.0,2.6614,0.0,0.0,2.7408,2.6654,2.6667,2.7045,2.5755,2.5563,2.5919,0.0,0.0,0.0,2.4126,2.4164,2.4566,2.4566,2.4641,0.0,0.0,0.0,2.5703,2.6223,2.6424,2.6499,2.6499,2.6851,2.7462,2.853,2.8856,2.9057,2.9654,3.0533,3.1148,3.1044,3.1756,3.2361,3.2236,3.3203,3.4616,3.6499,3.6282,3.6621,3.8663,3.8294,3.8144,3.9071,3.9301,3.9391,3.9391,3.9391,3.9391,3.9391,3.9391,3.9391,3.9391,3.9391,3.9391,3.9391,3.9391,3.9451,3.9541,4.0127,4.0487,4.0666,4.1822,4.272,4.329,4.329,4.329,4.329,4.329,4.329,4.329,4.329,4.329,4.329,4.329,4.329,4.3439,4.4796,4.5304,4.5484,0.0,0.0,0.0,0.0,0.0,0.0,0.0,0.0,0.0,0.0,0.0,2.361,0.0,0.0,0.0,0.0,0.0,0.0,0.0,0.0,0.0,0.0,0.0,2.4167,2.4167,2.4825,0.0,0.0,0.0,0.0,0.0,2.7165,2.7165,0.0,0.0,0.0,0.0,2.7255,2.7074,2.6974,2.6681,2.6523,0.0,0.0,0.0,0.0,0.0,0.0,2.4816,2.4816,2.4992,2.5285,2.5536,0.0,0.0,0.0,2.6499,2.6575,2.6876,2.7336,2.7921,2.8706,2.9157,2.9606,3.0398,3.1323,3.1965,3.1965,3.3185,3.3888,3.2788,3.3837,3.51,3.5925,3.6417,3.7216,3.862,3.8761,3.887,3.9337,3.9391,3.9391,3.9391,3.9391,3.9391,3.9391,3.9391,3.9391,3.9391,3.9391,3.9391,3.9391,3.9391,3.9391,3.9391,3.969,4.0038,4.0427,4.1762,4.2541,4.2791,4.316,4.329,4.329,4.329,4.329,4.329,4.329,4.329,4.329,4.329,4.329,4.3439,4.4796,4.5304,4.5484,0.0,0.0,0.0,0.0,0.0,0.0,0.0,0.0,0.0,0.0,0.0,0.0,0.0,0.0,0.0,0.0,0.0,0.0,0.0,0.0,0.0,0.0,0.0,0.0,2.4844,2.5513,0.0,0.0,0.0,0.0,2.7585,2.7585,2.7585,0.0,2.7585,0.0,0.0,0.0,0.0,0.0,0.0,2.769,0.0,0.0,0.0,0.0,0.0,0.0,0.0,2.5865,2.5986,2.612,2.612,2.6291,0.0,0.0,0.0,2.7078,2.7415,2.7896,2.8504,2.9295,2.9808,3.04,3.1333,3.2272,3.2947,3.2947,3.4324,3.505,3.3584,3.4509,3.5485,3.539,3.6381,3.7404,3.8033,3.8721,3.9152,3.9152,3.9302,3.9391,3.9391,3.9391,3.9391,3.9391,3.9391,3.9391,3.9391,3.9391,3.9391,3.9391,3.9391,3.9391,3.9391,3.9391,3.972,4.0397,4.1583,4.2231,4.241,4.301,4.329,4.329,4.329,4.329,4.329,4.329,4.329,4.329,4.329,4.329,4.3439,4.4796,4.5304,4.5484,0.0,0.0,0.0,0.0,0.0,0.0,0.0,0.0,0.0,0.0,0.0,0.0,0.0,0.0,0.0,2.361,0.0,0.0,0.0,0.0,0.0,0.0,0.0,0.0,0.0,0.0,0.0,0.0,0.0,0.0,2.7585,2.7585,2.7585,2.7585,2.7585,2.7585,2.7645,0.0,0.0,0.0,0.0,0.0,0.0,0.0,0.0,0.0,0.0,0.0,0.0,2.8766,2.8233,2.7584,2.7584,2.7086,2.6645,0.0,0.0,0.0,2.8131,2.8455,2.9226,3.0712,3.1111,3.137,3.2307,3.3244,3.3927,3.3927,3.4773,3.5457,3.5359,3.5424,3.5712,3.6307,3.649,3.6746,3.7375,3.8033,3.8452,3.8452,3.902,3.9391,3.9391,3.9391,3.9391,3.9391,3.9391,3.9391,3.9391,3.9391,3.9391,3.9391,3.9391,3.9391,3.9391,3.9391,3.972,4.0397,4.1104,4.1762,4.241,4.301,4.329,4.329,4.329,4.329,4.329,4.329,4.329,4.329,4.329,4.329,4.3439,4.4796,4.5304,4.5484,0.0,0.0,0.0,0.0,0.0,0.0,0.0,0.0,0.0,0.0,0.0,0.0,0.0,0.0,2.361,2.361,2.361,0.0,0.0,0.0,0.0,0.0,0.0,0.0,0.0,0.0,0.0,0.0,0.0,2.7585,2.7585,2.7585,2.7824,2.8231,2.8231,2.8231,2.8291,2.8949,0.0,0.0,0.0,0.0,0.0,0.0,0.0,0.0,0.0,2.9292,2.9002,2.9002,2.8796,2.8524,0.0,0.0,2.8249,2.8969,2.9313,2.9611,3.0304,3.0601,3.0967,3.1884,3.2092,3.2325,3.329,3.3756,3.4177,3.4822,3.5231,3.5519,3.5519,3.5519,3.5579,3.5818,3.6207,3.6583,3.6776,3.7375,3.7913,3.835,3.8601,3.8931,3.9361,3.9391,3.9391,3.9391,3.9391,3.9391,3.9391,3.9391,3.9391,3.9391,3.9391,3.9391,3.9391,3.9391,3.9511,3.975,4.0427,4.1104,4.1762,4.2421,4.294,4.329,4.329,4.329,4.329,4.329,4.329,4.329,4.329,4.329,4.3439,4.4796,4.5304,4.5484,0.0,0.0,0.0,0.0,0.0,0.0,0.0,0.0,0.0,0.0,0.0,0.0,0.0,0.0,2.4029,2.4238,2.4268,2.4466,2.4903,2.4933,0.0,0.0,0.0,0.0,0.0,0.0,0.0,0.0,0.0,0.0,0.0,2.7944,2.8291,2.8936,2.9146,2.9116,0.0,0.0,0.0,2.9967,0.0,0.0,3.0897,0.0,0.0,0.0,3.0703,3.0329,2.9857,3.01,2.9985,2.9722,0.0,0.0,0.0,0.0,0.0,0.0,3.166,3.1934,3.2218,3.2916,3.3052,3.3325,3.4279,3.4509,3.4677,3.5359,3.5519,3.5519,3.5519,3.5519,3.5519,3.5519,3.5878,3.6148,3.6148,3.6686,3.7255,3.7721,3.7943,3.8332,3.902,3.9062,3.9152,3.9391,3.9391,3.9391,3.9391,3.9391,3.9391,3.9391,3.9391,3.9391,3.9391,3.9391,3.9391,3.9421,4.0098,4.0756,4.1433,4.2092,4.275,4.329,4.329,4.329,4.329,4.329,4.329,4.329,4.329,4.329,4.3439,4.4796,4.5304,4.5484,0.0,0.0,0.0,0.0,0.0,0.0,0.0,0.0,0.0,0.0,0.0,0.0,0.0,0.0,0.0,2.5543,2.5603,2.5603,2.5633,2.5633,0.0,0.0,0.0,0.0,0.0,0.0,0.0,0.0,0.0,0.0,0.0,0.0,2.9009,2.9638,3.0253,3.0193,2.9698,0.0,3.0522,3.0582,0.0,3.1511,3.1511,0.0,3.154,3.154,3.154,3.157,3.166,3.2303,3.1956,3.1268,0.0,0.0,0.0,0.0,0.0,0.0,0.0,0.0,0.0,3.3808,3.403,3.4295,3.5294,3.5519,3.5519,3.5519,3.5519,3.5519,3.5519,3.5519,3.5519,3.5519,3.5519,3.5519,3.5519,3.6058,3.6493,3.6493,3.7015,3.7644,3.832,3.8362,3.8661,3.9331,3.9361,3.9391,3.9391,3.9391,3.9391,3.9391,3.9391,3.9391,3.9391,3.9391,3.9391,3.9421,4.0068,4.0726,4.1433,4.2081,4.272,4.329,4.329,4.329,4.329,4.329,4.329,4.329,4.329,4.329,4.3489,4.4825,4.5304,4.5514,0.0,0.0,0.0,0.0,0.0,0.0,0.0,0.0,0.0,0.0,0.0,0.0,0.0,0.0,0.0,2.5573,2.5603,2.5824,2.6273,2.6303,2.6614,2.7285,2.7315,2.7405,0.0,0.0,0.0,0.0,0.0,0.0,0.0,0.0,0.0,0.0,3.0432,3.0687,3.0987,3.1152,0.0,3.1241,3.1421,3.1511,3.154,3.2019,3.2213,3.2303,3.2751,3.2946,3.2976,3.3155,3.3078,3.2864,0.0,0.0,0.0,0.0,0.0,0.0,3.4424,0.0,0.0,0.0,0.0,0.0,3.5424,3.5519,3.5519,3.5519,3.5519,3.5519,3.5519,3.5519,3.5519,3.5519,3.5519,3.5519,3.5519,3.5669,3.5968,3.6434,3.6643,3.6985,3.7614,3.7674,3.7943,3.8631,3.8691,3.8901,3.9361,3.9391,3.9391,3.9391,3.9391,3.9391,3.9391,3.9391,3.9391,3.9391,3.9601,4.0277,4.1403,4.1583,4.2252,4.329,4.329,4.329,4.329,4.329,4.329,4.329,4.329,4.3609,4.4117,4.4975,4.5603,4.6248,0.0,0.0,0.0,0.0,0.0,0.0,0.0,0.0,0.0,0.0,0.0,0.0,0.0,0.0,0.0,2.6393,2.6422,2.6614,2.6973,2.7016,2.7195,2.7585,2.7585,2.7585,2.7585,2.7585,2.7735,2.8021,2.8397,2.8876,2.9415,2.9774,0.0,0.0,0.0,0.0,0.0,0.0,0.0,3.1899,3.1899,3.2079,3.2392,3.2766,3.2916,3.2976,3.3365,3.3484,3.3544,3.3829,3.3919,3.3979,3.4233,0.0,0.0,0.0,0.0,0.0,0.0,0.0,0.0,3.5519,0.0,0.0,3.5519,3.5519,3.5519,3.5519,3.5519,3.5519,3.5519,3.5519,3.5519,3.5519,3.5519,3.5519,3.5519,3.5519,3.5639,3.6028,3.6088,3.6327,3.6956,3.7015,3.7285,3.7943,3.7973,3.8272,3.896,3.9242,3.9391,3.9391,3.9391,3.9391,3.9391,3.9391,3.9391,3.9391,3.9391,4.0098,4.1403,4.1403,4.2102,4.329,4.329,4.329,4.329,4.329,4.329,4.329,4.329,4.3728,4.4356,4.5035,4.5985,4.7097,0.0,0.0,0.0,0.0,0.0,0.0,0.0,0.0,0.0,0.0,0.0,0.0,0.0,0.0,0.0,0.0,2.7735,2.7698,2.7698,2.7635,0.0,2.7705,2.7705,2.7735,2.7824,2.7824,2.8111,2.8697,2.8786,2.9385,3.0492,3.0582,3.0987,3.16,0.0,0.0,0.0,0.0,3.2632,3.2736,3.2632,3.2976,3.3514,3.3574,3.3604,3.3604,3.3709,3.3724,3.3814,3.4398,3.4607,3.4727,3.531,3.507,3.4727,0.0,3.5519,0.0,0.0,0.0,0.0,0.0,3.5519,0.0,3.5519,3.5519,3.5519,3.5519,3.5519,3.5519,3.5519,3.5519,3.5519,3.5519,3.5519,3.5519,3.5519,3.5519,3.5519,3.5519,3.5519,3.5729,3.6344,3.6404,3.6626,3.7255,3.7357,3.7704,3.838,3.896,3.9331,3.9391,3.9391,3.9391,3.9391,3.9391,3.9391,3.9391,3.9391,4.0098,4.1403,4.1403,4.2102,4.329,4.329,4.329,4.329,4.329,4.329,4.329,4.329,4.3838,4.4649,4.525,4.66,4.8184,0.0,0.0,0.0,0.0,0.0,0.0,0.0,0.0,0.0,0.0,0.0,0.0,0.0,0.0,0.0,0.0,0.0,2.8319,2.8319,2.7872,2.7854,2.838,2.8397,2.865,2.9202,2.9189,2.9279,2.9398,2.9894,3.0253,3.0522,3.1032,3.166,3.2303,0.0,0.0,0.0,0.0,3.362,3.4069,3.3514,3.3395,3.3544,3.4099,3.4308,3.4368,3.4921,3.51,3.513,3.525,3.531,3.534,3.5459,3.54,3.534,3.5459,3.5519,0.0,0.0,0.0,0.0,3.5519,3.5519,0.0,3.5519,3.5519,3.5519,3.5519,3.5519,3.5519,3.5519,3.5519,3.5519,3.5519,3.5519,3.5519,3.5519,3.5519,3.5519,3.5519,3.5519,3.5549,3.5699,3.5699,3.5968,3.6626,3.7135,3.7704,3.838,3.8512,3.8841,3.9391,3.9391,3.9391,3.9391,3.9391,3.9391,3.9391,3.9391,4.0098,4.1403,4.1403,4.2102,4.329,4.329,4.329,4.329,4.329,4.329,4.329,4.329,4.4576,4.6405,4.6528,4.7985,5.0012,0.0,0.0,0.0,0.0,0.0,0.0,0.0,0.0,0.0,0.0,0.0,0.0,0.0,0.0,0.0,0.0,0.0,0.0,0.0,0.0,2.9744,3.0061,3.0105,3.0248,3.0589,3.0584,3.0613,3.0613,3.0883,3.1166,3.1495,3.1854,3.2362,3.3006,0.0,0.0,0.0,3.4009,3.4398,3.4937,3.4278,3.4218,3.4532,3.4861,3.4997,3.504,3.537,3.5519,3.5519,3.5519,3.5519,3.5519,3.5519,3.5519,3.5519,3.5519,3.5519,3.5519,3.5519,3.5519,3.5519,3.5519,3.5519,0.0,0.0,3.5519,3.5519,3.5519,3.5519,3.5519,3.5519,3.5519,3.5519,3.5519,3.5519,3.5519,3.5519,3.5519,3.5519,3.5519,3.5519,3.5519,3.5519,3.5519,3.5639,3.5968,3.6596,3.7105,3.7451,3.805,3.8542,3.8901,3.9212,3.9391,3.9391,3.9391,3.9391,3.9391,3.9391,4.0098,4.1403,4.1403,4.2102,4.329,4.329,4.329,4.329,4.329,4.329,4.3319,4.3668,4.475,4.6213,4.704,4.8635,5.0531,2.9237,0.0,0.0,0.0,0.0,0.0,0.0,0.0,0.0,0.0,0.0,0.0,0.0,0.0,0.0,0.0,0.0,0.0,0.0,0.0,3.1658,3.1775,3.1775,3.1839,3.1987,3.1846,3.184,3.1964,3.1776,3.2019,3.2691,3.2691,3.3066,3.3709,3.3709,0.0,0.0,0.0,3.5027,3.5459,3.4907,3.5011,3.5519,3.5519,3.5519,3.5519,3.5519,3.5519,3.5519,3.5519,3.5519,3.5519,3.5519,3.5519,3.5519,3.5519,3.5519,3.5519,3.5519,3.5519,3.5519,3.5519,3.5519,3.5519,0.0,0.0,0.0,3.5519,3.5519,3.5519,3.5519,3.5519,3.5519,3.5519,3.5519,3.5519,3.5519,3.5519,3.5519,3.5519,3.5519,3.5519,3.5519,3.5519,3.5519,3.5519,3.5998,3.6374,3.6493,3.7601,3.829,3.8409,3.9032,3.9391,3.9391,3.9391,3.9391,3.9391,3.9541,4.0217,4.1403,4.1523,4.2222,4.329,4.329,4.329,4.329,4.329,4.3399,4.3569,4.4298,4.5143,4.6103,4.7777,4.9502,5.1099,3.0098,2.9963,0.0,0.0,0.0,0.0,0.0,0.0,0.0,0.0,0.0,0.0,0.0,0.0,0.0,0.0,0.0,0.0,3.2406,0.0,0.0,0.0,3.2476,3.2752,3.3367,3.2805,3.2757,3.3273,3.267,3.2721,3.3395,3.3395,3.3724,3.4368,3.4368,3.4757,0.0,3.54,3.5429,3.5489,3.5429,3.5429,3.5519,3.5519,3.5519,3.5519,3.5519,3.5519,3.5519,3.5519,3.5519,3.5519,3.5519,3.5519,3.5519,3.5519,3.5519,3.5519,3.5519,3.5519,3.5519,3.5519,3.5519,3.5519,3.5519,0.0,3.5519,3.5519,0.0,3.5519,3.5519,0.0,0.0,3.5519,3.5519,3.5519,3.5519,3.5519,3.5519,3.5519,3.5519,3.5519,3.5519,3.5519,3.5519,3.5519,3.5579,3.5878,3.6464,3.7135,3.7793,3.838,3.9032,3.9391,3.9391,3.9391,3.9391,3.9421,4.0008,4.0666,4.1433,4.2021,4.2661,4.329,4.329,4.329,4.329,4.329,4.3668,4.4278,4.534,4.6673,4.8257,4.9935,5.1631,5.3144,3.0784,3.0751,0.0,0.0,0.0,0.0,0.0,0.0,0.0,0.0,0.0,0.0,0.0,0.0,0.0,0.0,0.0,3.4287,3.4287,3.4071,0.0,0.0,3.5039,3.537,3.6063,3.5402,3.518,3.5412,3.4739,3.475,3.5423,3.5423,3.5531,3.5721,3.5721,3.5638,3.5519,3.5519,3.5519,3.5519,3.5519,3.5519,3.5519,3.5519,3.5519,3.5519,3.5519,3.5519,3.5519,3.5519,3.5519,3.5519,3.5519,3.5519,3.5519,3.5519,3.5519,3.5519,3.5519,3.5519,3.5519,3.5519,3.5519,3.5519,3.5519,3.5519,3.5519,3.5519,0.0,0.0,0.0,0.0,0.0,0.0,3.5519,3.5519,3.5519,3.5519,3.5519,3.5519,3.5519,3.5519,3.5519,3.5519,3.5519,3.5519,3.5519,3.5639,3.5908,3.6866,3.7524,3.7823,3.8853,3.9391,3.9391,3.9391,3.9391,3.9421,4.0098,4.0756,4.1433,4.2092,4.275,4.329,4.329,4.329,4.329,4.329,4.4066,4.5382,4.6787,4.765,4.8313,5.0609,5.1925,5.2662,3.1799,0.0,0.0,0.0,3.1674,0.0,0.0,0.0,0.0,0.0,0.0,0.0,3.3987,3.4461,0.0,0.0,3.5622,3.6017,3.6219,3.6242,3.649,3.7088,3.7088,3.7359,3.7877,3.7191,3.6884,3.7056,3.64,3.6415,3.7078,3.7078,3.7005,3.6919,3.6919,3.6631,3.6117,3.6117,3.6021,3.5814,3.5814,3.57,3.5519,3.5519,3.5519,3.5519,3.5519,3.5519,3.5519,3.5519,3.5519,3.5519,3.5519,3.5519,3.5519,3.5519,3.5519,3.5519,3.5519,3.5519,3.5519,3.5519,3.5519,3.5519,3.5519,3.5519,3.5519,3.5519,3.5519,0.0,0.0,0.0,3.5519,3.5519,0.0,3.5519,3.5519,3.5519,3.5519,3.5519,3.5519,3.5519,3.5519,3.5519,3.5519,3.5519,3.5519,3.5587,3.5798,3.6804,3.7507,3.7714,3.906,3.9755,3.9755,3.9755,3.9755,3.9755,4.0376,4.0924,4.1433,4.2271,4.288,4.329,4.329,4.329,4.3309,4.3595,4.4655,4.6344,4.8098,4.8816,4.9182,5.1507,5.233,5.2436,3.3311,3.2757,0.0,0.0,3.2848,3.3355,3.3345,3.3379,3.366,3.4381,3.4449,3.4742,3.543,3.5532,3.5881,3.666,3.6761,3.7054,3.7775,3.7843,3.7855,3.7843,3.7843,3.7889,3.791,3.7191,3.7122,3.7768,3.7104,3.7096,3.7775,3.7775,3.7761,3.7764,3.7764,3.7764,3.7735,3.7735,3.7294,3.6554,3.6554,3.6134,3.5519,3.5519,3.5519,3.5519,3.5519,3.5519,3.5519,3.5519,3.5519,3.5519,3.5519,3.5519,3.5519,3.5519,3.5519,3.5519,3.5519,3.5519,3.5519,3.5519,3.5519,3.5519,3.5519,3.5519,3.5519,3.5519,3.5519,3.5519,3.5519,3.5519,0.0,0.0,0.0,0.0,0.0,3.5519,3.5519,3.5519,3.5519,3.5519,3.5519,3.5519,3.5519,3.5519,3.5519,3.5814,3.6538,3.7105,3.7748,3.853,3.9941,4.0656,4.0656,4.0656,4.0656,4.0639,4.1128,4.1373,4.1433,4.2681,4.326,4.329,4.329,4.329,4.3369,4.4339,4.5587,4.7056,4.9011,5.0568,5.1906,5.3008,5.3433,5.3433,0.0,0.0,0.0,0.0,3.322,3.3548,3.4066,3.4529,3.4968,3.5205,3.569,3.6107,3.6378,3.684,3.7234,3.7516,3.7516,3.7618,3.7877,3.791,3.8125,3.8599,3.8633,3.8882,3.9356,3.9122,3.911,3.9306,3.908,3.9095,3.9335,3.9335,3.9035,3.8525,3.8525,3.826,3.7807,3.7807,3.7322,3.6569,3.6085,3.6022,3.6165,3.57,3.5519,3.5519,3.5519,3.5519,3.5519,3.5519,3.5519,3.5519,3.5519,3.5519,3.5519,3.5519,3.5519,3.5519,3.5519,3.5519,3.5519,3.5519,3.5519,3.5519,3.5519,3.5519,3.5519,3.5519,3.5519,3.5519,3.5519,3.5519,0.0,0.0,0.0,0.0,0.0,3.5519,3.5519,3.5519,3.5519,3.5519,3.5519,3.5519,3.5519,3.5519,3.5519,3.6027,3.7266,3.7923,3.8846,4.0135,4.1069,4.1544,4.1544,4.1012,4.0707,4.0721,4.1176,4.173,4.2358,4.2993,4.3654,4.4274,4.3576,4.329,4.3359,4.4156,4.5816,4.8001,4.913,5.094,5.2991,5.3365,5.3518,5.3518,3.419,0.0,3.499,3.3964,3.4235,3.4787,3.5261,3.596,3.6422,3.6422,3.6874,3.719,3.719,3.7618,3.8012,3.8261,3.8294,3.8396,3.8667,3.8667,3.887,3.9356,3.9389,3.9592,4.0079,4.0113,4.0113,4.0113,4.0113,4.0113,4.0113,4.0113,3.9837,3.9328,3.9328,3.9076,3.8627,3.8627,3.8161,3.7335,3.6631,3.6615,3.6934,3.6165,3.5718,3.5519,3.5519,3.5519,3.5519,3.5519,3.5519,3.5519,3.5519,3.5519,3.5519,3.5519,3.5519,3.5519,3.5519,3.5519,3.5519,3.5519,3.5519,3.5519,3.5519,3.5699,3.5789,3.5549,3.5878,3.6058,3.5579,3.5878,0.0,0.0,0.0,0.0,0.0,3.5519,3.5519,3.5519,3.5519,3.5519,3.5519,3.5734,3.5782,3.5506,3.6266,3.711,3.8074,3.9,4.0103,4.1406,4.2085,4.2458,4.2458,4.1901,4.1609,4.1641,4.212,4.2695,4.328,4.3982,4.4498,4.4756,4.409,4.3615,4.3429,4.4802,4.6566,4.8551,4.9899,5.1684,5.3518,5.3518,5.3518,5.3518,3.5802,3.6401,3.6423,3.4923,3.587,3.6863,3.6863,3.7449,3.791,3.791,3.791,3.7944,3.7944,3.7978,3.8294,3.8971,3.9051,3.9356,4.0045,4.0113,4.0113,4.0113,4.0113,4.0113,4.0113,4.0113,4.0113,4.0113,4.0113,4.0113,4.0113,4.0113,4.0113,4.0113,4.0113,4.0113,4.0113,4.0113,3.9649,3.8894,3.8104,3.7822,3.7778,3.6919,3.6165,3.5538,3.5489,3.5519,3.5519,3.5519,3.5519,3.5519,3.5519,3.5519,3.5519,3.5519,3.5519,3.5519,3.5519,3.5519,3.5519,3.5519,3.5519,3.5519,3.5549,3.6028,3.6344,3.5729,3.6567,3.7028,3.5818,3.6596,3.7225,0.0,0.0,0.0,3.5699,3.5579,3.5549,3.5549,3.5549,3.5549,3.5519,3.6164,3.629,3.5598,3.7591,3.886,3.9001,4.0281,4.1404,4.2298,4.302,4.3368,4.3368,4.3338,4.3323,4.3373,4.3848,4.4142,4.4289,4.5548,4.567,4.4868,4.4831,4.4236,4.3558,4.6239,4.78,4.8693,5.1294,5.2757,5.3518,5.3518,5.3518,5.3518,3.8502,3.8368,3.7967,3.7158,3.7347,3.7618,3.7618,3.7787,3.791,3.791,3.8396,3.8734,3.8734,3.922,3.9592,3.9795,3.9829,3.991,4.0079,4.0113,4.0113,4.0113,4.0113,4.0113,4.0113,4.0113,4.0113,4.0113,4.0113,4.0113,4.0113,4.0113,4.0113,4.0113,4.0113,4.0113,4.0113,4.0113,3.9978,3.9662,3.8348,3.8119,3.8469,3.7129,3.6492,3.6259,3.5716,3.5519,3.5519,3.5519,3.5519,3.5519,3.5519,3.5519,3.5519,3.5519,3.5519,3.5519,3.5519,3.5519,3.5519,3.5519,3.5519,3.5639,3.6118,3.6374,3.6583,3.6866,3.7178,3.7298,3.6969,3.7195,3.7345,0.0,0.0,0.0,3.6956,3.6537,3.6254,3.6254,3.6254,3.6058,3.5549,3.6105,3.6455,3.6271,3.7291,3.8684,4.0365,4.0921,4.2022,4.3919,4.4183,4.4284,4.4284,4.3621,4.3586,4.4129,4.409,4.4751,4.5947,4.5383,4.5397,4.5814,4.5098,4.4511,4.4268,4.6944,4.8468,4.9341,5.1239,5.26,5.3518,5.3518,5.3518,5.3518,3.9188,3.8988,3.8847,3.8875,3.8882,3.8734,3.843,3.8633,3.8882,3.8882,3.922,3.9491,3.9491,3.9842,4.0113,4.0113,4.0113,4.0113,4.0113,4.0113,4.0113,4.0113,4.0113,4.0113,4.0113,4.0113,4.0113,4.0113,4.0113,4.0113,4.0113,4.0113,4.0113,4.0113,4.0113,4.0113,4.0113,4.0113,4.0113,4.0003,3.9143,3.9049,0.0,3.8072,3.7598,3.7496,3.6753,3.6084,3.5519,3.5519,3.5519,3.5519,3.5519,3.5519,3.5519,3.5519,3.5519,3.5579,3.5848,3.5938,3.5998,3.6267,3.6327,3.6447,3.6806,3.7122,3.7345,3.7404,3.7866,3.8105,3.7524,3.7866,3.8165,3.7883,3.7853,3.7734,3.7434,3.7105,3.6896,3.6896,3.6673,3.6344,3.5968,3.6855,3.716,3.6598,3.8466,4.0042,4.1026,4.2084,4.325,4.4567,4.4615,4.4615,4.4615,4.4107,4.4256,4.4957,4.518,4.5937,4.7126,4.6371,4.6328,4.6748,4.5832,4.5228,4.5126,4.785,4.9143,4.9598,5.1765,5.2956,5.3518,5.3518,5.3518,5.3518,3.9336,3.9307,3.9579,4.0192,4.0266,4.0,3.9343,3.9722,4.0113,4.0113,4.0113,4.0113,4.0113,4.0113,4.0113,4.0113,4.0113,4.0113,4.0113,4.0113,4.0113,4.0113,4.0113,4.0113,4.0113,4.0113,4.0113,4.0113,4.0113,4.0113,4.0113,4.0113,4.0113,4.0113,4.0113,4.0113,4.0113,4.0113,4.0113,4.0113,4.0113,4.0113,4.0003,3.9209,3.8894,3.8799,3.8048,3.6951,3.5782,3.5782,3.5748,3.5651,3.5741,3.5707,3.5639,3.5729,3.5759,3.5878,3.6447,3.6613,3.6746,3.7285,3.7387,3.7417,3.7524,3.7973,3.8242,3.7764,3.8584,3.9032,3.7866,3.8614,3.9212,3.8631,3.8512,3.8332,3.7746,3.7584,3.7524,3.7524,3.7075,0.0,3.6643,3.7715,3.8004,3.6956,4.0097,4.1869,4.1488,4.3378,4.4499,4.4615,4.4615,4.4615,4.4615,4.4615,4.5007,4.5838,4.6481,4.7225,4.8026,4.7619,4.7473,4.7556,4.655,4.6103,4.6233,4.8867,4.9922,5.0186,5.2583,5.3518,5.3518,5.3518,5.3518,5.3518,4.2027,4.1632,4.1332,4.1473,4.1105,4.0722,4.0584,4.0312,4.0113,4.0113,4.0113,4.0113,4.0113,4.0113,4.0113,4.0113,4.0113,4.0113,4.0113,4.0113,4.0113,4.0113,4.0113,4.0113,4.0113,4.0113,4.0113,4.0113,4.0113,4.0113,4.0113,4.0113,4.0113,4.0113,4.0113,4.0113,4.0113,4.0113,4.0113,4.0113,4.0113,4.0113,4.0003,3.9209,3.8894,3.8799,3.8048,3.7633,3.7398,3.7398,3.6965,3.6492,3.7046,3.6811,3.6417,3.6926,3.7075,3.7088,3.7225,3.7255,3.7285,3.7357,3.7387,3.7537,3.8093,3.832,3.8512,3.8943,3.9242,3.9331,3.9092,3.9242,3.9361,3.9242,3.9212,3.9182,3.9062,3.8571,3.8212,3.8212,3.8123,3.7853,3.7315,3.7481,3.7825,3.8319,4.0055,4.1663,4.2864,4.3355,4.391,4.4567,4.4615,4.4615,4.4615,4.4615,4.5277,4.6616,4.6718,4.7496,4.8754,4.7157,4.6883,4.7523,4.6312,4.6567,4.7991,4.9847,5.1467,5.2823,5.3298,5.3518,5.3518,5.3518,5.3518,5.3585,4.2693,4.2221,4.181,4.181,4.1538,4.1351,4.1351,4.115,4.0767,4.0167,4.0331,4.0417,4.0116,4.0343,4.0405,4.0138,4.0113,4.0113,4.0113,4.0113,4.0113,4.0113,4.0113,4.0113,4.0113,4.0113,4.0113,4.0113,4.0113,4.0113,4.0113,4.0113,4.0113,4.0113,4.0113,4.0113,4.0113,4.0113,4.0113,4.0113,4.0113,4.0113,4.0109,4.0098,4.01,4.0081,4.0122,4.013,3.9953,3.8768,3.8365,3.8337,3.8231,3.7923,3.7621,3.7451,3.7387,3.7494,3.7823,3.7913,3.8003,3.8344,3.8434,3.8524,3.8841,3.8931,3.902,3.9331,3.9391,3.9391,3.9391,3.9391,3.9391,3.9391,3.9391,3.9391,3.9391,3.9122,3.8931,3.8931,3.9009,3.8954,3.8601,3.8588,3.8801,3.9298,4.108,4.2508,4.3304,4.3783,4.4195,4.4581,4.4615,4.4615,4.4615,4.4973,4.5703,4.68,4.7192,4.7936,4.8938,4.7539,4.744,4.8274,4.7577,4.7952,4.9144,5.0737,5.2207,5.3518,5.3518,5.3518,5.3518,5.3518,5.3754,5.4126,4.2855,4.2402,4.2021,4.2144,4.2062,4.1989,4.1989,4.1989,4.1628,4.0611,4.0732,4.0733,4.0306,4.054,4.0552,4.015,4.0113,4.0113,4.0113,4.0113,4.0113,4.0113,4.0113,4.0113,4.0113,4.0113,4.0113,4.0113,4.0113,4.0113,4.0113,4.0113,4.0113,4.0113,4.0113,4.0113,4.0113,4.0113,4.0113,4.0113,4.0269,4.0337,4.0405,4.1136,4.1441,4.1508,4.2083,4.2401,4.226,4.0469,4.0042,4.0159,3.9629,3.9201,3.8795,3.8247,3.7979,3.7943,3.8482,3.8601,3.8751,3.9272,3.9391,3.9391,3.9391,3.9391,3.9391,3.9391,3.9391,3.9391,3.9391,3.9391,3.9391,3.9391,3.9391,3.9391,3.9391,3.9391,3.9463,3.9648,3.9642,3.9767,4.015,4.0018,4.0015,4.0335,4.1996,4.3223,4.3652,4.4262,4.4615,4.4615,4.4615,4.4615,4.4615,4.5331,4.6075,4.6819,4.7549,4.8293,4.8987,4.8048,4.8195,4.9193,4.8812,4.9228,5.0254,5.1424,5.254,5.3518,5.3518,5.3518,5.3518,5.3518,5.3957,5.4617,4.3445,4.2977,4.277,4.3259,4.293,4.2616,4.2616,4.2616,4.2372,4.1736,4.1195,4.0897,4.0839,4.0454,4.0142,4.0113,4.0113,4.0113,4.0113,4.0113,4.0113,4.0113,4.0113,4.0113,4.0113,4.0113,4.0113,4.0113,4.0113,4.0113,4.0113,4.0113,4.0113,4.0113,4.0113,4.0113,4.0113,4.0113,4.0113,4.018,4.0832,4.1102,4.117,4.1914,4.2198,4.2198,4.23,4.2726,4.326,4.3036,4.2141,4.119,4.1697,4.0814,3.9715,4.0234,3.9843,3.9242,3.9302,3.9302,3.9331,3.9391,3.9391,3.9391,3.9391,3.9391,3.9391,3.9391,3.9391,3.9391,3.9391,3.9391,3.9391,3.9391,3.9391,3.9391,3.9391,3.9391,3.9684,4.0468,3.9894,4.0056,4.1628,4.1054,4.0954,4.1726,4.1997,4.2814,4.4395,4.4567,4.4615,4.4615,4.4615,4.4615,4.4615,4.5331,4.6075,4.6819,4.7549,4.8293,4.8987,4.8048,4.8461,4.9954,4.8833,4.9621,5.1706,5.1837,5.254,5.3518,5.3518,5.3518,5.3518,5.3518,5.3957,5.4719,4.3506,4.3321,4.3241,4.3471,4.3312,4.3187,4.3187,4.3579,4.3797,4.3563,4.2326,4.1615,4.2094,4.166,4.1481,4.1965,4.1644,4.142,4.142,4.1014,4.0764,4.0764,4.0337,4.0113,4.0113,4.0113,4.0113,4.0113,4.0113,4.0113,4.0113,4.0113,4.0113,4.0113,4.0113,4.0337,4.0764,4.0764,4.1014,4.1454,4.1758,4.1847,4.1948,4.2692,4.2949,4.3031,4.3518,4.3856,4.4113,4.4113,4.3743,4.3198,4.2958,4.2391,4.1804,4.1562,4.1246,4.0843,4.0326,4.017,4.006,3.9535,3.9391,3.9391,3.9391,3.9391,3.9391,3.9391,3.9391,3.9391,3.9391,3.9391,3.9391,3.9391,3.9391,3.9559,4.0113,3.9737,3.9932,4.1297,4.1179,4.1444,4.2645,4.2473,4.263,4.3484,4.3093,4.3093,4.3768,4.4327,4.4615,4.4615,4.4615,4.4804,4.5263,4.5974,4.6718,4.7481,4.8191,4.8714,4.9003,4.8608,4.9278,5.0731,5.0076,5.0948,5.2818,5.2187,5.254,5.3518,5.3518,5.3518,5.3551,5.3991,5.4634,5.5378,4.3506,4.3506,4.3579,4.38,4.3864,4.3947,4.4167,4.4709,4.503,4.503,4.3723,4.2984,4.354,4.2928,4.2665,4.3256,4.2685,4.23,4.23,4.1813,4.1508,4.1508,4.1014,4.0641,4.0438,4.0405,4.0303,4.0113,4.0113,4.0113,4.0113,4.0113,4.0214,4.0405,4.0405,4.0832,4.1508,4.1508,4.1813,4.2333,4.2523,4.2625,4.2692,4.3457,4.3761,4.3842,4.4398,4.4615,4.4615,4.4615,4.4615,4.4483,4.3889,4.3517,4.3123,4.2269,4.1804,4.1413,4.0537,4.0326,4.017,3.9553,3.9391,3.9391,3.9391,3.9391,3.9391,3.9391,3.9391,3.9391,3.9391,3.9391,3.9391,3.9391,3.9391,3.9595,4.0222,4.0008,4.0222,4.1462,4.1609,4.2078,4.3184,4.2848,4.2984,4.4121,4.3651,4.3413,4.3665,4.4284,4.4615,4.4615,4.4615,4.4939,4.5689,4.6413,4.7158,4.7921,4.8631,4.9018,4.9018,4.9442,5.0322,5.149,5.1252,5.2023,5.3416,5.233,5.254,5.3518,5.3518,5.3619,5.389,5.4397,5.5209,5.6105,4.3506,4.3506,4.3763,4.4553,4.47,4.4957,4.5736,4.5883,4.5883,4.5883,4.5397,4.5054,4.5054,4.3987,4.3303,4.3303,4.2685,4.23,4.23,4.23,4.23,4.23,4.23,4.1914,4.1204,4.1204,4.0832,4.0113,4.0113,4.0113,4.0113,4.0113,4.0506,4.1204,4.1204,4.161,4.23,4.23,4.23,4.2367,4.3085,4.3389,4.349,4.4296,4.4581,4.4581,4.4615,4.4615,4.4615,4.4615,4.4615,4.4615,4.4601,4.3991,4.3123,4.2269,4.138,4.0519,3.9648,3.9409,3.9409,3.9391,3.9391,3.9391,3.9391,3.9391,3.9391,3.9391,3.9391,3.9391,3.9391,3.9391,3.9391,3.9391,3.9391,3.9391,3.9409,4.0165,4.069,4.0724,4.0724,4.138,4.3123,4.1723,4.1446,4.3184,4.3323,4.3665,4.4559,4.4601,4.4615,4.4615,4.4615,4.4939,4.5689,4.6413,4.7158,4.7921,4.8631,4.9018,4.9052,5.0491,5.1573,5.2284,5.1982,5.2489,5.3416,5.233,5.254,5.3518,5.3518,5.3957,5.4583,5.4617,5.5513,5.6799,4.5039,4.5158,4.5223,4.548,4.5516,4.559,4.5847,4.6361,4.6718,4.6718,4.7036,4.7278,4.7278,4.537,4.4436,4.5351,4.4453,4.3856,4.3856,4.3335,4.3051,4.3051,4.2557,4.2198,4.1961,4.1948,4.1813,4.1589,4.1589,4.1589,4.1589,4.1589,4.1724,4.1948,4.1948,4.2354,4.3051,4.3051,4.3369,4.389,4.4127,4.4228,4.4262,4.4499,4.4615,4.4615,4.4615,4.4615,4.4615,4.4615,4.4615,4.4615,4.4615,4.4412,4.4121,4.3841,4.3558,4.303,4.1592,4.1179,4.0877,3.9684,3.9391,3.9391,3.9391,3.9391,3.9391,3.9391,3.9391,3.9391,3.9391,3.9391,3.9391,3.9391,3.9391,3.9625,4.0187,4.0025,4.0481,4.2269,4.1933,4.2252,4.402,4.3695,4.3573,4.4136,4.4179,4.4049,4.3724,4.4284,4.4615,4.4615,4.5108,4.5703,4.6447,4.7192,4.7921,4.8631,4.8883,4.9255,4.9763,5.0761,5.1607,5.2284,5.2016,5.2522,5.3416,5.233,5.254,5.3518,5.3518,5.3957,5.4668,5.5175,5.5987,5.6867,4.581,4.5883,4.5993,4.6315,4.6351,4.6471,4.6764,4.7232,4.7562,4.7562,4.8003,4.8296,4.8296,4.6646,4.587,4.6691,4.5648,4.4947,4.4947,4.4265,4.3842,4.3842,4.3416,4.301,4.2726,4.2726,4.2591,4.23,4.23,4.23,4.23,4.23,4.2469,4.2726,4.2726,4.3132,4.3842,4.3842,4.4147,4.4615,4.4615,4.4615,4.4615,4.4615,4.4615,4.4615,4.4615,4.4615,4.4615,4.4615,4.4615,4.4615,4.4615,4.4615,4.4559,4.4227,4.3871,4.332,4.1885,4.1279,4.0741,3.9666,3.9391,3.9391,3.9391,3.9391,3.9391,3.9391,3.9391,3.9391,3.9391,3.9391,3.9391,3.9391,3.9391,3.9577,4.0148,4.0025,4.0499,4.2141,4.2141,4.2567,4.3977,4.4107,4.4255,4.4587,4.4615,4.4355,4.3798,4.4312,4.4736,4.5007,4.5466,4.621,4.7192,4.765,4.8259,4.9018,4.9289,4.9796,5.0525,5.0892,5.1447,5.2132,5.1579,5.1921,5.2852,5.2187,5.254,5.3551,5.3788,5.4363,5.5108,5.5834,5.6596,5.7273,4.6067,4.6067,4.6287,4.7039,4.7186,4.7452,4.8186,4.8296,4.8296,4.8296,4.8296,4.8296,4.8296,4.7797,4.7438,4.7396,4.6233,4.5494,4.5494,4.4934,4.4615,4.4615,4.4615,4.4262,4.349,4.349,4.3152,4.2469,4.2469,4.2469,4.2469,4.2469,4.2828,4.349,4.349,4.391,4.4615,4.4615,4.4615,4.4615,4.4615,4.4615,4.4615,4.4615,4.4615,4.4615,4.4615,4.4615,4.4615,4.4615,4.4615,4.4615,4.4615,4.4615,4.444,4.3621,4.28,4.1981,4.1098,4.0274,3.9679,3.9607,3.9535,3.9481,3.9409,3.9391,3.9391,3.9391,3.9391,3.9391,3.9391,3.9391,3.9391,3.9391,3.9391,3.9391,3.9391,4.0113,4.0622,4.069,4.1413,4.2269,4.3123,4.3199,4.3577,4.444,4.4497,4.4544,4.4668,4.4668,4.5007,4.5689,4.579,4.65,4.7887,4.7954,4.836,4.9086,4.9763,5.0507,5.127,5.1006,5.1318,5.1957,5.093,5.108,5.1993,5.1939,5.2573,5.3653,5.4329,5.5074,5.5868,5.6562,5.7273,5.79,4.7599,4.7709,4.7783,4.7966,4.8003,4.8076,4.826,4.8296,4.8296,4.8296,4.8296,4.8296,4.8296,4.8153,4.7889,4.7438,4.6233,4.5494,4.5494,4.4934,4.4615,4.4615,4.4615,4.4499,4.433,4.433,4.4228,4.4073,4.4073,4.4073,4.4073,4.4073,4.4161,4.433,4.433,4.4432,4.4615,4.4615,4.4615,4.4615,4.4615,4.4615,4.4615,4.4615,4.4615,4.4615,4.4615,4.4615,4.4615,4.4615,4.4615,4.4615,4.4615,4.4615,4.4573,4.4355,4.4136,4.3798,4.2908,4.252,4.2221,4.1559,4.0877,4.0222,3.9553,3.9391,3.9391,3.9391,3.9391,3.9391,3.9391,3.9391,3.9391,3.9391,3.9391,3.9391,3.9391,3.9589,3.9955,4.0622,4.0894,4.1347,4.2237,4.2316,4.2661,4.3547,4.3606,4.4138,4.537,4.5432,4.5534,4.5689,4.6805,4.7549,4.7921,4.8462,4.912,4.983,5.0015,5.0777,5.2046,5.1967,5.2387,5.3076,5.1993,5.2152,5.3059,5.2241,5.2857,5.4363,5.455,5.5378,5.6562,5.6731,5.7273,5.79,4.8223,4.8296,4.8296,4.8296,4.8296,4.8416,4.882,4.8893,4.904,4.9407,4.9434,4.9434,4.9434,4.9434,4.9288,4.8977,4.7097,4.5778,4.5507,4.4934,4.4615,4.4615,4.4615,4.4615,4.4615,4.4615,4.4615,4.4615,4.4615,4.4615,4.4615,4.4615,4.4615,4.4615,4.4615,4.4615,4.4615,4.4615,4.4615,4.4615,4.4615,4.4615,4.4615,4.4615,4.4615,4.4615,4.4615,4.4615,4.4649,4.5007,4.5108,4.5176,4.5514,4.5616,4.5616,4.5616,4.4865,4.3919,4.3443,4.3017,4.2505,4.1609,4.0741,3.9973,3.9517,3.9391,3.9391,3.9391,3.9391,3.9391,3.9391,3.9391,3.9391,3.9391,3.9391,3.9391,3.9391,3.9391,3.972,4.0588,4.0707,4.1062,4.1933,4.1981,4.2334,4.3084,4.357,4.4311,4.5484,4.5866,4.6249,4.6688,4.7481,4.8056,4.8394,4.8359,4.8946,5.0101,5.002,5.0775,5.2267,5.1688,5.1666,5.2026,5.0949,5.1099,5.2062,5.1939,5.299,5.4651,5.4972,5.5818,5.6833,5.7171,5.7561,5.79,4.8663,4.8663,4.8663,4.8663,4.8663,4.893,4.9674,4.9784,5.0041,5.0729,5.0802,5.0802,5.0802,5.0802,5.0772,5.0654,4.8349,4.6648,4.6025,4.5314,4.485,4.4734,4.4637,4.4615,4.4615,4.4615,4.4615,4.4615,4.4615,4.4615,4.4615,4.4615,4.4615,4.4615,4.4615,4.4615,4.4615,4.4615,4.4615,4.4615,4.4615,4.4615,4.4601,4.4702,4.477,4.477,4.4871,4.4939,4.5041,4.5635,4.5872,4.5974,4.6583,4.68,4.68,4.68,4.5384,4.3833,4.3833,4.3172,4.2269,4.1273,4.0453,3.9872,3.9727,3.969,3.969,3.969,3.969,3.969,3.969,3.969,3.966,3.9571,3.9541,3.9511,3.9421,3.9391,3.9666,4.043,4.0578,4.0948,4.1701,4.183,4.2197,4.29,4.3686,4.4508,4.5324,4.6076,4.6922,4.7842,4.7839,4.8238,4.8984,4.818,4.8595,5.027,5.0042,5.0825,5.2436,5.1208,5.0703,5.0798,4.9575,4.9754,5.0943,5.1729,5.3123,5.4837,5.5564,5.6308,5.7036,5.7663,5.79,5.79,5.0398,5.0398,5.0398,5.0398,5.0398,5.0472,5.0582,5.0618,5.0655,5.0765,5.0802,5.0802,5.0802,5.0802,5.0581,4.9989,4.9525,4.8936,4.8176,4.7034,4.6081,4.5407,4.4865,4.4615,4.4615,4.4615,4.4615,4.4615,4.4615,4.4615,4.4615,4.4615,4.4615,4.4615,4.4615,4.4615,4.4615,4.4615,4.4615,4.4615,4.4615,4.4615,4.4682,4.5297,4.5534,4.5602,4.621,4.6462,4.6496,4.6597,4.6616,4.665,4.6752,4.68,4.68,4.68,4.6543,4.6252,4.6252,4.5568,4.4464,4.2813,4.2296,4.1972,4.1261,4.1104,4.1104,4.1104,4.1104,4.1104,4.1104,4.1104,4.0894,4.0337,4.0247,4.0068,3.9481,3.9391,3.9445,3.9607,4.0106,4.0492,4.0656,4.1158,4.1833,4.267,4.2882,4.3602,4.5077,4.6011,4.6847,4.7604,4.7654,4.806,4.8969,4.8629,4.931,5.1032,5.0772,5.1589,5.3281,5.2157,5.217,5.2904,5.0968,5.1243,5.3006,5.287,5.3889,5.5597,5.6341,5.707,5.773,5.7866,5.79,5.79,5.0802,5.0802,5.0802,5.0802,5.0802,5.0949,5.1389,5.1463,5.161,5.204,5.2076,5.2076,5.2076,5.2076,5.1983,5.1664,5.1282,5.0716,4.99,4.8242,4.6988,4.6226,4.5923,4.5785,4.5785,4.5413,4.5196,4.5196,4.4804,4.4615,4.4615,4.4615,4.4615,4.4615,4.4615,4.4615,4.4635,4.5041,4.5196,4.5229,4.5616,4.5785,4.5819,4.6143,4.6278,4.6346,4.6699,4.68,4.6853,4.7259,4.738,4.7462,4.7868,4.797,4.797,4.8003,4.7428,4.68,4.68,4.6149,4.5128,4.3771,4.3108,4.2515,4.1599,4.1403,4.1403,4.1403,4.1403,4.1403,4.1403,4.1403,4.1313,4.0984,4.0954,4.0834,4.0516,4.0487,4.0487,4.0487,4.0756,4.0954,4.0954,4.1224,4.1712,4.2477,4.3014,4.3754,4.489,4.5338,4.5958,4.6816,4.7819,4.8489,4.8776,4.8155,4.863,5.0182,4.9485,5.0107,5.1809,5.0722,5.0817,5.1791,5.0798,5.1476,5.3263,5.3701,5.4823,5.6325,5.6664,5.7239,5.79,5.79,5.79,5.79,5.1342,5.1342,5.1342,5.1342,5.1342,5.1573,5.216,5.227,5.2491,5.3104,5.3214,5.3214,5.3214,5.3214,5.3124,5.2959,5.2415,5.1682,5.0747,4.9197,4.7913,4.7043,4.6888,4.68,4.68,4.6244,4.5974,4.5974,4.5379,4.5108,4.5108,4.5108,4.5108,4.5108,4.5108,4.5108,4.5142,4.5703,4.5974,4.6007,4.6583,4.68,4.6834,4.6989,4.7056,4.709,4.7259,4.7293,4.7394,4.7954,4.8157,4.8259,4.8815,4.9018,4.9018,4.9018,4.8206,4.7263,4.7034,4.6493,4.5733,4.4571,4.3755,4.3013,4.2051,4.1833,4.1833,4.1833,4.1833,4.1833,4.1833,4.1833,4.1792,4.1643,4.1643,4.1583,4.1433,4.1403,4.1403,4.1403,4.1523,4.1643,4.1643,4.1762,4.2062,4.2571,4.3271,4.3919,4.4422,4.4662,4.529,4.6394,4.7819,4.8579,4.8609,4.7762,4.7988,4.9284,4.8439,4.8874,5.0358,4.9556,4.9754,5.0741,5.0921,5.1895,5.3461,5.4626,5.5784,5.6833,5.7002,5.7408,5.79,5.79,5.79,5.79,5.3031,5.3031,5.3031,5.3031,5.3031,5.3031,5.3104,5.3104,5.3141,5.3177,5.3214,5.3214,5.3214,5.3214,5.2926,5.2229,5.2136,5.152,5.0154,4.9923,4.918,4.7713,4.7115,4.68,4.68,4.6766,4.6718,4.6718,4.6665,4.6631,4.6631,4.6631,4.6631,4.6631,4.6631,4.6631,4.6631,4.6699,4.6718,4.6718,4.68,4.68,4.6853,4.7549,4.7819,4.7921,4.8612,4.8849,4.8849,4.8917,4.8917,4.8951,4.8984,4.9018,4.9018,4.9018,4.8917,4.8645,4.7768,4.7506,4.7008,4.5199,4.4694,4.4375,4.3396,4.316,4.316,4.316,4.316,4.316,4.316,4.316,4.298,4.244,4.2321,4.2111,4.1493,4.1403,4.1403,4.1403,4.1961,4.2321,4.2321,4.2821,4.319,4.325,4.3279,4.3349,4.3409,4.4282,4.549,4.7075,4.7269,4.7732,4.8592,4.7985,4.8196,4.9303,4.892,4.9293,5.0397,5.032,5.0836,5.1827,5.2521,5.3449,5.4581,5.6019,5.6697,5.6867,5.7543,5.7866,5.79,5.79,5.79,5.79,5.3214,5.3214,5.3214,5.3214,5.3214,5.3214,5.3214,5.3214,5.3214,5.3214,5.3214,5.3214,5.3214,5.3214,5.3092,5.2791,5.237,5.1692,5.0743,5.0237,4.9548,4.8538,4.829,4.8173,4.8173,4.7733,4.7481,4.7481,4.7022,4.68,4.68,4.68,4.68,4.68,4.68,4.68,4.6834,4.7293,4.7481,4.7515,4.797,4.8173,4.8206,4.8477,4.8563,4.8597,4.8917,4.9018,4.9018,4.9018,4.9018,4.9018,4.9018,4.9018,4.9018,4.9018,4.9018,4.8907,4.8561,4.8482,4.8032,4.6152,4.567,4.5251,4.3654,4.329,4.329,4.329,4.329,4.329,4.329,4.329,4.322,4.3,4.297,4.288,4.2592,4.2562,4.2562,4.2562,4.2821,4.297,4.297,4.316,4.329,4.329,4.329,4.329,4.329,4.4046,4.522,4.6823,4.6739,4.7083,4.8023,4.7805,4.7833,4.807,4.793,4.8072,4.848,4.9125,4.9836,5.0644,5.1617,5.3128,5.4948,5.5499,5.6437,5.7509,5.7798,5.79,5.79,5.79,5.79,5.79,5.3214,5.3214,5.3214,5.3214,5.3214,5.3214,5.3214,5.3214,5.3214,5.3214,5.3214,5.3214,5.3214,5.3214,5.3103,5.2883,5.2207,5.1494,5.0796,5.0075,4.9477,4.9034,4.9018,4.9018,4.9018,4.8496,4.8259,4.8259,4.7733,4.7496,4.7496,4.7496,4.7496,4.7496,4.7496,4.7496,4.753,4.8022,4.8259,4.8293,4.8815,4.9018,4.9018,4.9018,4.9018,4.9018,4.9018,4.9018,4.9018,4.9018,4.9018,4.9018,4.9018,4.9018,4.9018,4.9018,4.9018,4.9018,4.9018,4.9018,4.8545,4.6662,4.6191,4.5692,4.3721,4.329,4.329,4.329,4.329,4.329,4.329,4.329,4.329,4.329,4.329,4.329,4.329,4.329,4.329,4.329,4.329,4.329,4.329,4.329,4.329,4.329,4.3519,4.3698,4.3908,4.4566,4.5433,4.6538,4.659,4.693,4.7568,4.7568,4.749,4.7309,4.7309,4.7309,4.7331,4.855,4.9563,5.039,5.1542,5.3422,5.5634,5.5509,5.6402,5.79,5.79,5.79,5.79,5.79,5.79,5.79,5.3214,5.3214,5.3214,5.3214,5.3214,5.3214,5.3214,5.3214,5.3214,5.3214,5.3214,5.3214,5.3214,5.3214,5.2915,5.2159,5.1494,5.0796,5.0061,4.9357,4.9018,4.9018,4.9018,4.9018,4.9018,4.9018,4.9018,4.9018,4.9018,4.9018,4.9018,4.9018,4.9018,4.9018,4.9018,4.9018,4.9018,4.9018,4.9018,4.9018,4.9018,4.9018,4.9018,4.9018,4.9018,4.9018,4.9018,4.9018,4.9018,4.9018,4.9018,4.9018,4.9018,4.9018,4.9018,4.9018,4.9018,4.9018,4.9018,4.9018,4.8545,4.6662,4.6208,4.5692,4.3771,4.3309,4.329,4.329,4.329,4.329,4.329,4.329,4.329,4.329,4.329,4.329,4.329,4.329,4.329,4.329,4.329,4.329,4.329,4.329,4.329,4.3339,4.3938,4.4616,4.5274,4.5942,4.63,4.63,4.6929,4.7309,4.7309,4.7309,4.7309,4.7309,4.7309,4.7309,4.7382,4.904,5.0431,5.1556,5.2916,5.4724,5.6759,5.6345,5.6854,5.79,5.79,5.79,5.79,5.79,5.79,5.79,5.3214,5.3214,5.3214,5.3214,5.3214,5.3214,5.3214,5.3214,5.3214,5.3214,5.3214,5.3214,5.3214,5.3214,5.2915,5.2159,5.1934,5.1305,5.009,4.9357,4.9018,4.9018,4.9018,4.9018,4.9018,4.9018,4.9018,4.9018,4.9018,4.9018,4.9018,4.9018,4.9018,4.9018,4.9018,4.9018,4.9018,4.9018,4.9018,4.9018,4.9018,4.9018,4.9018,4.9018,4.9018,4.9018,4.9018,4.9018,4.9018,4.9018,4.9018,4.9018,4.9018,4.9018,4.9018,4.9018,4.9018,4.9018,4.9018,4.9018,4.872,4.7473,4.6679,4.5871,4.4612,4.381,4.329,4.329,4.329,4.329,4.329,4.329,4.329,4.329,4.329,4.329,4.329,4.329,4.329,4.329,4.329,4.3469,4.3967,4.3997,4.4207,4.4676,4.4885,4.5304,4.5971,4.6181,4.651,4.701,4.7219,4.7309,4.7309,4.7309,4.7309,4.7309,4.7309,4.7549,4.8041,4.9255,5.0094,5.0655,5.1809,5.3427,5.5237,5.513,5.6198,5.79,5.79,5.79,5.79,5.79,5.79,5.79,5.3618,5.3654,5.3775,5.4106,5.4142,5.4142,5.4142,5.4142,5.4142,5.4142,5.4142,5.4142,5.4142,5.3606,5.3061,5.2617,5.1785,5.0894,5.0061,4.9357,4.9018,4.9018,4.9018,4.9018,4.9018,4.9018,4.9018,4.9018,4.9018,4.9018,4.9018,4.9018,4.9018,4.9018,4.9018,4.9018,4.9018,4.9018,4.9018,4.9018,4.9018,4.9018,4.9018,4.9018,4.9018,4.9018,4.9018,4.9018,4.9018,4.9018,4.9187,4.9424,4.9424,4.9627,4.9864,4.9864,4.9864,4.9864,4.9864,4.9864,4.9738,4.9157,4.7884,4.6401,4.5098,4.432,4.3771,4.3389,4.329,4.329,4.329,4.329,4.3379,4.3668,4.3698,4.3788,4.4057,4.4087,4.4087,4.4087,4.4087,4.4237,4.4676,4.4706,4.4975,4.5663,4.5693,4.5992,4.6659,4.6689,4.6869,4.7309,4.7309,4.7309,4.7309,4.7549,4.7698,4.7698,4.7698,4.8027,4.873,4.9573,5.0296,5.0931,5.1845,5.3385,5.5215,5.5215,5.6295,5.79,5.79,5.79,5.79,5.79,5.79,5.79,5.4363,5.4509,5.473,5.5475,5.5585,5.5585,5.5585,5.5585,5.5585,5.5585,5.5585,5.5585,5.5585,5.4343,5.3472,5.3412,5.1462,5.0212,5.0212,4.9596,4.9221,4.9221,4.9221,4.9221,4.9221,4.9086,4.9018,4.9018,4.9018,4.9018,4.9018,4.9018,4.9018,4.9018,4.9018,4.9018,4.9018,4.9018,4.9018,4.9018,4.9018,4.9018,4.9018,4.9018,4.9052,4.9086,4.9086,4.9154,4.9221,4.9221,4.9627,5.0218,5.0218,5.0676,5.1201,5.1201,5.1201,5.1201,5.1201,5.1201,5.1201,5.1201,4.9491,4.7317,4.5525,4.4979,4.458,4.3688,4.3489,4.3489,4.3489,4.3489,4.3698,4.4296,4.4386,4.4616,4.5214,4.5304,4.5304,4.5304,4.5304,4.5304,4.5394,4.5424,4.5723,4.633,4.639,4.6659,4.7279,4.7309,4.7309,4.7309,4.7309,4.7339,4.7399,4.7997,4.8319,4.8319,4.8379,4.8738,4.9396,4.9949,5.0804,5.188,5.2577,5.4094,5.6067,5.6165,5.6854,5.79,5.79,5.79,5.79,5.79,5.79,5.79,5.5328,5.5328,5.5401,5.5585,5.5585,5.5585,5.5585,5.5585,5.5585,5.5585,5.5585,5.5585,5.5585,5.5291,5.4884,5.4363,5.2829,5.1893,5.1893,5.1148,5.0728,5.0728,5.0728,5.0728,5.0728,4.9578,4.9018,4.9018,4.9018,4.9018,4.9018,4.9018,4.9018,4.9018,4.9018,4.9018,4.9018,4.9018,4.9018,4.9018,4.9018,4.9018,4.9018,4.9018,4.9357,4.9864,4.9864,5.0236,5.0728,5.0728,5.0829,5.0964,5.0964,5.1066,5.1201,5.1201,5.1201,5.1201,5.1201,5.1201,5.1201,5.1201,5.0226,4.8958,4.7801,4.6323,4.5141,4.4896,4.4855,4.4855,4.4855,4.4855,4.4915,4.5065,4.5095,4.5125,4.5274,4.5304,4.5304,4.5304,4.5304,4.5514,4.6031,4.6561,4.695,4.7048,4.7078,4.716,4.7309,4.7309,4.7309,4.7309,4.7309,4.7549,4.8079,4.8229,4.8319,4.8319,4.8828,4.9404,5.0009,5.0159,5.0626,5.14,5.2446,5.3677,5.4991,5.5837,5.6854,5.79,5.79,5.79,5.79,5.79,5.79,5.79,5.6088,5.6161,5.6271,5.6686,5.676,5.676,5.676,5.676,5.676,5.676,5.676,5.676,5.676,5.6106,5.5245,5.4128,5.3022,5.2379,5.2349,5.1626,5.1201,5.1201,5.1201,5.1201,5.1201,5.0423,5.0051,5.0051,5.0051,5.0051,5.0051,5.0051,5.0051,5.0051,5.0051,5.0051,5.0051,5.0051,5.0051,5.0051,5.0051,5.0051,5.0051,5.0051,5.0304,5.0608,5.0608,5.0863,5.1201,5.1201,5.1438,5.1708,5.1708,5.1979,5.2283,5.2283,5.2283,5.2283,5.2283,5.2283,5.2184,5.1681,5.0783,4.971,4.8574,4.7076,4.5839,4.5378,4.5304,4.5304,4.5304,4.5304,4.5394,4.5723,4.5783,4.5903,4.6202,4.6262,4.6262,4.6262,4.6262,4.6381,4.6719,4.7078,4.7309,4.7309,4.7309,4.7309,4.7309,4.7309,4.7459,4.7758,4.7788,4.8087,4.8768,4.9075,4.9224,4.9224,4.9553,5.0039,5.0697,5.0697,5.1171,5.2063,5.3231,5.4327,5.547,5.6567,5.7353,5.79,5.79,5.79,5.79,5.79,5.79,5.79,5.6859,5.6994,5.7226,5.7886,5.7997,5.7997,5.7997,5.7997,5.7997,5.7997,5.7997,5.7997,5.7997,5.6806,5.5436,5.4091,5.3237,5.2731,5.272,5.202,5.1573,5.1573,5.1573,5.1573,5.1573,5.1573,5.1472,5.1201,5.1201,5.1201,5.1201,5.1201,5.1201,5.1201,5.1201,5.1201,5.1201,5.1201,5.1201,5.1201,5.1201,5.1201,5.1201,5.1201,5.1269,5.137,5.137,5.1472,5.1573,5.1573,5.1995,5.2503,5.2503,5.2976,5.3518,5.3518,5.3518,5.3518,5.3518,5.3518,5.3297,5.2383,5.1266,5.0109,4.8925,4.7722,4.6569,4.5791,4.5633,4.5633,4.5633,4.5633,4.5813,4.639,4.648,4.6659,4.7219,4.7309,4.7309,4.7309,4.7309,4.7309,4.7309,4.7309,4.7309,4.7309,4.7309,4.7369,4.7459,4.7489,4.7788,4.8468,4.8468,4.8798,4.9456,4.9949,5.0255,5.0375,5.0375,5.0667,5.1206,5.1206,5.1842,5.2967,5.4105,5.5227,5.6282,5.7428,5.79,5.79,5.79,5.79,5.79,5.79,5.79,5.79,5.7813,5.785,5.7886,5.796,5.7997,5.7997,5.7997,5.7997,5.7997,5.7997,5.7997,5.7997,5.7997,5.7242,5.6657,5.6459,5.5126,5.431,5.4295,5.3606,5.3179,5.3179,5.3179,5.3179,5.3179,5.3179,5.2536,5.1201,5.1201,5.1201,5.1201,5.1201,5.1201,5.1201,5.1201,5.1201,5.1201,5.1201,5.1201,5.1201,5.1201,5.1201,5.1201,5.1201,5.1607,5.2164,5.2164,5.2604,5.3179,5.3179,5.3281,5.3348,5.3348,5.3416,5.3518,5.3518,5.3518,5.3518,5.3518,5.3518,5.3484,5.3331,5.1846,5.0365,5.0173,4.8602,4.7182,4.7061,4.704,4.704,4.704,4.704,4.707,4.716,4.716,4.7219,4.7309,4.7309,4.7309,4.7309,4.7309,4.7309,4.7309,4.7309,4.7309,4.7309,4.7309,4.7549,4.8117,4.8147,4.8468,4.9127,4.9157,4.9464,5.0069,5.0136,5.0488,5.1056,5.1056,5.1116,5.1206,5.1206,5.1842,5.2967,5.4105,5.5227,5.6282,5.7428,5.79,5.79,5.79,5.79,5.79,5.79,5.79,5.79,5.7997,5.7997,5.7997,5.7997,5.7997,5.7997,5.7997,5.7997,5.7997,5.7997,5.7997,5.7997,5.7997,5.7351,5.655,5.5702,5.4999,5.4419,5.3993,5.3667,5.3518,5.3518,5.3518,5.3518,5.3518,5.3518,5.3179,5.2486,5.2486,5.2486,5.2486,5.2486,5.2486,5.2486,5.2486,5.2486,5.2486,5.2486,5.2486,5.2486,5.2486,5.2486,5.2486,5.2486,5.2689,5.2976,5.2976,5.3213,5.3518,5.3518,5.3518,5.3518,5.3518,5.3518,5.3518,5.3518,5.3518,5.3518,5.3518,5.3518,5.3348,5.2765,5.1903,5.093,4.9773,4.88,4.7988,4.7409,4.7309,4.7309,4.7309,4.7309,4.7309,4.7309,4.7309,4.7309,4.7309,4.7309,4.7309,4.7309,4.7309,4.7309,4.7309,4.7309,4.7459,4.7818,4.7848,4.8169,4.8828,4.8858,4.9157,4.9793,4.9793,5.0122,5.0757,5.0757,5.0907,5.1206,5.1206,5.1206,5.1206,5.1206,5.2177,5.3871,5.4379,5.5571,5.7204,5.7683,5.79,5.79,5.79,5.79,5.79,5.79,5.79,5.79]}]]